[[{"header":{"parameterUnit":"m.s-1","parameterCategory":1,"la1":30.6,"la2":28.766,"lo1":-90.7593,"lo2":-88.6598,"dy":0.0162,"dx":0.0183,"nx":116,"ny":114,"refTime":"2023-04-13T00:00:00:Z","depth":0,"parameterNumber":2,"parameterNumberName":"U-component_of_WINDS"},"data":[0.0,0.0,0.0,0.0,0.0,0.0,0.0,0.0,0.0,0.0,0.0,0.0,0.0,0.0,0.0,0.0,0.0,0.0,0.0,0.0,0.0,0.0,0.0,0.0,0.0,0.0,0.0,0.0,0.0,0.0,0.0,0.0,0.0,0.0,0.0,0.0,0.0,0.0,0.0,0.0,0.0,0.0,0.0,0.0,0.0,0.0,0.0,0.0,0.0,0.0,0.0,0.0,0.0,0.0,0.0,0.0,0.0,0.0,0.0,0.0,0.0,0.0,0.0,0.0,0.0,0.0,0.0,0.0,0.0,0.0,0.0,0.0,0.0,0.0,0.0,0.0,0.0,0.0,0.0,0.0,0.0,0.0,0.0,0.0,0.0,0.0,0.0,0.0,0.0,0.0,0.0,0.0,0.0,0.0,0.0,0.0,0.0,0.0,0.0,0.0,0.0,0.0,0.0,0.0,0.0,0.0,0.0,0.0,0.0,0.0,0.0,0.0,0.0,0.0,0.0,0.0,0.0,0.0,0.0,0.0,0.0,0.0,0.0,0.0,0.0,0.0,0.0,0.0,0.0,0.0,0.0,0.0,0.0,0.0,0.0,0.0,0.0,0.0,0.0,0.0,0.0,0.0,0.0,0.0,0.0,0.0,0.0,0.0,0.0,0.0,0.0,0.0,0.0,0.0,0.0,0.0,0.0,0.0,0.0,0.0,0.0,0.0,0.0,0.0,0.0,0.0,0.0,0.0,0.0,0.0,0.0,0.0,0.0,0.0,0.0,0.0,0.0,0.0,0.0,0.0,0.0,0.0,0.0,0.0,0.0,0.0,0.0,0.0,0.0,0.0,0.0,0.0,0.0,0.0,0.0,0.0,0.0,0.0,0.0,0.0,0.0,0.0,0.0,0.0,0.0,0.0,0.0,0.0,0.0,0.0,0.0,0.0,0.0,0.0,0.0,0.0,0.0,0.0,0.0,0.0,0.0,0.0,0.0,0.0,0.0,0.0,0.0,0.0,0.0,0.0,0.0,0.0,0.0,0.0,0.0,0.0,0.0,0.0,0.0,0.0,0.0,0.0,0.0,0.0,0.0,0.0,0.0,0.0,0.0,0.0,0.0,0.0,0.0,0.0,0.0,0.0,0.0,0.0,0.0,0.0,0.0,0.0,0.0,0.0,0.0,0.0,0.0,0.0,0.0,0.0,0.0,0.0,0.0,0.0,0.0,0.0,0.0,0.0,0.0,0.0,0.0,0.0,0.0,0.0,0.0,0.0,0.0,0.0,0.0,0.0,0.0,0.0,0.0,0.0,0.0,0.0,0.0,0.0,0.0,0.0,0.0,0.0,0.0,0.0,0.0,0.0,0.0,0.0,0.0,0.0,0.0,0.0,0.0,0.0,0.0,0.0,0.0,0.0,0.0,0.0,0.0,0.0,0.0,0.0,0.0,0.0,0.0,0.0,0.0,0.0,0.0,0.0,0.0,0.0,0.0,0.0,0.0,0.0,0.0,0.0,0.0,0.0,0.0,0.0,0.0,0.0,0.0,0.0,0.0,0.0,0.0,0.0,0.0,0.0,0.0,0.0,0.0,0.0,0.0,0.0,0.0,0.0,0.0,0.0,0.0,0.0,0.0,0.0,0.0,0.0,0.0,0.0,0.0,0.0,0.0,0.0,0.0,0.0,0.0,0.0,0.0,0.0,0.0,0.0,0.0,0.0,0.0,0.0,0.0,0.0,0.0,0.0,0.0,0.0,0.0,0.0,0.0,0.0,0.0,0.0,0.0,0.0,0.0,0.0,0.0,0.0,0.0,0.0,0.0,0.0,0.0,0.0,0.0,0.0,0.0,0.0,0.0,0.0,0.0,0.0,0.0,0.0,0.0,0.0,0.0,0.0,0.0,0.0,0.0,0.0,0.0,0.0,0.0,0.0,0.0,0.0,0.0,0.0,0.0,0.0,0.0,0.0,0.0,0.0,0.0,0.0,0.0,0.0,0.0,0.0,0.0,0.0,0.0,0.0,0.0,0.0,0.0,0.0,0.0,0.0,0.0,0.0,0.0,0.0,0.0,0.0,0.0,0.0,0.0,0.0,0.0,0.0,0.0,0.0,0.0,0.0,0.0,0.0,0.0,0.0,0.0,0.0,0.0,0.0,0.0,0.0,0.0,0.0,0.0,0.0,0.0,0.0,0.0,0.0,0.0,0.0,0.0,0.0,0.0,0.0,0.0,0.0,0.0,0.0,0.0,0.0,0.0,0.0,0.0,0.0,0.0,0.0,0.0,0.0,0.0,0.0,0.0,0.0,0.0,0.0,0.0,0.0,0.0,0.0,0.0,0.0,0.0,0.0,0.0,0.0,0.0,0.0,0.0,0.0,0.0,0.0,0.0,0.0,0.0,0.0,0.0,0.0,0.0,0.0,0.0,0.0,0.0,0.0,0.0,0.0,0.0,0.0,0.0,0.0,0.0,0.0,0.0,0.0,0.0,0.0,0.0,0.0,0.0,0.0,0.0,0.0,0.0,0.0,0.0,0.0,0.0,0.0,0.0,0.0,0.0,0.0,0.0,0.0,0.0,0.0,0.0,0.0,0.0,0.0,0.0,0.0,0.0,0.0,0.0,0.0,0.0,0.0,0.0,0.0,0.0,0.0,0.0,0.0,0.0,0.0,0.0,0.0,0.0,0.0,0.0,0.0,0.0,0.0,0.0,0.0,0.0,0.0,0.0,0.0,0.0,0.0,0.0,0.0,0.0,0.0,0.0,0.0,0.0,0.0,0.0,0.0,0.0,0.0,0.0,0.0,0.0,0.0,0.0,0.0,0.0,0.0,0.0,0.0,0.0,0.0,0.0,0.0,0.0,0.0,0.0,0.0,0.0,0.0,0.0,0.0,0.0,0.0,0.0,0.0,0.0,0.0,0.0,0.0,0.0,0.0,0.0,0.0,0.0,0.0,0.0,0.0,0.0,0.0,0.0,0.0,0.0,0.0,0.0,0.0,0.0,0.0,0.0,0.0,0.0,0.0,0.0,0.0,0.0,0.0,0.0,0.0,0.0,0.0,0.0,0.0,0.0,0.0,0.0,0.0,0.0,0.0,0.0,0.0,0.0,0.0,0.0,0.0,0.0,0.0,0.0,0.0,0.0,0.0,0.0,0.0,0.0,0.0,0.0,0.0,0.0,0.0,0.0,0.0,0.0,0.0,0.0,0.0,0.0,0.0,0.0,0.0,0.0,0.0,0.0,0.0,0.0,0.0,0.0,0.0,0.0,0.0,0.0,0.0,0.0,0.0,0.0,0.0,0.0,0.0,0.0,0.0,0.0,0.0,0.0,0.0,0.0,0.0,0.0,0.0,0.0,0.0,0.0,0.0,0.0,0.0,0.0,0.0,0.0,0.0,0.0,0.0,0.0,0.0,0.0,0.0,0.0,0.0,0.0,0.0,0.0,0.0,0.0,0.0,0.0,0.0,0.0,0.0,0.0,0.0,0.0,0.0,0.0,0.0,0.0,0.0,0.0,0.0,0.0,0.0,0.0,0.0,0.0,0.0,0.0,0.0,0.0,0.0,0.0,0.0,0.0,0.0,0.0,0.0,0.0,0.0,0.0,0.0,0.0,0.0,0.0,0.0,0.0,0.0,0.0,0.0,0.0,0.0,0.0,0.0,0.0,0.0,0.0,0.0,0.0,0.0,0.0,0.0,0.0,0.0,0.0,0.0,0.0,0.0,0.0,0.0,0.0,0.0,0.0,0.0,0.0,0.0,0.0,0.0,0.0,0.0,0.0,0.0,0.0,0.0,0.0,0.0,0.0,0.0,0.0,0.0,0.0,0.0,0.0,0.0,0.0,0.0,0.0,0.0,0.0,0.0,0.0,0.0,0.0,0.0,0.0,0.0,0.0,0.0,0.0,0.0,0.0,0.0,0.0,0.0,0.0,0.0,0.0,0.0,0.0,0.0,0.0,0.0,0.0,0.0,0.0,0.0,0.0,0.0,0.0,0.0,0.0,0.0,0.0,0.0,0.0,0.0,0.0,0.0,0.0,0.0,0.0,0.0,0.0,0.0,0.0,0.0,0.0,0.0,0.0,0.0,0.0,0.0,0.0,0.0,0.0,0.0,0.0,0.0,0.0,0.0,0.0,0.0,0.0,0.0,0.0,0.0,0.0,0.0,0.0,0.0,0.0,0.0,0.0,0.0,0.0,0.0,0.0,0.0,0.0,0.0,0.0,0.0,0.0,0.0,0.0,0.0,0.0,0.0,0.0,0.0,0.0,0.0,0.0,0.0,0.0,0.0,0.0,0.0,0.0,0.0,0.0,0.0,0.0,0.0,0.0,0.0,0.0,0.0,0.0,0.0,0.0,0.0,0.0,0.0,0.0,0.0,0.0,0.0,0.0,0.0,0.0,0.0,0.0,0.0,0.0,0.0,0.0,0.0,0.0,0.0,0.0,0.0,0.0,0.0,0.0,0.0,0.0,0.0,0.0,0.0,0.0,0.0,0.0,0.0,0.0,0.0,0.0,0.0,0.0,0.0,0.0,0.0,0.0,0.0,0.0,0.0,0.0,0.0,0.0,0.0,0.0,0.0,0.0,0.0,0.0,0.0,0.0,0.0,0.0,0.0,0.0,0.0,0.0,0.0,0.0,0.0,0.0,0.0,0.0,0.0,0.0,0.0,0.0,0.0,0.0,0.0,0.0,0.0,0.0,0.0,0.0,0.0,0.0,0.0,0.0,0.0,0.0,0.0,0.0,0.0,0.0,0.0,0.0,0.0,0.0,0.0,0.0,0.0,0.0,0.0,0.0,0.0,0.0,0.0,0.0,0.0,0.0,0.0,0.0,0.0,0.0,0.0,0.0,0.0,0.0,0.0,0.0,0.0,0.0,0.0,0.0,0.0,0.0,0.0,0.0,0.0,0.0,0.0,0.0,0.0,0.0,0.0,0.0,0.0,0.0,0.0,0.0,0.0,0.0,0.0,0.0,0.0,0.0,0.0,0.0,0.0,0.0,0.0,0.0,0.0,0.0,0.0,0.0,0.0,0.0,0.0,0.0,0.0,0.0,0.0,0.0,0.0,0.0,0.0,0.0,0.0,0.0,0.0,0.0,0.0,0.0,0.0,0.0,0.0,0.0,0.0,0.0,0.0,0.0,0.0,0.0,0.0,0.0,0.0,0.0,0.0,0.0,0.0,0.0,0.0,0.0,0.0,0.0,0.0,0.0,0.0,0.0,0.0,0.0,0.0,0.0,0.0,0.0,0.0,0.0,0.0,0.0,0.0,0.0,0.0,0.0,0.0,0.0,0.0,0.0,0.0,0.0,0.0,0.0,0.0,0.0,0.0,0.0,0.0,0.0,0.0,0.0,0.0,0.0,0.0,0.0,0.0,0.0,0.0,0.0,0.0,0.0,0.0,0.0,0.0,0.0,0.0,0.0,0.0,0.0,0.0,0.0,0.0,0.0,0.0,0.0,0.0,0.0,0.0,0.0,0.0,0.0,0.0,0.0,0.0,0.0,0.0,0.0,0.0,0.0,0.0,0.0,0.0,0.0,0.0,0.0,0.0,0.0,0.0,0.0,0.0,0.0,0.0,0.0,0.0,0.0,0.0,0.0,0.0,0.0,0.0,0.0,0.0,0.0,0.0,0.0,0.0,0.0,0.0,0.0,0.0,0.0,0.0,0.0,0.0,0.0,0.0,0.0,0.0,0.0,0.0,0.0,0.0,0.0,0.0,0.0,0.0,0.0,0.0,0.0,0.0,0.0,0.0,0.0,0.0,0.0,0.0,0.0,0.0,0.0,0.0,0.0,0.0,0.0,0.0,0.0,0.0,0.0,0.0,0.0,0.0,0.0,0.0,0.0,0.0,0.0,0.0,0.0,0.0,0.0,0.0,0.0,0.0,0.0,0.0,0.0,0.0,0.0,0.0,0.0,0.0,0.0,0.0,0.0,0.0,0.0,0.0,0.0,0.0,0.0,0.0,0.0,0.0,0.0,0.0,0.0,0.0,0.0,0.0,0.0,0.0,0.0,0.0,0.0,0.0,0.0,0.0,0.0,0.0,0.0,0.0,0.0,0.0,0.0,0.0,0.0,0.0,0.0,0.0,0.0,0.0,0.0,0.0,0.0,0.0,5.1229,0.0,0.0,0.0,0.0,0.0,0.0,0.0,0.0,0.0,0.0,0.0,0.0,0.0,0.0,0.0,0.0,0.0,0.0,0.0,0.0,0.0,0.0,0.0,0.0,0.0,0.0,0.0,0.0,0.0,0.0,0.0,0.0,0.0,0.0,0.0,0.0,0.0,0.0,0.0,0.0,0.0,0.0,0.0,0.0,0.0,0.0,0.0,0.0,0.0,0.0,0.0,0.0,0.0,0.0,0.0,0.0,0.0,0.0,0.0,0.0,0.0,0.0,0.0,0.0,0.0,0.0,0.0,0.0,0.0,0.0,0.0,0.0,0.0,0.0,0.0,0.0,0.0,0.0,0.0,0.0,0.0,0.0,0.0,0.0,0.0,0.0,0.0,0.0,0.0,0.0,0.0,0.0,0.0,0.0,0.0,0.0,0.0,0.0,0.0,0.0,0.0,0.0,0.0,0.0,0.0,0.0,0.0,0.0,0.0,0.0,0.0,0.0,0.0,0.0,0.0,0.0,5.1229,0.0,0.0,0.0,0.0,0.0,0.0,0.0,0.0,0.0,0.0,0.0,0.0,0.0,0.0,0.0,0.0,0.0,0.0,0.0,0.0,0.0,0.0,0.0,0.0,5.8133,5.8027,5.7954,5.8027,0.0,0.0,0.0,0.0,0.0,0.0,0.0,0.0,0.0,0.0,0.0,0.0,0.0,0.0,0.0,0.0,0.0,0.0,0.0,0.0,0.0,0.0,0.0,0.0,0.0,0.0,0.0,0.0,0.0,0.0,0.0,0.0,0.0,0.0,0.0,0.0,0.0,0.0,0.0,0.0,0.0,0.0,0.0,0.0,0.0,0.0,0.0,0.0,0.0,0.0,0.0,0.0,0.0,0.0,0.0,0.0,0.0,0.0,0.0,0.0,0.0,0.0,0.0,0.0,0.0,0.0,0.0,0.0,0.0,0.0,0.0,0.0,0.0,0.0,0.0,0.0,0.0,0.0,0.0,0.0,5.1229,5.1229,5.1229,5.1229,5.1229,5.1229,5.1229,5.1229,5.1229,0.0,0.0,0.0,0.0,0.0,0.0,0.0,0.0,0.0,0.0,0.0,0.0,0.0,0.0,0.0,0.0,0.0,0.0,0.0,0.0,0.0,0.0,5.8171,5.8277,5.8419,5.8277,5.8277,0.0,0.0,0.0,0.0,0.0,0.0,0.0,0.0,0.0,0.0,0.0,0.0,5.7954,5.7881,5.7881,5.7881,5.7881,0.0,0.0,0.0,0.0,0.0,0.0,0.0,0.0,0.0,0.0,0.0,0.0,0.0,0.0,0.0,0.0,0.0,0.0,0.0,0.0,0.0,0.0,0.0,0.0,0.0,0.0,0.0,0.0,0.0,0.0,0.0,0.0,0.0,0.0,0.0,0.0,0.0,0.0,0.0,0.0,0.0,0.0,0.0,5.3836,5.2935,0.0,0.0,0.0,0.0,0.0,0.0,0.0,0.0,0.0,0.0,0.0,0.0,0.0,5.1229,5.1229,5.1229,5.1229,5.1229,5.1229,5.1229,5.1229,5.1229,5.1229,5.1229,5.1229,0.0,5.1229,5.1229,0.0,0.0,0.0,0.0,0.0,0.0,0.0,0.0,0.0,0.0,0.0,0.0,0.0,0.0,0.0,0.0,0.0,0.0,0.0,0.0,0.0,5.8243,5.8348,5.8348,5.8348,5.849,5.8631,5.8419,0.0,0.0,0.0,0.0,0.0,0.0,0.0,0.0,5.8099,5.8027,5.8027,5.7954,5.7881,5.7881,5.7881,5.7881,5.7881,5.7881,0.0,0.0,0.0,0.0,0.0,0.0,0.0,0.0,0.0,0.0,0.0,0.0,0.0,0.0,0.0,0.0,0.0,0.0,0.0,0.0,0.0,0.0,0.0,0.0,0.0,0.0,0.0,0.0,0.0,0.0,0.0,0.0,0.0,0.0,0.0,0.0,0.0,0.0,0.0,5.5231,5.4264,5.2877,5.2698,5.2698,0.0,0.0,0.0,0.0,0.0,0.0,0.0,0.0,0.0,5.1229,5.1229,5.1229,5.1229,5.1229,5.1229,5.1229,5.1229,5.1229,5.1229,5.1229,5.1229,5.1229,5.1229,5.1229,5.1229,5.1229,5.1229,5.1229,0.0,0.0,0.0,0.0,5.1229,5.1229,0.0,0.0,0.0,0.0,0.0,0.0,0.0,0.0,0.0,0.0,0.0,0.0,5.8099,5.8348,5.8561,5.8385,5.849,5.8631,5.884,5.8561,0.0,0.0,0.0,0.0,0.0,0.0,0.0,5.8099,5.8027,5.8027,5.8099,5.7954,5.7881,5.7881,5.7881,5.7881,5.7881,5.7881,5.7881,5.7881,0.0,0.0,0.0,0.0,0.0,0.0,0.0,0.0,0.0,0.0,0.0,0.0,0.0,0.0,0.0,0.0,0.0,0.0,0.0,0.0,0.0,0.0,0.0,0.0,0.0,0.0,0.0,0.0,0.0,0.0,0.0,0.0,0.0,0.0,0.0,0.0,0.0,5.5149,5.4401,5.2877,5.2608,5.2608,0.0,0.0,0.0,0.0,0.0,0.0,5.1229,5.1229,5.1229,5.1229,5.1229,5.1229,5.1229,5.1229,5.1229,5.1229,5.1229,5.1229,5.1229,5.1229,5.1229,5.1229,5.1229,5.1229,5.1229,5.1229,5.1229,5.1229,5.1229,5.1229,5.1229,5.1229,5.1229,5.1135,0.0,0.0,0.0,0.0,0.0,0.0,0.0,0.0,0.0,0.0,0.0,5.8277,5.849,5.8631,5.884,5.8944,5.884,5.884,5.8944,5.8526,5.8348,5.849,0.0,0.0,0.0,0.0,0.0,5.7881,5.8099,5.8099,5.7881,5.7881,5.7881,5.7881,5.7881,5.7881,5.7881,5.7881,5.7881,5.7881,5.7881,0.0,0.0,0.0,0.0,0.0,0.0,0.0,0.0,0.0,0.0,0.0,0.0,0.0,0.0,0.0,0.0,0.0,0.0,0.0,0.0,0.0,0.0,0.0,0.0,0.0,0.0,0.0,0.0,0.0,0.0,0.0,0.0,0.0,0.0,0.0,0.0,0.0,0.0,5.2788,5.2518,0.0,0.0,0.0,0.0,5.1572,5.1416,5.1229,5.1229,5.1229,5.1229,5.1229,5.1229,5.1229,5.1229,5.1229,5.1229,5.1229,5.1229,5.1229,5.1229,5.1229,5.1229,5.1229,5.1229,5.1229,5.1229,5.1229,5.1229,5.1229,5.1229,5.1229,5.1229,5.1229,5.1229,5.1135,0.0,0.0,0.0,0.0,0.0,0.0,0.0,0.0,5.8099,5.8099,5.8419,5.8561,5.849,5.8771,5.8909,5.8909,5.8909,5.8944,5.9012,5.8597,5.849,5.8701,0.0,0.0,0.0,0.0,5.8099,5.7881,5.7954,5.7954,5.7881,5.7881,5.7881,5.7881,5.7881,5.7881,5.7881,5.7881,5.7881,5.7881,5.7881,5.7881,0.0,0.0,0.0,0.0,0.0,0.0,0.0,0.0,0.0,0.0,0.0,0.0,0.0,0.0,0.0,0.0,0.0,0.0,0.0,0.0,0.0,0.0,0.0,0.0,0.0,0.0,0.0,0.0,0.0,0.0,0.0,0.0,0.0,0.0,0.0,0.0,0.0,5.2577,5.2246,0.0,5.2063,5.1787,5.1572,5.1572,5.1293,5.1229,5.1229,5.1229,5.1229,5.1229,5.1229,5.1229,5.1229,5.1229,5.1229,5.1229,5.1229,5.1229,5.1229,5.1229,5.1229,5.1229,5.1229,5.1229,5.1229,5.1229,5.1229,5.1229,5.1229,5.1229,5.1229,5.1011,5.0917,5.0917,0.0,0.0,0.0,0.0,0.0,0.0,0.0,0.0,5.8171,5.8171,5.8561,5.8771,5.8631,5.8806,5.8944,5.8909,5.8944,5.8944,5.8978,5.8701,5.8561,5.8561,5.8171,0.0,0.0,5.8027,5.8027,5.7881,5.7881,5.7881,5.7881,5.7881,5.7881,5.7881,5.7881,5.7881,5.7881,5.7881,5.7881,5.7881,5.7881,5.7881,5.7881,0.0,0.0,0.0,0.0,0.0,0.0,0.0,0.0,0.0,0.0,0.0,0.0,0.0,0.0,0.0,0.0,0.0,0.0,0.0,0.0,0.0,0.0,0.0,0.0,0.0,0.0,0.0,0.0,0.0,0.0,0.0,0.0,0.0,0.0,0.0,5.3196,5.2306,5.1972,5.188,5.188,5.1602,5.1509,5.1509,5.1293,5.1229,5.1229,5.1229,5.1229,5.1229,5.1229,5.1229,5.1229,5.1229,5.1229,5.1229,5.1229,5.1229,5.1229,5.1229,5.1229,5.1229,5.1229,5.1229,5.1229,5.1229,5.1229,5.1229,5.1229,5.1229,5.1229,5.1011,5.0917,5.0728,0.0,0.0,0.0,0.0,0.0,0.0,0.0,5.8099,5.8171,5.8205,5.8561,5.8805,5.8805,5.8875,5.9012,5.9012,5.9012,5.8944,5.8805,5.8631,5.8419,5.8171,0.0,0.0,5.8205,5.8027,5.7881,5.7881,5.7881,5.7881,5.7881,5.7881,5.7881,5.7881,5.7881,5.7881,5.7881,5.7881,5.7881,5.7881,5.7881,5.7881,5.7881,0.0,0.0,0.0,0.0,0.0,0.0,0.0,0.0,0.0,0.0,0.0,0.0,0.0,0.0,0.0,0.0,0.0,0.0,0.0,0.0,0.0,0.0,0.0,0.0,0.0,0.0,0.0,0.0,0.0,0.0,0.0,0.0,0.0,5.3514,5.3371,5.2962,5.2063,5.1787,5.1572,5.1572,5.1293,5.1229,5.1229,5.1229,5.1229,5.1229,5.1229,5.1229,5.1229,5.1229,5.1229,5.1229,5.1229,5.1229,5.1229,5.1229,5.1229,5.1229,5.1229,5.1229,5.1229,5.1229,5.1229,5.1229,5.1229,5.1229,5.1229,5.1229,5.1229,5.1229,5.1229,5.1011,5.0728,0.0,0.0,0.0,0.0,0.0,0.0,0.0,5.8419,5.849,5.8631,5.8701,5.884,5.8944,5.8944,5.9012,5.9012,5.9012,5.8944,5.8805,5.8735,5.8561,5.8205,0.0,0.0,5.7954,5.8027,5.8027,5.7881,5.7881,5.7881,5.7881,5.7881,5.7881,5.7881,5.7881,5.7881,5.7881,5.7881,5.7881,5.7881,5.7881,5.7881,5.7881,0.0,0.0,0.0,0.0,0.0,0.0,0.0,0.0,0.0,0.0,0.0,0.0,0.0,0.0,0.0,0.0,0.0,0.0,0.0,0.0,0.0,0.0,0.0,0.0,0.0,0.0,0.0,0.0,0.0,0.0,0.0,0.0,5.3371,5.2726,5.2457,5.2246,5.2002,5.1602,5.1323,5.1323,5.1229,5.1229,5.1229,5.1229,5.1229,5.1229,5.1229,5.1229,5.1229,5.1229,5.1229,5.1229,5.1229,5.1229,5.1229,5.1229,5.1229,5.1229,5.1229,5.1229,5.1229,5.1229,5.1229,5.1229,5.1229,5.1229,5.1229,5.1229,5.1105,5.0917,5.0757,5.0375,4.996,0.0,0.0,0.0,0.0,0.0,0.0,0.0,5.8561,5.8631,5.8771,5.884,5.8909,5.9012,5.9012,5.9012,5.9012,5.9012,5.8944,5.8805,5.8701,5.8631,5.849,0.0,5.8419,5.8277,5.8277,5.8099,5.8027,5.7954,5.7881,5.7881,5.7881,5.7881,5.7881,5.7881,5.7881,5.7881,5.7881,5.7881,5.7881,5.7881,5.7881,5.7881,5.7881,5.7881,5.7881,5.7881,5.7881,5.7881,5.7881,0.0,0.0,0.0,0.0,0.0,0.0,0.0,0.0,0.0,0.0,0.0,0.0,0.0,0.0,0.0,0.0,0.0,0.0,0.0,0.0,0.0,0.0,0.0,0.0,5.3632,5.2815,5.2397,5.2155,5.191,5.1695,5.1509,5.1323,5.1229,5.1229,5.1229,5.1229,5.1229,5.1229,5.1229,5.1229,5.1229,5.1229,5.1229,5.1229,5.1229,5.1229,5.1229,5.1229,5.1229,5.1229,5.1229,5.1229,5.1229,0.0,5.1229,5.1229,5.1229,5.1229,5.1229,0.0,0.0,0.0,0.0,0.0,5.0183,4.9892,0.0,0.0,0.0,0.0,0.0,0.0,0.0,5.8701,5.884,5.884,5.8978,5.9012,5.9012,5.9012,5.9012,5.9012,5.9012,5.8944,5.884,5.8631,5.8631,5.8771,5.8631,5.8561,5.8701,5.8419,5.8205,5.8205,5.7954,5.7881,5.7881,5.7881,5.7881,5.7881,5.7881,5.7881,5.7881,5.7881,5.7881,5.7881,5.7881,5.7881,5.7881,5.7881,5.7881,5.7881,5.7881,5.7881,5.7881,5.7808,0.0,0.0,0.0,0.0,0.0,0.0,0.0,0.0,0.0,0.0,0.0,0.0,0.0,0.0,0.0,0.0,0.0,0.0,0.0,0.0,0.0,0.0,0.0,0.0,5.2726,5.2155,5.2215,5.2155,5.188,5.1323,5.1416,5.1479,5.1229,5.1229,5.1229,5.1229,5.1229,5.1229,5.1229,0.0,0.0,0.0,0.0,5.1229,5.1229,5.1229,5.1229,5.1229,5.1229,5.1229,5.1229,5.1229,5.1229,5.1229,5.1229,5.1229,5.1229,5.1229,5.1135,5.1135,5.0822,5.0728,5.0632,5.0057,4.9892,4.9766,0.0,0.0,0.0,0.0,0.0,0.0,0.0,5.8944,5.8944,5.8944,5.9012,5.9012,5.9012,5.9012,5.9012,5.9012,5.9012,5.9012,5.8944,5.884,5.8771,5.8805,5.8771,5.8631,5.8348,5.8277,5.8099,5.7954,5.7881,5.7881,5.7881,5.7881,5.7881,5.7881,5.7881,5.7881,5.7881,5.7881,5.7881,5.7881,5.7881,5.7881,5.7881,5.7881,5.7881,5.7881,5.7881,5.7881,5.7808,5.7105,5.7331,5.7808,5.7072,5.7331,0.0,0.0,0.0,0.0,0.0,0.0,0.0,0.0,0.0,0.0,0.0,0.0,0.0,0.0,0.0,0.0,0.0,0.0,0.0,5.3891,5.317,5.2458,5.2063,5.2155,5.2124,5.191,5.1509,5.1229,5.1229,5.1229,5.1229,5.1229,5.1229,5.1229,5.1229,5.1229,0.0,5.1229,5.1229,5.1229,5.1229,5.1229,5.1229,5.1229,0.0,0.0,5.1229,5.1229,5.1229,5.1229,5.1229,5.1229,5.1229,5.1229,5.0947,5.0596,5.0596,5.0375,5.0086,4.8852,4.8424,4.8223,0.0,0.0,0.0,0.0,0.0,0.0,0.0,5.9012,5.9012,5.9012,5.9012,5.9012,5.9012,5.9012,5.9012,5.9012,5.9012,5.9012,5.9012,5.8978,5.8909,5.8909,5.8909,5.8771,5.849,5.8419,5.8243,5.8027,5.7954,5.7881,5.7881,5.7881,5.7881,5.7881,5.7881,5.7881,5.7881,5.7881,5.7881,5.7881,5.7881,5.7881,5.7881,5.7881,5.7881,5.7881,5.7881,5.7881,5.7808,5.7406,5.7256,5.7181,5.6768,5.6614,5.6503,0.0,0.0,0.0,0.0,0.0,0.0,0.0,0.0,0.0,0.0,0.0,0.0,0.0,0.0,5.4369,0.0,0.0,5.2874,5.3139,5.2577,5.2155,5.2155,5.2033,5.1849,5.1602,5.1509,5.1323,5.1229,5.1229,5.1229,5.1229,5.1229,5.1229,5.1229,5.1229,5.1229,5.1229,5.1229,5.1229,5.1229,5.1229,5.1229,5.1229,5.1229,5.1229,5.1229,5.1229,5.1229,5.1229,5.1229,5.1229,5.1229,5.1011,5.0852,5.0501,5.0405,5.0183,4.9766,4.9149,4.8524,4.792,0.0,0.0,0.0,0.0,0.0,0.0,0.0,5.9012,5.9012,5.9012,5.9012,5.9012,5.9012,5.9012,5.9012,5.9012,5.9012,5.9012,5.9012,5.9012,5.9012,5.9012,5.9012,5.8978,5.8771,5.8631,5.8419,5.8277,5.8027,5.7881,5.7954,5.7881,5.7881,5.7881,5.7881,5.7881,5.7881,5.7881,5.7881,5.7881,5.7881,5.7881,5.7881,5.7881,5.7881,5.7881,5.7881,5.7881,5.7881,5.748,5.6996,5.6536,5.6381,5.5876,5.5312,5.5312,5.5231,0.0,0.0,0.0,0.0,0.0,0.0,0.0,0.0,0.0,5.4453,5.4453,5.3773,5.3196,5.3284,5.2457,5.1849,5.2215,5.1941,5.1849,5.2215,5.1972,5.1602,5.1229,5.1386,5.1386,5.1229,5.1229,5.1229,5.1229,5.1229,5.1229,5.1229,5.1229,5.1229,5.1229,5.1229,5.1229,5.1229,5.1229,5.1229,5.1229,5.1229,5.1229,5.1229,5.1229,5.1229,5.1229,5.1229,5.1229,5.1229,5.0822,5.0662,5.0501,5.0183,4.9892,4.9669,4.9248,4.8324,4.728,0.0,0.0,0.0,0.0,0.0,0.0,0.0,0.0,5.9012,5.9012,5.9012,5.9012,5.9012,5.9012,5.9012,5.9012,5.9012,5.9012,5.9012,5.9012,5.9012,5.9012,5.9012,5.8978,5.8771,5.8631,5.849,5.849,5.8099,5.7954,5.8171,5.7954,5.7881,5.7881,5.7881,5.7881,5.7881,5.7881,5.7881,5.7881,5.7881,5.7881,5.7881,5.7881,5.7881,5.7881,5.7881,5.7881,5.7628,5.6113,5.6034,5.6459,5.5716,5.5393,5.5312,5.5312,5.4736,5.4147,5.4147,5.4147,5.3976,5.3201,5.2935,5.2935,0.0,0.0,5.2846,5.2637,5.2667,5.2608,5.2246,5.2215,5.2215,5.2306,5.2306,5.2215,5.2063,5.2002,5.1787,5.1229,5.1229,5.1229,5.1229,5.1229,5.1229,5.1229,5.1229,5.1229,5.1229,5.1229,5.1229,5.1229,5.1229,5.1229,5.1229,5.1229,5.1229,5.1229,5.1229,5.1229,5.1229,5.1229,5.1229,5.1229,5.1229,5.1229,5.1135,5.0662,5.0501,5.0501,4.999,4.9766,4.9473,4.7485,4.6032,4.4886,0.0,0.0,0.0,0.0,0.0,0.0,0.0,0.0,0.0,5.9012,5.9012,5.9012,5.9012,5.9012,5.9012,5.9012,5.9012,5.9012,5.9012,5.9012,5.9012,5.9012,5.9012,5.8978,5.8771,5.8631,5.849,5.849,5.8099,5.8027,5.8205,5.7954,5.7881,5.7881,5.7881,5.7881,5.7881,5.7881,5.7881,5.7881,5.7881,5.7881,5.7881,5.7881,5.7881,5.7881,5.7881,5.7881,0.0,5.7072,5.6348,5.5796,5.5393,5.4569,5.375,5.375,5.3521,5.3258,5.3258,5.3258,5.3201,0.0,5.2698,5.2608,5.2518,5.2337,5.2276,5.2155,5.2063,5.1972,5.1787,5.188,5.1849,0.0,5.1757,5.1665,5.1787,5.1787,5.1695,5.1509,5.1386,5.1416,5.1229,5.1229,5.1229,5.1229,5.1229,5.1229,5.1229,5.1229,5.1229,5.1229,5.1229,5.1229,5.1229,5.1229,5.1229,5.1229,5.1229,5.1229,5.1229,5.1229,5.1229,5.1229,5.1229,5.1229,5.1135,5.0662,5.0501,5.0501,4.9892,4.8951,4.7689,4.7383,4.6556,4.5502,0.0,0.0,0.0,0.0,0.0,0.0,0.0,0.0,0.0,0.0,5.9012,5.9012,5.9012,5.9012,5.9012,5.9012,5.9012,5.9012,5.9012,5.9012,5.9012,5.9012,5.9012,5.8944,5.884,5.8701,5.8631,5.8631,5.8171,5.8099,5.8277,5.8027,5.7881,5.7881,5.7881,5.7881,5.7881,5.7881,5.7881,5.7881,5.7881,5.7881,5.7881,5.7881,5.7881,5.7881,5.7881,5.7735,5.748,5.7256,5.6192,5.4952,5.4952,5.3922,5.2698,5.2935,5.2877,5.2698,5.2698,0.0,0.0,5.2698,5.2698,5.2608,5.2397,5.2337,5.2155,5.2063,5.1972,5.1849,5.1695,5.1757,5.1757,5.1757,5.1665,5.1572,5.1695,5.1695,5.1695,5.1509,5.1479,5.1386,5.1229,5.1229,5.1229,5.1229,5.1229,5.1229,5.1229,5.1229,5.1229,5.1229,5.1229,5.1229,5.1229,5.1229,5.1229,5.1229,5.1229,5.1229,5.1229,5.1229,5.1229,5.1229,5.1229,5.1135,5.1011,5.0662,5.0501,5.0309,4.9892,4.8724,4.728,4.7819,4.6867,4.5289,0.0,0.0,0.0,0.0,0.0,0.0,0.0,0.0,0.0,0.0,0.0,0.0,0.0,5.9012,5.9012,5.9012,5.9012,5.9012,5.9012,5.9012,5.9012,5.9012,5.9012,5.9012,5.9012,5.884,5.884,5.9012,5.8456,5.8243,5.849,5.8099,5.7881,5.7881,5.7881,5.7881,5.7881,5.7881,5.7881,5.7881,5.7881,5.7881,5.7881,5.7881,5.7881,5.7881,5.7881,5.7331,5.6536,5.5636,5.4819,5.4062,5.4062,5.3434,5.2877,5.375,5.3346,5.2698,0.0,0.0,5.2698,5.2698,5.2698,5.2698,5.2698,5.2698,5.2608,5.2306,5.2518,5.2549,5.2094,5.2155,5.2306,5.2306,5.2306,5.2215,5.2002,5.2002,5.1787,5.1323,5.1229,5.1229,0.0,5.1229,5.1229,5.1229,5.1229,5.1229,5.1229,5.1229,5.1229,5.1229,5.1229,5.1229,5.1229,5.1229,5.1229,5.1229,5.1229,5.1229,5.1229,5.1229,5.1229,5.1229,5.1229,5.1011,5.0822,5.0567,5.0405,5.0086,4.9766,4.9669,4.9473,4.8424,4.5926,4.3098,0.0,0.0,0.0,0.0,0.0,0.0,0.0,0.0,0.0,0.0,0.0,0.0,0.0,0.0,0.0,0.0,5.9012,5.9012,5.9012,5.9012,5.9012,5.9012,5.9012,5.9012,5.9012,5.884,5.884,5.884,5.8561,5.8348,5.8277,5.8171,5.8027,5.7881,5.7881,5.7881,5.7881,5.7881,5.7881,5.7881,5.7881,5.7881,5.7881,5.7881,5.7881,5.7881,0.0,5.7735,5.7406,5.7147,5.6034,5.4902,5.4902,5.3836,5.2788,5.3024,5.2966,5.2698,5.2698,0.0,5.2698,5.2698,5.2698,5.2698,5.2698,5.2608,5.2397,5.2306,5.2397,5.2337,5.2094,5.2094,5.2063,5.1849,5.1665,5.1572,5.1509,5.1602,5.1695,5.1479,5.1509,0.0,0.0,0.0,0.0,5.1229,5.1229,5.1229,5.1229,5.1229,5.1229,5.1229,5.1229,5.1229,5.1229,5.1229,5.1229,5.1229,5.1229,5.1229,5.1229,5.1229,5.1229,5.1229,5.1229,5.1105,5.1011,5.0692,5.0501,5.0309,4.9892,4.9248,4.8424,4.728,4.5714,4.4152,0.0,0.0,0.0,0.0,0.0,0.0,0.0,0.0,0.0,0.0,0.0,0.0,0.0,0.0,0.0,0.0,0.0,5.9012,5.9012,5.9012,5.9012,5.9012,5.9012,5.9012,5.9012,5.8909,5.884,5.8805,5.8631,5.849,5.8348,5.8243,5.8099,5.8027,5.7954,5.7881,5.7881,5.7881,5.7881,5.7881,5.7881,5.7881,5.7881,5.7881,5.7881,0.0,5.7881,5.7881,5.7881,5.7554,5.627,5.4819,5.4819,5.3836,5.2698,5.2698,5.2698,5.2698,5.2698,5.2698,5.2698,5.2698,5.2698,5.2698,5.2698,5.2608,5.2397,5.2397,5.2397,5.2427,5.2246,5.2155,5.2063,5.2063,5.1757,5.1572,5.1509,5.1602,5.1695,5.1479,5.1509,5.1509,0.0,0.0,0.0,5.1229,5.1229,5.1229,5.1229,5.1229,5.1229,5.1229,5.1229,5.1229,5.1229,5.1229,5.1229,5.1229,5.1229,5.1229,5.1229,5.1229,5.1229,5.1229,5.1229,5.1105,5.1011,5.0662,5.0405,5.0309,4.9892,4.9248,4.8524,4.7791,4.6556,4.5208,0.0,0.0,0.0,0.0,0.0,0.0,0.0,0.0,0.0,0.0,0.0,0.0,0.0,0.0,0.0,0.0,0.0,0.0,5.9012,5.9012,5.9012,5.9012,5.9012,5.9012,5.9012,5.9012,5.8978,5.8805,5.8805,5.8701,5.849,5.8277,5.8171,5.8205,5.7954,5.7881,5.7881,5.7881,5.7881,5.7881,5.7881,5.7881,5.7881,5.7881,5.7881,5.7881,5.7881,5.7881,5.7808,5.6954,0.0,0.0,0.0,0.0,0.0,0.0,0.0,5.2698,5.2698,5.2698,5.2698,5.2698,5.2698,5.2698,5.2698,5.2698,5.2698,5.2698,5.2698,5.2698,0.0,0.0,5.2397,5.2608,5.2427,5.2215,5.2002,5.2002,5.1787,0.0,0.0,0.0,0.0,0.0,0.0,5.1229,0.0,5.1229,5.1229,5.1229,5.1229,5.1229,5.1229,5.1229,5.1229,5.1229,5.1229,5.1229,5.1229,5.1229,5.1229,5.1229,5.1229,5.1229,5.1229,5.1011,5.0822,5.0567,5.0405,5.0086,4.9766,4.9669,4.9669,4.9669,4.8223,4.6005,0.0,0.0,0.0,0.0,0.0,0.0,0.0,0.0,0.0,0.0,0.0,0.0,0.0,0.0,0.0,0.0,0.0,0.0,5.9012,5.9012,5.9012,5.9012,5.9012,5.9012,5.9012,5.8909,5.884,5.8805,5.8631,5.849,5.8277,5.8171,5.8099,5.7954,5.7881,5.7881,5.7881,5.7881,5.7881,5.7881,5.7881,5.7881,5.7881,5.7881,5.7881,5.7881,5.7881,5.7881,0.0,0.0,0.0,0.0,0.0,0.0,5.2698,0.0,0.0,5.2698,5.2698,5.2698,5.2698,5.2698,5.2698,5.2698,5.2698,5.2698,5.2698,5.2698,5.2698,5.2698,0.0,0.0,0.0,5.2185,5.1787,0.0,5.1416,5.1416,0.0,5.1229,0.0,5.1229,5.1229,5.1229,0.0,0.0,5.1229,5.1229,5.1229,5.1229,5.1229,5.1229,5.1229,5.1229,5.1229,5.1229,5.1229,5.1229,5.1229,5.1229,5.1229,5.1229,5.1229,5.1229,5.1229,5.1135,5.1011,5.0692,5.0501,5.0405,4.9892,4.9669,4.9571,4.8753,4.7485,4.611,0.0,0.0,0.0,0.0,0.0,0.0,0.0,0.0,0.0,0.0,0.0,0.0,0.0,0.0,0.0,0.0,0.0,0.0,0.0,5.9012,5.9012,5.9012,5.9012,5.9012,5.9012,5.8978,5.884,5.8805,5.8701,5.8561,5.8348,5.8277,5.8099,5.8027,5.7954,5.7881,5.7881,5.7881,5.7881,0.0,0.0,5.7881,5.7881,5.7881,5.7881,5.7881,5.7881,0.0,0.0,0.0,0.0,5.4485,5.3113,5.2698,5.2698,5.2698,0.0,5.2698,5.2698,5.2698,5.2698,5.2698,5.2698,5.2698,5.2698,5.2698,5.2698,5.2698,5.2608,0.0,5.2698,0.0,0.0,0.0,0.0,0.0,5.1416,5.1416,5.1416,0.0,5.1416,0.0,5.1416,5.1416,5.1323,0.0,5.1229,5.1229,5.1229,5.1229,5.1229,5.1229,5.1229,5.1229,5.1229,5.1229,5.1229,5.1229,5.1229,5.1229,5.1229,5.1229,5.1229,5.1229,0.0,5.1229,5.1135,5.0662,5.0501,5.0501,4.9892,4.9669,4.9571,4.8951,4.7689,4.6215,0.0,0.0,0.0,0.0,0.0,0.0,0.0,0.0,0.0,0.0,0.0,0.0,0.0,0.0,0.0,0.0,0.0,0.0,0.0,0.0,0.0,5.9012,5.9012,5.9012,5.9012,5.9012,5.8909,5.8805,5.8771,5.8631,5.849,5.8277,5.8205,5.8171,5.7954,5.7881,5.7881,5.7881,5.7881,5.7881,5.7881,5.7881,5.7881,0.0,5.7881,5.7881,5.7881,0.0,0.0,0.0,5.5636,5.4147,5.3346,5.3024,5.3024,5.2877,5.2877,5.2877,5.2698,5.2698,5.2698,5.2698,5.2698,5.2698,5.2698,5.2788,5.2877,5.2877,0.0,5.2577,5.2877,5.2215,5.1849,5.2215,0.0,5.1665,5.1572,5.1572,5.1602,5.1602,5.1602,5.1602,5.1572,5.1572,5.1479,5.1229,5.1229,5.1229,5.1229,5.1229,5.1229,5.1229,5.1229,5.1229,5.1229,5.1229,5.1229,5.1229,5.1229,5.1229,5.1229,5.1229,5.1229,5.1229,5.1229,0.0,5.1135,5.0757,5.0501,5.0501,4.999,4.9766,4.9669,4.9669,4.8324,4.6528,0.0,0.0,0.0,0.0,0.0,0.0,0.0,0.0,0.0,0.0,5.9012,5.9012,0.0,0.0,0.0,0.0,0.0,0.0,0.0,0.0,0.0,5.9012,5.9012,5.9012,5.9012,5.8909,5.884,5.8805,5.8631,5.849,5.8243,5.8205,5.8099,5.7954,5.7881,5.7881,5.7881,5.7881,5.7881,5.7881,5.7881,5.7881,5.7881,5.7881,0.0,0.0,0.0,0.0,0.0,0.0,5.6381,5.6034,5.5149,5.4819,5.4736,5.4008,5.375,5.3577,5.2877,5.2698,5.2698,5.2698,5.2698,5.2698,5.2698,5.3258,0.0,0.0,5.375,5.375,5.375,5.2905,5.2215,5.2306,0.0,0.0,0.0,0.0,5.1787,0.0,0.0,0.0,0.0,0.0,0.0,0.0,0.0,5.1229,5.1229,5.1229,5.1229,5.1229,5.1229,5.1229,5.1229,5.1229,5.1229,5.1229,5.1229,5.1229,5.1229,5.1229,5.1229,5.1229,5.1229,0.0,5.1229,5.0917,5.0662,5.0501,5.0183,4.9892,4.9669,4.9669,4.8852,4.7587,0.0,0.0,0.0,0.0,0.0,0.0,0.0,5.9182,5.9012,5.9012,5.9012,5.9012,5.9012,5.9012,5.9012,0.0,0.0,0.0,0.0,0.0,0.0,0.0,0.0,0.0,5.9012,5.8978,5.8909,5.8909,0.0,5.849,5.8348,5.8099,5.7954,5.7881,5.7881,5.7881,5.7881,5.7881,5.7881,5.7881,5.7881,5.7881,5.7881,0.0,0.0,0.0,0.0,0.0,0.0,0.0,5.7256,5.7072,5.5716,5.5312,5.5231,5.4819,5.4401,5.3891,5.3521,5.3024,5.2698,5.2698,5.2698,5.2788,5.3258,0.0,0.0,0.0,5.4537,5.4537,5.4653,5.3632,0.0,0.0,0.0,0.0,0.0,0.0,0.0,0.0,0.0,0.0,0.0,0.0,0.0,0.0,0.0,5.1323,5.1229,5.1229,5.1229,5.1229,5.1229,5.1229,5.1229,5.1229,5.1229,5.1229,5.1229,5.1229,5.1229,5.1229,5.1229,5.1229,5.1229,0.0,5.1229,5.0917,5.0632,5.0501,5.0183,4.999,4.9669,4.9669,4.8951,4.792,0.0,0.0,0.0,0.0,0.0,0.0,0.0,5.9582,5.9149,5.9012,5.9012,5.9012,5.9012,5.9012,5.9012,0.0,0.0,0.0,0.0,0.0,0.0,0.0,0.0,0.0,0.0,0.0,0.0,0.0,5.8736,0.0,0.0,0.0,0.0,0.0,5.7954,5.7954,5.7881,5.7881,5.7881,0.0,0.0,5.7881,0.0,0.0,0.0,0.0,0.0,0.0,0.0,0.0,5.7881,5.7628,5.627,5.5876,5.5796,5.5636,5.5035,5.4485,5.4317,5.375,5.329,5.329,5.3113,5.3201,5.4062,5.4317,0.0,5.5393,5.5442,5.5361,5.5555,5.4537,5.3773,0.0,5.3051,0.0,0.0,0.0,0.0,0.0,0.0,0.0,0.0,0.0,0.0,0.0,0.0,0.0,5.1229,5.1229,5.1229,5.1229,5.1229,5.1229,5.1229,5.1229,5.1229,5.1229,5.1229,5.1229,5.1229,5.1229,5.1229,5.1229,5.1229,0.0,0.0,5.1011,5.0757,5.0501,5.0279,4.999,4.9669,4.9669,4.9149,4.8324,0.0,0.0,0.0,0.0,0.0,0.0,0.0,5.9937,5.9714,5.9081,5.9012,5.9012,5.9012,5.9012,5.9012,0.0,0.0,0.0,0.0,0.0,0.0,0.0,0.0,0.0,0.0,0.0,0.0,0.0,0.0,0.0,0.0,0.0,0.0,0.0,0.0,0.0,5.7881,5.7881,0.0,0.0,0.0,0.0,0.0,0.0,0.0,0.0,0.0,0.0,0.0,0.0,0.0,5.7881,5.7735,5.7628,5.748,5.6691,0.0,0.0,5.5393,5.5149,5.5067,5.5067,5.4485,5.4062,5.4985,0.0,5.5474,5.6303,5.6459,5.6459,5.6459,5.5716,5.5117,0.0,0.0,5.3719,0.0,0.0,0.0,0.0,0.0,0.0,0.0,0.0,0.0,0.0,0.0,0.0,5.1229,5.1229,5.1229,5.1229,5.1229,5.1229,5.1229,5.1229,5.1229,5.1229,5.1229,5.1229,5.1229,5.1229,5.1229,5.1229,5.1229,0.0,0.0,5.1229,5.0852,5.0501,5.0501,5.0183,4.9669,4.9669,4.9669,4.9375,0.0,0.0,0.0,0.0,0.0,0.0,6.1185,6.0831,6.0344,5.9679,5.9582,5.945,5.9012,5.9012,5.9012,5.9012,0.0,0.0,0.0,0.0,0.0,0.0,0.0,0.0,0.0,0.0,0.0,5.8909,5.8909,0.0,0.0,0.0,0.0,0.0,0.0,0.0,0.0,0.0,0.0,0.0,0.0,0.0,0.0,0.0,0.0,0.0,0.0,0.0,0.0,0.0,0.0,0.0,5.7881,5.7881,0.0,0.0,5.6996,5.6536,5.6192,5.5716,5.5312,5.5312,5.5067,5.4985,5.5876,0.0,5.6348,5.7181,5.7406,5.7406,5.7406,5.6691,5.6034,5.6034,5.4902,0.0,5.4537,0.0,0.0,0.0,0.0,0.0,0.0,0.0,0.0,0.0,0.0,0.0,5.1479,5.1323,5.1229,5.1229,5.1229,5.1229,5.1229,5.1229,5.1229,5.1229,5.1229,5.1229,5.1229,5.1229,5.1229,5.1229,5.1229,0.0,0.0,5.1229,5.0947,5.0501,5.0501,5.0183,4.9669,4.9669,4.9669,4.9669,0.0,0.0,0.0,0.0,0.0,6.2112,6.1951,6.1528,6.0974,6.0344,6.0129,5.9873,5.9613,5.9383,5.9383,5.9547,5.9383,0.0,0.0,0.0,0.0,0.0,0.0,0.0,0.0,0.0,5.9012,5.9012,5.8909,5.884,0.0,0.0,0.0,0.0,0.0,0.0,0.0,0.0,0.0,0.0,0.0,0.0,0.0,0.0,0.0,0.0,0.0,0.0,0.0,0.0,0.0,0.0,0.0,0.0,0.0,0.0,5.748,5.6996,5.6996,5.6536,5.6113,5.6113,5.5876,5.5876,0.0,5.6768,5.6844,5.7735,5.7881,5.7881,5.7881,5.7406,5.6996,5.6996,5.5716,5.4952,5.5636,0.0,0.0,0.0,0.0,0.0,0.0,0.0,0.0,0.0,0.0,0.0,0.0,5.1416,5.1229,5.1229,5.1229,5.1229,5.1229,5.1229,5.1229,5.1229,5.1229,5.1229,5.1229,5.1229,5.1229,5.1229,5.1229,0.0,0.0,5.1229,5.0947,5.0567,5.0501,5.0183,4.9766,4.9766,4.9669,4.9669,0.0,0.0,0.0,0.0,0.0,0.0,6.2005,6.1897,6.164,6.0974,6.0406,6.0219,6.0855,6.0344,6.0219,6.0855,6.0344,0.0,0.0,0.0,0.0,0.0,0.0,0.0,0.0,0.0,5.9012,5.9012,5.9012,5.9012,5.9012,5.9012,5.8875,0.0,0.0,0.0,0.0,0.0,0.0,0.0,0.0,0.0,0.0,0.0,0.0,0.0,0.0,0.0,0.0,0.0,0.0,0.0,0.0,0.0,0.0,0.0,5.7881,5.7881,5.7881,5.7881,5.7881,5.7881,5.7256,5.6768,5.7662,5.7256,5.6844,5.7735,5.7881,5.7881,5.7881,5.7881,5.7881,5.7881,5.7181,5.6614,5.6614,0.0,0.0,0.0,0.0,0.0,0.0,0.0,0.0,0.0,0.0,0.0,0.0,5.1509,5.1229,5.1229,5.1229,5.1229,5.1229,5.1229,5.1229,5.1229,5.1229,5.1229,5.1229,5.1229,5.1229,0.0,0.0,0.0,0.0,5.1229,5.1011,5.0822,5.0567,5.0309,5.0086,4.9766,4.9669,4.9669,0.0,0.0,0.0,0.0,0.0,0.0,0.0,6.2515,6.2308,6.164,6.1415,6.1185,6.0915,6.0736,6.0676,6.0879,6.0736,0.0,0.0,0.0,0.0,0.0,0.0,0.0,0.0,0.0,5.9012,5.9012,5.9012,5.9012,5.9012,5.9012,5.8944,5.8944,5.8771,0.0,0.0,0.0,0.0,0.0,0.0,0.0,0.0,0.0,0.0,0.0,0.0,0.0,0.0,0.0,0.0,0.0,0.0,0.0,0.0,5.7881,5.7881,0.0,5.7881,5.7881,5.7881,5.7881,5.7735,5.7554,5.7808,5.7662,5.7554,5.7808,5.7881,5.7881,5.7881,5.7881,5.7881,5.7881,5.7181,5.6768,0.0,0.0,0.0,0.0,0.0,0.0,0.0,0.0,0.0,0.0,0.0,0.0,0.0,5.1695,5.1386,5.1229,5.1229,5.1229,5.1229,5.1229,5.1229,5.1229,5.1229,5.1229,5.1229,5.1229,5.1229,0.0,0.0,0.0,0.0,5.1229,5.1011,5.0793,5.0728,5.0471,5.0086,4.999,4.9892,4.9669,0.0,0.0,0.0,0.0,0.0,0.0,0.0,6.2805,6.2654,6.2308,6.2059,6.1842,6.1604,6.1379,6.1379,6.1604,6.1604,0.0,0.0,0.0,0.0,0.0,0.0,0.0,5.9709,5.9482,5.9516,5.9709,5.9516,5.9482,5.9709,5.9482,5.9383,5.9383,5.8978,5.8701,0.0,0.0,0.0,0.0,0.0,0.0,5.7881,0.0,0.0,0.0,0.0,0.0,0.0,0.0,0.0,0.0,0.0,0.0,0.0,0.0,5.7881,5.7881,0.0,5.7881,5.7881,5.7881,5.7881,0.0,5.7881,5.7881,5.7881,5.7881,5.7881,5.7881,5.7881,5.7881,5.7881,5.7881,5.7406,5.7256,0.0,0.0,0.0,0.0,0.0,0.0,0.0,0.0,0.0,0.0,0.0,0.0,0.0,5.1787,5.1479,5.1229,5.1229,5.1229,5.1229,5.1229,5.1229,5.1229,5.1229,5.1229,5.1229,5.1229,5.1229,0.0,0.0,0.0,0.0,5.1229,5.1105,5.0917,5.0822,5.0537,5.0183,5.0183,4.9892,4.9669,0.0,0.0,0.0,0.0,0.0,0.0,0.0,6.2805,6.2805,6.2805,6.2308,6.2202,6.2755,6.2308,6.2166,6.2755,0.0,0.0,0.0,0.0,0.0,0.0,0.0,0.0,6.0879,6.0344,6.0344,6.0879,6.0344,6.0344,6.0915,6.0282,6.0001,5.9972,5.9149,5.8805,0.0,0.0,0.0,0.0,0.0,0.0,0.0,0.0,0.0,0.0,0.0,0.0,0.0,0.0,0.0,0.0,0.0,0.0,0.0,0.0,0.0,0.0,0.0,5.7881,5.7881,5.7881,0.0,5.7881,5.7881,5.7881,0.0,5.7881,5.7881,5.7881,5.7881,5.7881,5.7881,5.7881,5.7881,5.7881,0.0,0.0,0.0,0.0,0.0,0.0,0.0,0.0,0.0,0.0,0.0,0.0,0.0,5.1787,5.1479,5.1229,5.1229,5.1229,5.1229,5.1229,5.1229,5.1229,5.1229,5.1229,5.1229,5.1229,5.1229,0.0,0.0,0.0,0.0,5.1229,5.1229,5.1229,5.0917,5.0632,5.0501,5.0183,4.999,4.9669,0.0,0.0,0.0,0.0,0.0,0.0,0.0,0.0,0.0,0.0,6.2705,6.2654,6.2755,6.2654,6.2654,0.0,0.0,0.0,0.0,0.0,0.0,0.0,0.0,0.0,6.0879,6.0796,6.0796,6.0879,6.0796,6.0796,6.0915,6.0282,6.0001,5.9937,5.9284,5.8909,0.0,0.0,0.0,0.0,0.0,0.0,0.0,0.0,0.0,0.0,5.7881,5.7881,0.0,0.0,0.0,0.0,0.0,0.0,0.0,0.0,5.7881,5.7881,5.7881,0.0,5.7881,5.7881,5.7881,5.7881,0.0,5.7881,0.0,0.0,0.0,0.0,0.0,5.7881,5.7881,5.7881,5.7881,5.7881,5.7881,0.0,0.0,0.0,0.0,0.0,0.0,0.0,0.0,0.0,0.0,0.0,0.0,5.191,5.1695,5.1229,5.1229,5.1229,5.1229,5.1229,5.1229,5.1229,5.1229,5.1229,5.1229,5.1229,5.1229,0.0,0.0,0.0,5.1229,5.1229,5.1229,5.1229,5.1105,5.0852,5.0501,5.0405,5.0086,4.9669,0.0,0.0,0.0,0.0,0.0,0.0,0.0,0.0,0.0,0.0,0.0,6.2805,6.2805,6.2805,0.0,0.0,0.0,0.0,0.0,0.0,0.0,0.0,0.0,6.2166,6.1806,6.1492,6.1492,6.1806,6.1492,6.1492,6.1751,6.1185,6.0711,6.0406,5.9415,5.9081,0.0,0.0,0.0,0.0,5.8456,0.0,0.0,0.0,0.0,0.0,5.7881,5.7881,0.0,5.7881,5.7881,5.7881,0.0,0.0,0.0,0.0,5.7881,5.7881,5.7881,5.7881,5.7881,5.7881,5.7881,5.7881,5.7881,0.0,0.0,0.0,0.0,0.0,0.0,0.0,0.0,5.7881,5.7881,5.7881,0.0,0.0,0.0,0.0,0.0,0.0,0.0,0.0,0.0,0.0,0.0,0.0,0.0,5.2246,5.1787,5.1416,5.1229,5.1229,5.1229,5.1229,5.1229,5.1229,5.1229,5.1229,5.1229,5.1229,5.1229,0.0,0.0,0.0,5.1229,5.1229,5.1229,5.1229,5.1229,5.0947,5.0662,5.0501,5.0183,4.9892,0.0,0.0,0.0,0.0,0.0,0.0,0.0,0.0,0.0,0.0,0.0,0.0,0.0,0.0,0.0,0.0,0.0,0.0,0.0,0.0,0.0,0.0,6.2805,6.2805,6.2805,6.2308,6.2308,6.2805,6.2308,6.2308,6.2805,6.2166,6.1528,6.082,5.9774,5.9547,0.0,0.0,0.0,0.0,5.8909,0.0,0.0,0.0,0.0,0.0,0.0,0.0,0.0,5.7881,5.7881,5.7881,5.7881,0.0,0.0,0.0,0.0,0.0,5.7881,5.7881,5.7881,5.7881,5.7881,5.7881,5.7881,0.0,0.0,0.0,0.0,0.0,0.0,0.0,0.0,0.0,0.0,0.0,0.0,0.0,0.0,0.0,0.0,0.0,0.0,0.0,0.0,0.0,0.0,0.0,0.0,5.2815,5.2033,5.1849,5.1386,5.1229,5.1229,5.1229,5.1229,5.1229,5.1229,5.1229,5.1229,5.1229,5.1229,5.1229,0.0,0.0,5.1229,5.1229,5.1229,5.1229,5.1229,5.1011,5.0822,5.0567,5.0375,5.0086,0.0,0.0,0.0,0.0,0.0,0.0,0.0,0.0,0.0,0.0,0.0,0.0,0.0,0.0,0.0,0.0,0.0,0.0,0.0,0.0,0.0,6.2805,6.2805,6.2805,6.2805,6.2705,6.2705,6.2805,6.2705,6.2705,6.2805,6.2166,6.1528,6.0879,6.0736,6.0676,6.0736,6.0615,0.0,0.0,0.0,0.0,0.0,0.0,0.0,0.0,0.0,0.0,0.0,5.7881,5.7881,5.7881,5.7881,0.0,0.0,0.0,0.0,0.0,5.7881,5.7881,5.7881,5.7881,5.7881,5.7881,5.7881,0.0,0.0,0.0,0.0,0.0,0.0,0.0,0.0,0.0,0.0,0.0,0.0,0.0,0.0,0.0,0.0,0.0,0.0,0.0,0.0,0.0,0.0,0.0,0.0,5.3687,5.302,5.2754,5.1727,5.1229,5.1229,5.1229,5.1229,5.1229,5.1229,5.1229,5.1229,5.1229,5.1229,5.1229,0.0,5.1229,5.1229,5.1229,5.1229,5.1229,5.1229,5.1011,5.0822,5.0728,5.0442,5.0086,0.0,0.0,0.0,0.0,0.0,0.0,0.0,0.0,0.0,0.0,0.0,0.0,0.0,0.0,0.0,0.0,0.0,0.0,0.0,0.0,6.2805,6.2805,6.2805,6.2805,6.2805,6.2805,6.2805,6.2805,6.2805,6.2805,6.2805,6.2166,6.1732,6.1379,6.1091,6.1091,6.1415,6.1091,6.0736,6.0468,0.0,0.0,0.0,0.0,0.0,0.0,0.0,0.0,0.0,0.0,5.7954,5.7881,5.8027,0.0,0.0,0.0,0.0,0.0,5.7881,5.7881,5.7881,5.7881,5.7881,5.7881,5.7881,0.0,0.0,0.0,0.0,0.0,0.0,0.0,0.0,0.0,0.0,0.0,0.0,0.0,0.0,0.0,0.0,0.0,0.0,0.0,0.0,0.0,0.0,0.0,0.0,0.0,5.3687,5.3165,5.2336,5.1727,5.1199,5.1229,5.1229,5.1229,5.1229,5.1229,5.1229,5.1229,5.1229,5.1229,0.0,5.1229,5.1229,5.1229,5.1229,5.1229,5.1229,5.1105,5.1011,5.0822,5.0537,5.0086,0.0,0.0,0.0,0.0,0.0,0.0,0.0,0.0,0.0,0.0,0.0,0.0,0.0,0.0,0.0,0.0,0.0,0.0,0.0,6.2805,6.2805,6.2805,6.2805,6.2805,6.2805,6.2805,6.2805,6.2805,6.2805,6.2805,6.2805,6.236,6.2112,6.2059,6.1548,6.164,6.2059,6.1548,6.1265,6.1091,0.0,0.0,0.0,0.0,0.0,0.0,0.0,0.0,0.0,0.0,0.0,0.0,0.0,0.0,0.0,5.7881,5.7881,5.7881,5.7881,5.7881,5.7881,5.7881,0.0,5.7881,0.0,0.0,0.0,0.0,0.0,0.0,0.0,0.0,0.0,0.0,0.0,0.0,0.0,0.0,0.0,0.0,0.0,0.0,0.0,0.0,0.0,0.0,0.0,0.0,0.0,0.0,5.4537,5.3601,5.2931,5.2185,5.1229,5.1229,5.1229,5.1229,5.1229,5.1229,5.1229,5.1229,5.1229,5.1229,5.1229,5.1229,5.1229,5.1229,5.1229,5.1229,5.1229,5.1229,5.1229,5.0917,5.0537,5.0279,0.0,0.0,0.0,0.0,0.0,0.0,0.0,0.0,0.0,0.0,0.0,0.0,0.0,0.0,0.0,0.0,0.0,0.0,0.0,6.2805,6.2805,6.2805,6.2805,6.2805,6.2805,6.2805,6.2805,6.2805,6.2805,6.2805,6.2805,6.2755,6.2755,6.2755,6.2705,6.2705,6.2755,6.2705,6.236,6.1842,6.1787,0.0,0.0,0.0,0.0,0.0,0.0,0.0,0.0,0.0,0.0,0.0,0.0,0.0,5.8099,5.7954,5.7881,5.7881,5.7881,5.7881,5.7881,5.7881,0.0,0.0,5.7881,0.0,0.0,0.0,0.0,0.0,0.0,0.0,0.0,0.0,0.0,0.0,0.0,0.0,0.0,0.0,0.0,0.0,0.0,0.0,0.0,0.0,0.0,0.0,0.0,5.6547,5.541,5.4505,5.3253,5.2185,5.1229,5.1229,5.1229,5.1229,5.1229,5.1229,5.1229,5.1229,5.1229,5.1229,5.1229,5.1229,5.1229,5.1229,5.1229,5.1229,5.1229,5.1229,5.1229,5.0917,5.0822,5.0728,0.0,0.0,0.0,0.0,0.0,0.0,0.0,0.0,0.0,0.0,0.0,0.0,0.0,0.0,0.0,0.0,0.0,0.0,0.0,6.2805,6.2805,6.2805,6.2805,6.2805,6.2805,6.2805,6.2805,6.2805,6.2805,6.2805,6.2805,6.2805,6.2805,6.2805,6.2805,6.2805,6.2805,6.2805,6.2464,6.1897,6.1897,6.1528,0.0,0.0,0.0,0.0,0.0,0.0,0.0,0.0,5.8909,5.849,5.8561,5.849,5.8348,5.8133,5.8205,5.8277,5.8099,5.8099,0.0,0.0,0.0,0.0,0.0,0.0,0.0,0.0,0.0,0.0,0.0,0.0,0.0,0.0,0.0,0.0,0.0,0.0,0.0,0.0,0.0,0.0,0.0,0.0,0.0,0.0,0.0,0.0,0.0,5.7147,5.608,5.4672,5.3859,5.2785,5.1229,5.1229,5.1229,5.1229,5.1229,5.1229,5.1229,5.1229,5.1229,5.1229,5.1229,5.1229,5.1229,5.1229,5.1229,5.1229,5.1229,5.1229,5.1229,5.1105,5.0917,5.0793,0.0,0.0,0.0,0.0,0.0,0.0,0.0,0.0,0.0,0.0,0.0,0.0,0.0,0.0,0.0,0.0,0.0,0.0,6.2805,6.2805,6.2805,6.2805,6.2805,6.2805,6.2805,6.2805,6.2805,6.2805,6.2805,6.2805,6.2805,6.2805,6.2805,6.2805,6.2805,6.2805,6.2805,6.2805,6.2567,6.2166,6.2166,6.1915,0.0,0.0,0.0,0.0,0.0,0.0,0.0,0.0,5.9415,5.8944,5.884,5.8701,5.8561,5.8348,5.8419,5.849,5.8243,5.8171,5.8171,0.0,0.0,0.0,0.0,0.0,0.0,0.0,0.0,0.0,0.0,0.0,0.0,0.0,0.0,0.0,0.0,0.0,0.0,0.0,0.0,0.0,0.0,0.0,0.0,0.0,0.0,0.0,0.0,5.7514,5.6614,5.5084,5.4369,5.3196,5.1665,5.1665,5.1479,5.1229,5.1479,5.1479,5.1229,5.1229,5.1229,5.1229,5.1229,5.1229,5.1229,5.1229,5.1229,5.1229,5.1229,5.1229,5.1229,5.1229,5.1105,5.0917,0.0,0.0,0.0,0.0,0.0,0.0,0.0,0.0,0.0,0.0,0.0,0.0,0.0,0.0,0.0,0.0,0.0,0.0,6.2805,6.2805,6.2805,6.2805,6.2805,6.2805,6.2805,6.2805,6.2805,6.2805,6.2805,6.2805,6.2805,6.2805,6.2805,6.2805,6.2805,6.2805,6.2805,6.2805,6.2805,6.2805,6.2805,6.2805,6.2755,0.0,0.0,0.0,0.0,0.0,0.0,0.0,6.0001,5.9908,5.9081,5.8771,5.8771,5.8561,5.849,5.849,5.8277,5.8171,0.0,0.0,0.0,0.0,0.0,0.0,0.0,0.0,0.0,0.0,0.0,0.0,0.0,0.0,0.0,0.0,0.0,0.0,0.0,0.0,0.0,0.0,0.0,0.0,0.0,0.0,0.0,0.0,0.0,5.7514,5.6844,5.5889,5.4704,5.3545,5.2606,5.2606,5.2185,5.1229,5.2185,5.2094,5.1229,5.1229,5.1229,5.1229,5.1229,5.1229,5.1229,5.1229,5.1229,5.1229,5.1229,5.1229,5.1229,5.1229,5.1229,5.1135,0.0,0.0,0.0,0.0,0.0,0.0,0.0,0.0,0.0,0.0,0.0,0.0,0.0,0.0,0.0,0.0,0.0,0.0,6.2805,6.2805,6.2805,6.2805,6.2805,6.2805,6.2805,6.2805,6.2805,6.2805,6.2805,6.2805,6.2805,6.2805,6.2805,6.2805,6.2805,6.2805,6.2805,6.2805,6.2805,6.2805,6.2805,6.2805,6.2755,0.0,0.0,0.0,0.0,0.0,0.0,0.0,0.0,0.0,6.0371,5.9966,5.9582,5.9415,5.9114,5.8806,5.8631,0.0,0.0,0.0,0.0,0.0,0.0,0.0,0.0,0.0,0.0,0.0,0.0,0.0,0.0,0.0,0.0,0.0,0.0,0.0,0.0,0.0,0.0,0.0,0.0,0.0,0.0,0.0,0.0,0.0,0.0,5.7662,5.6996,5.5889,5.5442,5.4621,5.3545,5.3545,5.3459,5.3196,5.2785,5.2094,5.1229,5.1229,5.1229,5.1229,5.1229,5.1229,5.1229,5.1229,5.1229,5.1229,5.1229,5.1229,5.1229,5.1229,5.1229,5.1229,0.0,0.0,0.0,0.0,0.0,0.0,0.0,0.0,0.0,0.0,6.2805,6.2805,0.0,0.0,0.0,0.0,0.0,0.0,0.0,6.2805,6.2805,6.2805,6.2805,6.2805,6.2805,6.2805,6.2805,6.2805,6.2805,6.2805,6.2805,6.2805,6.2805,6.2805,6.2805,6.2805,6.2805,6.2805,6.2805,6.2805,6.2805,6.2805,6.2805,0.0,0.0,0.0,0.0,0.0,0.0,0.0,0.0,0.0,6.0938,6.0676,6.0282,5.9937,5.9613,5.9249,5.884,0.0,0.0,0.0,0.0,0.0,0.0,0.0,0.0,0.0,0.0,0.0,0.0,0.0,0.0,0.0,0.0,0.0,0.0,0.0,0.0,0.0,0.0,0.0,0.0,0.0,0.0,0.0,0.0,0.0,0.0,5.7735,5.7256,5.6503,5.5922,5.528,5.4569,5.4485,5.4317,5.3976,5.3805,5.302,5.1727,5.1386,5.1229,5.1229,5.1229,5.1229,5.1229,5.1229,5.1229,5.1229,5.1229,5.1229,5.1229,5.1229,5.1229,5.1229,0.0,0.0,0.0,0.0,0.0,0.0,0.0,0.0,0.0,0.0,6.2805,6.2805,0.0,0.0,0.0,0.0,0.0,0.0,0.0,6.2805,6.2805,6.2805,6.2805,6.2805,6.2805,6.2805,6.2805,6.2805,6.2805,6.2805,6.2805,6.2805,6.2805,6.2805,6.2805,6.2805,6.2805,6.2805,6.2805,6.2805,6.2805,6.2805,6.2805,6.2805,0.0,0.0,0.0,0.0,0.0,0.0,0.0,0.0,6.1265,6.1033,6.0915,6.0344,6.0065,5.9809,0.0,0.0,0.0,0.0,0.0,0.0,0.0,0.0,0.0,0.0,0.0,0.0,0.0,0.0,0.0,0.0,0.0,0.0,0.0,0.0,0.0,0.0,0.0,0.0,0.0,0.0,0.0,0.0,0.0,0.0,0.0,5.7735,5.7514,5.7364,5.627,5.5683,5.5474,5.5474,5.5067,5.4232,5.4985,5.4369,5.2695,5.1727,5.1293,5.1229,5.1229,5.1229,5.1229,5.1229,5.1229,5.1229,5.1229,5.1229,5.1229,5.1229,5.1229,5.1229,0.0,0.0,0.0,0.0,0.0,0.0,0.0,0.0,0.0,0.0,0.0,0.0,0.0,0.0,0.0,0.0,0.0,0.0,0.0,6.2805,6.2805,6.2805,6.2805,6.2805,6.2805,6.2805,6.2805,6.2805,6.2805,6.2805,6.2805,6.2805,6.2805,6.2805,6.2805,6.2805,6.2805,6.2805,6.2805,6.2805,6.2805,6.2805,6.2805,6.2805,6.2805,0.0,0.0,0.0,0.0,0.0,0.0,0.0,6.2464,6.2059,6.164,6.1528,6.0772,5.9937,0.0,0.0,0.0,0.0,0.0,0.0,0.0,0.0,0.0,0.0,0.0,0.0,0.0,0.0,0.0,0.0,0.0,0.0,0.0,0.0,0.0,0.0,0.0,0.0,0.0,0.0,0.0,0.0,0.0,0.0,5.7881,5.7881,5.7735,5.7514,5.7105,5.6877,5.6647,5.6492,5.6336,0.0,5.5555,5.4736,5.3632,5.2695,5.1911,5.1229,5.1229,5.1229,5.1229,5.1229,5.1229,5.1229,5.1229,5.1229,5.1229,5.1229,5.1229,5.1229,0.0,0.0,0.0,0.0,0.0,0.0,0.0,0.0,0.0,0.0,0.0,0.0,0.0,0.0,0.0,0.0,0.0,0.0,0.0,0.0,6.2805,6.2805,6.2805,6.2805,6.2805,6.2805,6.2805,6.2805,6.2805,6.2805,6.2805,6.2805,6.2805,6.2805,6.2805,6.2805,6.2805,6.2805,6.2805,6.2805,6.2805,6.2805,6.2805,6.2805,6.2805,6.2805,6.2805,0.0,0.0,0.0,0.0,0.0,0.0,0.0,6.2308,6.2005,6.1415,6.0772,0.0,0.0,0.0,0.0,0.0,0.0,0.0,0.0,0.0,0.0,0.0,0.0,0.0,0.0,0.0,0.0,0.0,0.0,0.0,0.0,0.0,0.0,0.0,0.0,0.0,0.0,0.0,0.0,0.0,5.7881,5.7881,5.7881,5.7808,5.7588,5.7439,5.7214,5.6987,5.6834,5.668,5.668,5.6179,5.5474,5.4569,5.2754,5.1635,5.1229,5.1229,5.1229,5.1229,5.1229,5.1229,5.1229,5.1229,5.1229,5.1229,5.1229,5.1229,5.1229,0.0,0.0,0.0,0.0,0.0,0.0,0.0,0.0,0.0,0.0,0.0,0.0,0.0,0.0,0.0,0.0,0.0,0.0,0.0,0.0,0.0,6.2805,6.2805,6.2805,6.2805,6.2805,6.2805,6.2805,6.2805,6.2805,6.2805,6.2805,6.2805,6.2805,6.2805,6.2805,6.2805,6.2805,6.2805,6.2805,6.2805,6.2805,6.2805,6.2805,6.2805,6.2805,6.2805,6.2805,6.2805,6.2805,0.0,0.0,0.0,0.0,6.2705,6.2202,6.1951,6.164,0.0,0.0,0.0,0.0,0.0,0.0,0.0,0.0,0.0,0.0,0.0,0.0,0.0,0.0,0.0,0.0,0.0,0.0,0.0,0.0,0.0,0.0,0.0,0.0,0.0,0.0,0.0,0.0,0.0,5.7881,5.7881,5.7881,5.7808,5.7662,5.7439,5.7214,5.7063,5.6834,5.668,5.668,5.6525,5.6067,5.5198,5.2754,5.1635,5.1665,5.1293,5.1293,5.1386,5.1323,5.1229,5.1229,5.1229,5.1229,5.1229,5.1229,5.1229,5.1229,0.0,0.0,0.0,0.0,0.0,0.0,0.0,0.0,0.0,0.0,6.2805,0.0,0.0,0.0,0.0,0.0,0.0,0.0,6.2805,0.0,0.0,6.2805,6.2805,6.2805,6.2805,6.2805,6.2805,6.2805,6.2805,6.2805,6.2805,6.2805,6.2805,6.2805,6.2805,6.2805,6.2805,6.2805,6.2805,6.2805,6.2805,6.2805,6.2805,6.2805,6.2805,6.2805,6.2805,6.2805,6.2805,6.2805,6.2805,0.0,0.0,0.0,6.2755,6.2705,6.2308,0.0,0.0,0.0,0.0,0.0,0.0,0.0,0.0,0.0,0.0,0.0,0.0,0.0,0.0,0.0,0.0,0.0,0.0,0.0,0.0,0.0,0.0,0.0,0.0,0.0,0.0,0.0,0.0,0.0,5.7881,5.7881,5.7881,5.7881,5.7881,5.7881,5.7514,5.7289,5.7289,5.6911,5.668,5.668,5.5908,5.5393,5.528,5.4147,5.3632,5.3545,5.1911,5.1635,5.2336,5.1572,5.1229,5.1229,5.1229,5.1229,5.1229,5.1229,5.1229,5.1229,0.0,0.0,0.0,0.0,0.0,0.0,0.0,0.0,0.0,0.0,0.0,6.2805,0.0,0.0,0.0,6.2805,6.2805,6.2805,6.2805,6.2805,6.2805,6.2805,6.2805,6.2805,6.2805,6.2805,6.2805,6.2805,6.2805,6.2805,6.2805,6.2805,6.2805,6.2805,6.2805,6.2805,6.2805,6.2805,6.2805,6.2805,6.2805,6.2805,6.2805,6.2805,6.2805,6.2805,6.2805,6.2805,6.2805,6.2805,6.2805,6.2805,6.2805,0.0,0.0,0.0,0.0,0.0,0.0,0.0,0.0,0.0,0.0,0.0,0.0,0.0,0.0,0.0,0.0,0.0,0.0,0.0,0.0,0.0,0.0,0.0,0.0,0.0,0.0,0.0,0.0,0.0,0.0,0.0,0.0,0.0,5.7881,5.7881,5.7881,5.7881,5.7881,5.7881,5.7588,5.7439,5.7289,5.6987,5.6834,5.668,5.6257,5.6067,5.6067,5.5149,5.4485,5.3891,5.2606,5.2245,5.2516,5.1572,5.1229,5.1229,5.1229,5.1229,5.1229,5.1229,5.1229,5.1229,0.0,0.0,0.0,0.0,0.0,0.0,0.0,0.0,0.0,0.0,0.0,0.0,0.0,0.0,0.0,0.0,6.2805,6.2805,6.2805,6.2805,6.2805,6.2805,6.2805,6.2805,6.2805,6.2805,6.2805,6.2805,6.2805,6.2805,6.2805,6.2805,6.2805,6.2805,6.2805,6.2805,6.2805,6.2805,6.2805,6.2805,6.2805,6.2805,6.2805,6.2805,6.2805,6.2805,6.2805,0.0,0.0,0.0,0.0,0.0,0.0,0.0,0.0,0.0,0.0,0.0,0.0,0.0,0.0,0.0,0.0,0.0,0.0,0.0,0.0,0.0,0.0,0.0,0.0,0.0,0.0,0.0,0.0,0.0,0.0,0.0,0.0,0.0,0.0,0.0,0.0,0.0,0.0,0.0,5.7881,5.7881,5.7881,5.7881,5.7881,5.7881,5.7662,5.7439,5.7289,5.7063,5.6834,5.668,5.668,5.668,5.668,5.5988,5.5312,5.4653,5.3459,5.3108,5.3196,5.2002,5.1572,5.1572,5.1293,5.1229,5.1229,5.1229,5.1229,5.1229,0.0,0.0,0.0,0.0,0.0,0.0,0.0,0.0,0.0,0.0,0.0,0.0,6.3147,6.2953,6.2855,6.3002,6.2855,6.2805,6.2805,6.2805,6.2805,6.2805,6.2805,0.0,6.2805,6.2805,6.2805,6.2805,6.2805,6.2805,6.2805,6.2805,6.2805,6.2805,6.2805,6.2805,6.2805,6.2805,6.2805,6.2805,6.2805,6.2805,6.2805,6.2805,6.2805,6.2805,0.0,0.0,0.0,0.0,0.0,0.0,0.0,0.0,0.0,0.0,0.0,0.0,0.0,0.0,0.0,0.0,0.0,0.0,0.0,0.0,0.0,0.0,0.0,0.0,0.0,0.0,0.0,0.0,0.0,0.0,0.0,0.0,0.0,0.0,0.0,0.0,0.0,0.0,0.0,0.0,5.7881,5.7881,5.7881,5.7881,5.7881,5.7881,5.7514,5.7289,5.7289,5.6911,5.668,5.668,5.668,5.668,5.668,5.668,5.6603,5.6447,5.4653,5.4401,5.5035,5.3284,5.2516,5.2426,5.1572,5.1229,5.1229,5.1229,5.1229,5.1229,0.0,0.0,0.0,0.0,0.0,0.0,0.0,0.0,0.0,0.0,0.0,0.0,0.0,6.3099,6.3051,6.3099,6.3002,6.2904,6.2805,6.2805,6.2805,6.2805,6.2805,6.2805,6.2805,6.2805,6.2805,6.2805,6.2805,6.2805,6.2805,6.2805,6.2805,6.2805,6.2805,6.2805,6.2805,6.2805,0.0,0.0,0.0,6.2805,6.2805,6.2805,0.0,0.0,0.0,0.0,0.0,0.0,0.0,0.0,0.0,0.0,0.0,0.0,0.0,0.0,0.0,0.0,0.0,0.0,0.0,0.0,0.0,0.0,0.0,0.0,0.0,0.0,0.0,0.0,0.0,0.0,0.0,0.0,0.0,0.0,0.0,0.0,0.0,0.0,0.0,0.0,0.0,0.0,0.0,5.7881,5.7881,5.7881,5.7881,5.7881,5.7662,5.7364,5.7139,5.6834,5.668,5.668,5.668,5.668,5.668,5.668,5.668,5.668,5.5988,5.5588,5.5231,5.3976,5.3108,5.2606,5.2245,5.1727,5.1229,5.1229,5.1229,5.1229,0.0,0.0,0.0,0.0,0.0,0.0,0.0,0.0,0.0,6.3373,0.0,0.0,0.0,0.0,6.3147,6.3147,6.3051,6.2953,6.2805,6.2805,6.2805,6.2805,6.2805,6.2805,6.2805,6.2805,6.2805,6.2805,6.2805,6.2805,6.2805,6.2805,6.2805,6.2805,6.2805,6.2805,6.2805,0.0,0.0,6.2805,0.0,0.0,6.2805,0.0,0.0,0.0,0.0,0.0,0.0,0.0,0.0,0.0,0.0,0.0,0.0,0.0,0.0,0.0,0.0,0.0,0.0,0.0,0.0,0.0,0.0,0.0,0.0,0.0,0.0,0.0,0.0,0.0,0.0,0.0,0.0,0.0,0.0,0.0,0.0,0.0,0.0,0.0,0.0,0.0,0.0,0.0,0.0,0.0,5.7881,5.7881,5.7808,5.7735,5.7588,5.7289,5.6911,5.6757,5.668,5.668,5.668,5.668,5.668,5.668,5.668,5.668,5.668,5.6336,5.5716,5.4819,5.4062,5.3459,5.3196,5.2695,5.2094,5.1819,5.1635,5.1635,0.0,0.0,0.0,0.0,0.0,0.0,0.0,0.0,6.3602,6.3602,0.0,0.0,0.0,0.0,0.0,6.3002,6.3002,6.2953,6.2805,6.2805,6.2805,6.2805,6.2805,6.2805,6.2805,6.2805,6.2805,6.2805,6.2805,6.2805,6.2805,6.2805,6.2805,6.2805,6.2805,6.2805,6.2805,0.0,6.2805,6.2805,0.0,6.2805,6.2805,0.0,0.0,0.0,6.2805,6.2805,0.0,0.0,0.0,0.0,0.0,0.0,0.0,0.0,0.0,0.0,0.0,0.0,0.0,0.0,0.0,0.0,0.0,0.0,0.0,0.0,0.0,0.0,0.0,0.0,0.0,0.0,0.0,0.0,0.0,0.0,0.0,0.0,0.0,0.0,0.0,0.0,0.0,0.0,5.7881,5.7881,5.7881,5.7881,5.7735,5.7289,5.7289,5.7139,5.668,5.668,5.668,5.668,5.668,5.668,5.668,5.668,5.668,5.668,5.668,5.668,5.6603,5.5716,5.5312,5.5231,5.4401,5.3976,5.3891,5.2962,5.2606,5.2426,0.0,0.0,0.0,0.0,0.0,6.3602,6.3602,6.3602,6.3602,0.0,0.0,0.0,6.3602,6.3511,6.3419,6.3147,6.3147,6.3051,6.2805,6.2805,6.2805,6.2805,6.2805,6.2805,6.2805,6.2805,6.2805,6.2805,6.2805,6.2805,6.2805,6.2805,6.2805,6.2805,6.2805,6.2805,6.2805,6.2805,0.0,0.0,6.2805,6.2805,0.0,0.0,0.0,0.0,0.0,6.2805,0.0,0.0,6.2805,6.2805,0.0,0.0,0.0,0.0,0.0,0.0,6.2805,0.0,0.0,0.0,0.0,0.0,0.0,0.0,0.0,0.0,0.0,0.0,0.0,0.0,0.0,0.0,0.0,0.0,0.0,0.0,0.0,0.0,0.0,0.0,0.0,0.0,0.0,0.0,5.7881,5.7881,5.7881,5.7881,5.7808,5.7514,5.7364,5.7214,5.6911,5.6757,5.668,5.668,5.668,5.668,5.668,5.668,5.668,5.668,5.668,5.668,5.668,5.6414,5.5908,5.5312,5.5067,5.4569,5.3976,5.3719,5.3196,5.2606,0.0,0.0,0.0,0.0,0.0,6.3602,6.3602,6.3602,6.3602,0.0,0.0,0.0,6.3602,6.3602,6.3511,6.3289,6.3289,6.3194,6.2953,6.2953,6.2953,6.2953,6.2953,6.2953,6.2953,6.2953,6.2953,6.2904,6.2904,6.2855,6.2805,6.2805,6.2805,6.2805,6.2805,6.2805,6.2805,0.0,0.0,0.0,6.2805,0.0,0.0,6.2805,6.2805,0.0,0.0,0.0,6.2805,6.2805,6.2805,0.0,0.0,0.0,0.0,0.0,0.0,0.0,0.0,0.0,0.0,0.0,0.0,0.0,6.2166,6.1751,0.0,0.0,0.0,0.0,0.0,0.0,0.0,0.0,0.0,0.0,0.0,0.0,0.0,0.0,0.0,0.0,0.0,5.7881,5.7881,5.7881,5.7881,5.7881,5.7881,5.7881,5.7808,5.7588,5.7514,5.7364,5.7139,5.6911,5.6834,5.6834,5.6757,5.668,5.668,5.668,5.668,5.668,5.668,5.668,5.668,5.668,5.6336,5.5908,5.5908,5.5588,5.5067,5.4653,5.4232,5.3632,0.0,0.0,6.3647,6.3602,6.3602,6.3602,6.3602,6.3602,6.3602,0.0,6.3602,6.3602,6.3602,6.3602,6.3557,6.3382,6.3382,6.3336,6.3194,6.3194,6.3194,6.3194,6.3194,6.3194,6.3194,6.3194,6.3147,6.3002,6.3002,6.2953,6.2855,6.2805,6.2805,6.2805,6.2805,0.0,0.0,0.0,0.0,6.2805,6.2805,6.2805,0.0,0.0,6.2805,0.0,6.2805,6.2805,6.2805,6.2805,6.2805,0.0,0.0,0.0,0.0,0.0,6.2805,0.0,0.0,0.0,0.0,0.0,0.0,0.0,6.2654,6.2059,6.1472,0.0,0.0,0.0,0.0,0.0,0.0,0.0,0.0,0.0,0.0,0.0,0.0,0.0,0.0,0.0,5.7881,5.7881,5.7881,5.7881,5.7881,5.7881,5.7881,5.7881,5.7808,5.7662,5.7588,5.7514,5.7364,5.7139,5.7063,5.7063,5.6834,5.6757,5.6757,5.668,5.668,5.668,5.668,5.668,5.668,5.668,5.668,5.668,5.668,5.668,5.6603,5.5716,5.5393,5.5035,0.0,6.4292,6.3963,6.3647,6.3602,6.3602,6.3602,6.3602,6.3602,6.3602,6.3602,6.3602,6.3602,6.3602,6.3557,6.3382,6.3382,6.3336,6.3194,6.3194,6.3194,6.3194,6.3194,6.3194,6.3194,6.3194,6.3194,6.3147,6.3147,6.3147,6.3099,6.3002,6.2953,6.2953,6.2855,6.2805,0.0,0.0,0.0,6.2805,6.2805,0.0,6.2805,6.2805,6.2805,6.2805,6.2805,6.2805,6.2805,0.0,6.2805,6.2805,0.0,0.0,0.0,0.0,0.0,0.0,0.0,0.0,0.0,0.0,0.0,0.0,6.2755,6.2654,6.2308,0.0,0.0,0.0,0.0,0.0,0.0,0.0,0.0,0.0,0.0,0.0,0.0,0.0,0.0,0.0,5.7881,5.7881,5.7881,5.7881,5.7881,5.7881,5.7881,5.7881,5.7881,5.7808,5.7662,5.7588,5.7514,5.7364,5.7214,5.7214,5.7063,5.6911,5.6911,5.6757,5.668,5.668,5.668,5.668,5.668,5.668,5.668,5.668,5.668,5.668,5.668,5.6492,5.5988,5.5231,0.0,6.4407,6.4087,6.3691,6.3602,6.3602,6.3602,6.3602,6.3602,6.3602,6.3602,6.3602,6.3602,6.3602,6.3557,6.3511,6.3511,6.3465,6.3419,6.3419,6.3419,6.3419,6.3419,6.3419,6.3419,6.3419,6.3373,6.3289,6.3289,6.3242,6.3194,6.3099,6.3099,6.3099,6.2953,6.2904,0.0,0.0,6.2805,6.2805,6.2805,0.0,6.2805,6.2805,6.2805,6.2805,6.2805,6.2805,6.2805,6.2805,6.2805,0.0,0.0,6.2805,6.2805,0.0,6.2805,6.2805,0.0,0.0,0.0,6.2805,0.0,0.0,0.0,6.2705,6.2552,6.2041,6.1878,0.0,0.0,0.0,0.0,0.0,0.0,0.0,0.0,0.0,0.0,0.0,0.0,0.0,5.7881,5.7881,5.7881,5.7881,5.7881,5.7881,5.7881,5.7881,5.7881,5.7881,5.7808,5.7735,5.7735,5.7588,5.7439,5.7439,5.7214,5.7139,5.7139,5.7063,5.6911,5.6834,5.6834,5.6757,5.668,5.668,5.668,5.668,5.668,5.668,5.668,5.668,5.6414,5.5908,0.0,6.4557,6.4172,6.3786,6.3647,6.3602,6.3736,6.3736,6.3736,6.3736,6.3786,6.3786,6.3698,6.3786,6.3792,6.3792,6.3792,6.3786,6.3736,6.3736,6.3691,6.3602,6.3602,6.3602,6.3602,6.3602,6.3557,6.3465,6.3465,6.3382,6.3279,6.3242,6.3242,6.3194,6.3099,6.3051,0.0,0.0,0.0,6.2855,0.0,6.2805,6.2805,6.2805,6.2805,6.2805,6.2805,6.2805,6.2805,6.2805,0.0,6.2805,6.2805,6.2805,0.0,0.0,0.0,0.0,0.0,0.0,0.0,0.0,0.0,6.2755,0.0,0.0,0.0,6.2449,0.0,0.0,0.0,0.0,0.0,0.0,0.0,0.0,0.0,0.0,0.0,0.0,0.0,0.0,0.0,5.7954,5.7881,5.7881,5.7881,5.7881,5.7881,5.7881,5.7881,5.7881,5.7881,5.7881,5.7881,5.7735,5.7662,5.7662,5.7439,5.7364,5.7364,5.7289,5.7214,5.7063,5.6987,5.6911,5.6757,5.668,5.668,5.668,5.668,5.668,5.668,5.668,5.668,5.6603,6.5299,6.4904,6.4557,6.4172,6.383,6.3736,6.4087,6.4128,6.4128,6.4128,6.4407,6.4483,6.4131,6.4407,6.4592,6.4592,0.0,0.0,6.4169,0.0,6.3963,6.3602,6.3602,6.3602,6.3602,6.3602,6.3602,6.3557,6.3557,6.3557,6.3557,6.3465,6.3382,6.3336,6.3242,0.0,0.0,0.0,6.3051,0.0,6.2904,6.2805,0.0,6.2805,6.2805,6.2805,6.2805,6.2805,6.2805,0.0,6.2805,6.2805,0.0,6.2805,0.0,0.0,0.0,0.0,0.0,0.0,0.0,0.0,6.2805,0.0,0.0,0.0,6.2755,6.2603,0.0,0.0,0.0,0.0,0.0,0.0,0.0,0.0,0.0,0.0,0.0,0.0,0.0,0.0,0.0,5.828,5.7881,5.7881,5.7881,5.7881,5.7881,5.7881,5.7881,5.7881,5.7881,5.7881,5.7881,5.7881,5.7881,5.7881,5.7662,5.7588,5.7588,5.7364,5.7289,5.7289,5.7063,5.6987,5.6987,5.6757,5.668,5.668,5.668,5.668,5.668,5.668,5.668,5.668,6.5397,6.5137,0.0,6.4557,6.4369,6.4292,6.4483,6.4483,6.4407,6.4249,6.433,6.4291,6.3915,0.0,0.0,0.0,0.0,0.0,0.0,0.0,6.4004,6.3602,6.3602,6.3602,6.3602,6.3602,6.3602,6.3602,6.3602,6.3602,6.3602,6.3557,6.3511,6.3511,6.3373,0.0,6.3289,0.0,0.0,0.0,0.0,0.0,0.0,6.2805,6.2805,6.2805,6.2805,6.2805,6.2805,0.0,6.2805,0.0,0.0,0.0,0.0,0.0,0.0,0.0,0.0,0.0,0.0,0.0,0.0,0.0,6.2805,0.0,6.2755,0.0,0.0,0.0,0.0,0.0,0.0,0.0,6.143,0.0,0.0,0.0,0.0,0.0,0.0,0.0,0.0,0.0,0.0,0.0,5.7881,5.7881,5.7881,5.7881,5.7881,5.7881,5.7881,5.7881,5.7881,5.7881,5.7881,5.7881,5.7808,5.7735,5.7735,5.7662,5.7588,5.7439,5.7364,5.7214,5.6987,5.6911,5.6834,5.668,5.668,5.668,5.668,5.668,5.668,5.668,6.5513,0.0,0.0,0.0,6.4769,6.4734,6.4837,6.4976,6.4909,6.4558,0.0,0.0,6.3963,6.4091,0.0,0.0,0.0,6.4631,0.0,0.0,6.433,0.0,0.0,0.0,0.0,6.3835,6.383,6.3602,6.3736,6.3736,6.3602,6.3602,6.3602,6.3602,0.0,6.3428,6.3465,0.0,0.0,6.3326,6.3231,6.3099,6.3002,6.2855,6.2805,6.2805,6.2805,6.2805,6.2805,6.2805,6.2805,0.0,6.2805,0.0,0.0,0.0,0.0,0.0,6.2805,0.0,0.0,0.0,0.0,0.0,0.0,0.0,0.0,0.0,0.0,0.0,0.0,0.0,0.0,0.0,0.0,6.143,0.0,0.0,0.0,0.0,0.0,0.0,0.0,0.0,0.0,5.8209,5.8209,5.8065,5.7881,5.7881,5.7881,5.7881,5.7881,5.7881,5.7881,5.7881,5.7881,5.7881,5.7881,5.7881,5.7881,5.7881,5.7808,5.7662,5.7588,5.7439,5.7139,5.7139,5.6987,5.6757,5.6757,5.6757,5.668,5.668,5.668,5.668,6.5897,6.558,0.0,0.0,0.0,6.4837,6.5238,6.5608,6.5728,0.0,0.0,0.0,0.0,0.0,0.0,0.0,0.0,6.5663,6.5299,0.0,6.5073,0.0,0.0,0.0,0.0,0.0,6.4331,6.3602,6.3963,6.3963,6.3602,6.3602,6.3602,6.3602,6.3602,6.3602,6.3557,6.3465,6.3465,6.3557,6.3289,6.3099,6.3002,0.0,6.2805,6.2805,6.2805,0.0,0.0,6.2805,6.2805,0.0,0.0,0.0,0.0,0.0,0.0,0.0,0.0,0.0,0.0,6.2805,0.0,0.0,0.0,0.0,6.2603,0.0,0.0,0.0,0.0,0.0,0.0,0.0,0.0,0.0,0.0,0.0,0.0,0.0,0.0,0.0,0.0,0.0,5.9644,5.8875,5.8909,5.8564,5.7954,5.7881,5.7881,5.7881,5.7881,5.7881,5.7881,5.7881,5.7881,5.7881,5.7881,5.7881,5.7881,5.7881,5.7881,5.7881,5.7662,5.7588,5.7588,5.7364,5.7139,5.6987,5.6987,5.6834,5.668,5.668,5.668,5.668,0.0,0.0,0.0,0.0,0.0,6.5542,6.5663,6.5808,0.0,0.0,0.0,0.0,0.0,0.0,6.5137,0.0,0.0,6.5456,6.5299,6.5299,0.0,0.0,0.0,6.4664,0.0,0.0,0.0,0.0,6.4251,6.4128,6.3963,6.3698,6.3602,6.3602,0.0,6.3742,0.0,0.0,0.0,0.0,0.0,6.3482,6.3099,0.0,0.0,6.2805,6.2805,6.2805,0.0,6.2805,6.2805,6.2805,6.2805,6.2805,6.2805,6.2805,6.2805,0.0,0.0,0.0,6.2805,6.2805,0.0,0.0,0.0,0.0,0.0,0.0,0.0,0.0,0.0,0.0,0.0,0.0,0.0,0.0,0.0,0.0,0.0,0.0,0.0,0.0,0.0,0.0,0.0,5.8875,5.8528,5.8137,5.7881,5.7881,5.7881,5.7881,5.7881,5.7881,5.7881,5.7881,5.7881,5.7881,5.7881,5.7881,5.7881,5.7881,5.7881,5.7881,5.7808,5.7735,5.7588,5.7514,5.7289,5.6987,5.6987,5.6911,5.668,5.668,5.668,5.668,6.5897,0.0,0.0,0.0,0.0,0.0,6.5897,6.5897,0.0,0.0,6.5513,0.0,6.4976,0.0,6.5168,0.0,6.5427,6.5513,6.5513,6.5513,0.0,6.5137,6.5137,0.0,0.0,0.0,0.0,0.0,0.0,6.4445,6.4209,6.392,6.3742,6.3602,0.0,6.383,0.0,0.0,6.4046,0.0,0.0,6.4012,0.0,0.0,6.3215,6.2805,0.0,6.2953,6.2805,6.2805,6.2805,6.2805,6.2805,6.2805,6.2805,6.2805,6.2805,6.2805,6.2805,6.2805,0.0,6.2805,6.2805,0.0,6.2654,0.0,0.0,0.0,0.0,0.0,0.0,0.0,0.0,0.0,0.0,0.0,0.0,6.2005,0.0,0.0,0.0,0.0,0.0,0.0,5.9674,5.8977,5.8737,5.8422,0.0,0.0,5.7881,5.7881,5.7881,5.7881,5.7881,5.7881,5.7881,5.7881,5.7881,5.7881,5.7881,5.7881,5.7881,5.7881,5.7881,5.7808,5.7735,5.7735,5.7514,5.7214,5.7214,5.7063,5.6757,5.6757,5.668,5.668,0.0,0.0,0.0,0.0,6.5897,0.0,0.0,0.0,6.5897,0.0,6.5897,6.5755,6.5359,6.5663,6.5755,6.5359,6.5663,0.0,6.5897,6.5897,0.0,0.0,6.5897,6.5728,6.5329,0.0,0.0,0.0,0.0,0.0,6.4251,6.4249,6.4004,6.3647,6.3602,0.0,6.4212,6.4209,6.4369,6.4699,6.4734,6.4626,6.4518,6.4554,6.3855,6.2953,6.3354,6.3252,6.2805,6.2805,6.2805,6.2805,6.2805,6.2805,6.2805,6.2805,6.2805,6.2805,6.2805,6.2805,6.2805,6.2805,0.0,0.0,0.0,0.0,6.2433,0.0,0.0,0.0,0.0,0.0,0.0,6.2168,6.206,6.2005,0.0,0.0,0.0,0.0,0.0,0.0,0.0,6.1636,6.1104,5.9078,5.9578,5.938,0.0,0.0,5.7954,5.7881,5.7881,5.7881,5.7881,5.7881,5.7881,5.7881,5.7881,5.7881,5.7881,5.7881,5.7881,5.7881,5.7881,5.7881,5.7881,5.7881,5.7808,5.7588,5.7588,5.7364,5.6987,5.6757,5.668,5.668,6.6013,6.5897,6.5897,0.0,6.5897,6.5897,0.0,0.0,0.0,0.0,6.5897,6.5872,6.5755,6.5846,6.5872,6.5755,6.5833,0.0,0.0,0.0,0.0,6.5897,6.5897,6.5872,6.5755,6.5872,0.0,6.5608,0.0,0.0,6.5014,6.4445,6.4169,6.4046,0.0,0.0,6.4593,6.433,6.4369,6.4734,6.5041,6.4871,0.0,0.0,6.4803,6.3813,6.3637,6.3453,6.3299,6.2953,6.2805,6.2805,6.2805,6.2805,6.2805,6.2805,6.2805,6.2805,6.2805,6.2805,6.2805,6.2805,6.2805,6.2755,0.0,0.0,0.0,0.0,0.0,0.0,0.0,0.0,0.0,0.0,0.0,0.0,0.0,0.0,0.0,6.2005,0.0,0.0,6.1748,6.143,6.0867,5.9774,5.9902,0.0,0.0,0.0,0.0,5.7881,5.7881,5.7881,5.7881,5.7881,5.7881,5.7881,5.7881,5.7881,5.7881,5.7881,5.7881,5.7881,5.7881,5.7881,5.7881,5.7881,5.7808,5.7588,5.7588,5.7364,5.6987,5.6757,5.668,5.668,6.6513,0.0,0.0,6.5897,0.0,0.0,6.5897,0.0,0.0,6.5897,6.5897,0.0,6.5897,6.5897,6.5897,6.5897,6.5897,0.0,0.0,0.0,0.0,6.5897,6.5897,6.5897,6.5897,6.5897,0.0,6.5897,0.0,0.0,6.5299,6.4913,6.4557,6.4407,0.0,6.4407,0.0,6.4981,6.5079,6.523,6.5485,0.0,0.0,6.5635,6.5456,6.4837,6.437,6.4016,6.3674,6.3262,6.311,6.3062,6.2855,6.2805,6.2805,6.2805,6.2805,6.2805,6.2805,6.2805,6.2805,6.2805,6.2805,6.2755,6.2654,6.2603,6.2552,0.0,0.0,0.0,0.0,0.0,0.0,0.0,0.0,0.0,0.0,0.0,0.0,0.0,6.2005,0.0,6.2005,6.1636,6.1045,6.0093,6.0282,0.0,0.0,0.0,0.0,5.7881,5.8209,5.8209,5.7881,5.8209,5.8209,5.7881,5.7881,5.7881,5.7881,5.7881,5.7881,5.7881,5.7881,5.7881,5.7881,5.7881,5.7808,5.7735,5.7662,5.7439,5.7139,5.6911,5.6757,5.668,0.0,0.0,0.0,0.0,0.0,0.0,0.0,6.5897,0.0,6.5897,0.0,6.5897,6.5897,6.5897,6.5897,6.5897,0.0,6.5897,6.5897,6.5897,6.5897,6.5897,6.5897,6.5897,6.5897,6.5897,0.0,0.0,0.0,6.5728,6.5397,6.5299,6.5105,6.4769,6.4734,0.0,0.0,6.5755,6.5897,6.5897,6.5897,6.5897,6.5897,6.5897,6.5846,6.574,6.5238,6.4699,6.4136,6.3718,6.3535,6.3445,6.3014,6.2855,6.2805,6.2805,6.2805,6.2805,6.2805,6.2805,6.2805,6.2805,6.2805,6.2755,6.2654,6.2654,6.2603,6.2449,6.2344,6.2238,0.0,0.0,0.0,0.0,0.0,0.0,0.0,0.0,0.0,0.0,0.0,0.0,6.2005,6.2005,6.1487,6.0219,0.0,0.0,0.0,0.0,0.0,5.8065,5.8598,5.8633,5.8137,0.0,5.8564,5.8027,5.7954,5.7881,5.7881,5.7881,5.7881,5.7881,5.7881,5.7881,5.7881,5.7881,5.7881,5.7881,5.7735,5.7514,5.7289,5.7139,5.6911,5.6757,0.0,0.0,0.0,0.0,0.0,6.5897,6.5897,6.5897,6.5897,6.5897,6.5897,6.5897,6.5897,6.5897,6.5897,6.5897,6.5897,0.0,0.0,0.0,0.0,6.5897,6.5897,6.5897,6.5897,6.5897,6.5897,0.0,6.5897,6.5872,6.5781,6.5456,6.5268,6.5207,6.4837,0.0,6.5329,6.5755,0.0,6.5897,6.5897,6.5897,6.5897,6.5897,6.5846,6.5767,6.558,6.5175,6.4666,6.4136,6.3761,6.349,6.34,6.311,6.2805,6.2805,6.2805,6.2805,6.2805,6.2805,6.2805,6.2805,6.2805,6.2805,6.2755,6.2755,6.2705,6.2603,6.2552,6.2449,6.2238,0.0,0.0,0.0,0.0,0.0,0.0,0.0,0.0,0.0,0.0,6.2005,0.0,6.2005,0.0,0.0,0.0,0.0,0.0,0.0,0.0,0.0,5.8841,0.0,0.0,0.0,5.8841,5.8703,5.8137,5.7881,5.7881,5.7881,5.7881,5.7881,5.7881,5.7881,5.7881,5.7881,5.7881,5.7881,5.7881,5.7735,5.7514,5.7289,5.7139,5.6911,0.0,0.0,0.0,0.0,0.0,0.0,0.0,6.5897,0.0,6.5897,6.5897,6.5897,6.5897,6.5897,6.5897,6.5897,6.5897,6.5897,6.5897,6.5897,6.5897,6.5897,6.5897,0.0,6.5897,6.5897,6.5897,6.5897,6.5897,6.5897,6.5897,6.569,6.5608,6.5608,6.5427,6.5456,0.0,0.0,0.0,6.5897,6.5897,6.5897,6.5897,6.5897,6.5872,6.5846,6.5635,6.5456,6.5175,6.463,6.4331,6.4094,6.3668,6.3354,6.311,6.2855,6.2805,6.2805,6.2805,6.2805,6.2805,6.2805,6.2805,6.2805,6.2805,6.2805,6.2755,6.2552,6.25,6.2397,6.2168,6.206,0.0,0.0,0.0,0.0,0.0,0.0,0.0,0.0,0.0,0.0,0.0,0.0,0.0,0.0,0.0,6.143,6.0058,0.0,6.0219,0.0,0.0,0.0,0.0,0.0,0.0,5.9447,5.9113,5.9012,5.9012,5.8598,5.8388,5.8388,5.8065,5.7881,5.7881,5.7881,5.7881,5.7881,5.7881,5.7735,5.7439,5.7364,5.7139,5.6834,0.0,6.659,0.0,0.0,6.5897,0.0,6.5897,6.5897,6.5897,6.5897,6.5897,6.5897,6.5897,6.5897,6.5897,6.5897,6.5897,6.5897,6.5897,6.5897,6.5897,6.5897,6.5897,6.5897,6.5897,6.5897,6.5897,0.0,6.5897,6.5897,6.5897,6.5897,6.5897,6.5897,0.0,0.0,0.0,0.0,6.5897,6.5897,6.5897,6.5897,6.5897,6.5897,6.5897,6.5872,6.5663,6.5608,6.5552,6.5085,6.4845,6.4668,6.3888,6.358,6.34,6.2953,6.2805,6.2805,6.2805,6.2805,6.2805,6.2805,6.2805,6.2805,6.2805,6.2805,6.2705,6.2485,6.2344,6.2275,6.2005,6.2005,0.0,0.0,0.0,0.0,0.0,0.0,0.0,0.0,0.0,0.0,6.2005,0.0,0.0,0.0,0.0,6.1692,6.1045,6.0986,6.0747,0.0,0.0,6.0807,6.0406,0.0,6.0711,6.0219,6.003,5.9966,5.9966,5.938,5.9045,5.8909,5.8317,5.7993,5.7881,5.7881,5.7881,5.7881,5.7881,5.7735,5.7439,5.7364,5.7139,5.6834,0.0,0.0,0.0,0.0,0.0,0.0,0.0,6.5897,6.5897,6.5897,6.5897,6.5897,6.5897,6.5897,6.5897,6.5897,6.5897,6.5897,6.5897,6.5897,6.5897,6.5897,6.5897,6.5897,6.5897,6.5897,6.5897,0.0,0.0,6.5897,0.0,6.5897,6.5897,0.0,0.0,0.0,0.0,6.5897,6.5897,6.5897,6.5897,6.5897,6.5897,6.5897,6.5897,6.5872,6.5663,6.5608,6.558,6.5405,6.5085,6.4704,6.4176,6.3803,6.34,6.2953,6.2805,6.2805,6.2805,6.2805,6.2805,6.2805,6.2805,6.2805,6.2805,6.2805,6.2705,6.2485,6.2222,6.2005,6.2005,6.2005,6.2005,0.0,0.0,0.0,0.0,0.0,0.0,0.0,0.0,0.0,0.0,6.2005,0.0,0.0,6.2005,6.1692,6.1045,6.0986,6.0986,6.0927,6.0986,6.1257,6.184,6.1315,6.0986,6.0927,6.0282,5.9966,5.9966,5.9902,5.9513,5.8909,5.8841,5.8458,5.7881,5.7881,5.7881,5.7881,5.7881,5.7881,5.7808,5.7662,5.7439,5.7214,0.0,0.0,0.0,0.0,0.0,0.0,0.0,6.5897,6.5897,6.5897,6.5897,6.5897,6.5897,6.5897,6.5897,6.5897,6.5897,6.5897,6.5897,6.5897,6.5897,6.5897,6.5897,6.5897,6.5897,6.5897,6.5897,0.0,0.0,0.0,0.0,0.0,0.0,0.0,0.0,6.5897,6.5897,6.5897,6.5897,6.5897,6.5897,6.5897,6.5897,6.5897,6.5897,6.5872,6.5663,6.5608,6.558,6.5474,6.5283,6.5085,6.4668,6.4214,6.3803,6.3354,6.3014,6.2805,6.2805,6.2805,6.2805,6.2805,6.2805,6.2805,6.2805,6.2805,6.2755,6.2552,6.2291,6.2114,6.2114,6.206,6.2005,0.0,0.0,0.0,0.0,0.0,0.0,0.0,0.0,0.0,0.0,0.0,0.0,0.0,0.0,6.1895,6.1636,6.1636,6.1636,6.1636,0.0,6.1748,6.2005,6.1748,6.1636,6.1636,6.1315,6.1198,6.1198,6.0807,6.0219,5.9578,5.9078,5.8772,5.8458,5.8065,5.7881,5.7881,5.7881,5.7808,5.7735,5.7662,5.7364,5.7139,6.859,0.0,6.6859,0.0,6.5897,6.5897,6.5897,6.5897,6.5897,6.5897,6.5897,6.5897,6.5897,6.5897,6.5897,6.5897,6.5897,6.5897,6.5897,6.5897,6.5897,6.5897,6.5897,0.0,6.5897,6.5897,6.5897,6.5897,6.5897,0.0,0.0,0.0,0.0,0.0,6.5897,6.5897,6.5897,6.5897,6.5897,6.5897,6.5897,6.5897,6.5897,6.5897,6.5897,6.5897,6.5728,6.5608,6.558,6.5465,6.5444,6.5314,6.4951,6.4557,6.4214,6.3631,6.3299,6.3002,6.2855,6.2805,6.2805,6.2805,6.2805,6.2805,6.2805,6.2805,6.2755,6.2654,6.2397,6.2238,6.2185,6.2114,6.206,6.2005,0.0,0.0,0.0,0.0,0.0,0.0,6.2005,6.2005,6.2005,6.2005,0.0,0.0,0.0,0.0,6.2005,6.2005,6.2005,0.0,0.0,0.0,6.2005,6.2005,6.2005,6.2005,6.2005,6.2005,6.195,6.1315,6.0711,6.0219,5.9578,5.9113,5.8841,5.8388,5.8065,5.7881,5.7881,5.7808,5.7662,5.7662,5.7439,5.7063,6.859,6.7705,6.6859,6.6051,6.5897,6.5897,6.5897,6.5897,6.5897,6.5897,6.5897,6.5897,6.5897,6.5897,6.5897,6.5897,6.5897,6.5897,6.5897,6.5897,6.5897,0.0,0.0,6.5897,6.5897,6.5897,6.5897,6.5897,0.0,0.0,6.5897,0.0,6.5897,6.5897,6.5897,6.5897,6.5897,6.5897,6.5897,6.5897,6.5897,6.5897,6.5897,6.5897,6.5897,6.5897,6.582,6.5701,6.558,6.5523,6.5435,6.5314,6.4951,6.4775,6.4631,6.3718,6.349,6.34,6.2953,6.2805,6.2805,6.2805,6.2805,6.2805,6.2805,6.2805,6.2755,6.2654,6.25,6.2381,6.2185,6.2185,6.2168,6.2005,0.0,0.0,0.0,0.0,0.0,0.0,6.2005,6.2005,6.2005,6.2005,0.0,0.0,0.0,0.0,0.0,0.0,0.0,6.2005,6.2005,0.0,6.2005,6.2005,6.2005,6.2005,6.2005,6.2005,6.195,6.1315,6.0986,6.0986,6.0282,5.9578,5.8909,5.8909,5.8528,5.7881,5.7881,5.7881,5.7881,5.7881,5.7662,5.7289,6.8667,6.8167,6.7552,6.6128,6.5897,6.5897,6.5897,6.5897,6.5897,6.5897,6.5897,6.5897,6.5897,6.5897,6.5897,0.0,6.5897,6.5897,0.0,6.5897,6.5897,6.5897,6.5897,6.5897,6.5897,6.5897,6.5897,6.5897,0.0,0.0,0.0,6.5897,6.5897,6.5897,6.5897,6.5897,6.5897,6.5897,6.5897,6.5897,6.5897,6.5897,6.5897,6.5897,6.5897,6.5897,6.5728,6.5608,6.558,6.5465,6.5444,6.5383,6.5252,6.5019,6.4704,6.4094,6.3718,6.34,6.2953,6.2805,6.2805,6.2805,6.2805,6.2805,6.2805,6.2805,6.2805,6.2755,6.2603,6.25,6.25,6.2397,6.2291,6.2275,6.2222,0.0,0.0,0.0,0.0,6.2005,6.2005,6.2005,0.0,6.2005,0.0,0.0,0.0,0.0,0.0,0.0,0.0,0.0,6.2005,0.0,6.2005,6.2005,6.2005,6.2005,6.2005,6.2005,6.2005,6.1748,6.1692,6.1636,6.0986,6.0529,6.0344,5.9838,5.9247,5.8564,5.8564,5.8317,5.7881,5.7881,5.7735,5.7514,6.8744,6.8424,6.7885,6.6205,6.5923,6.5923,6.5897,6.5897,6.5897,6.5897,6.5897,6.5897,6.5897,6.5897,0.0,6.5897,6.5897,6.5897,6.5897,6.5897,6.5897,6.5897,6.5897,6.5897,6.5897,6.5897,0.0,6.5897,6.5897,6.5897,6.5897,6.5897,6.5897,6.5897,6.5897,6.5897,6.5897,6.5897,6.5897,6.5897,6.5897,6.5897,6.5897,6.5897,6.5897,6.5897,6.5728,6.5635,6.558,6.5465,6.5444,6.5413,6.5413,6.5252,6.4951,6.4483,6.4053,6.3631,6.3168,6.2953,6.2805,6.2805,6.2805,6.2805,6.2805,6.2805,6.2805,6.2805,6.2705,6.2654,6.2603,6.2552,6.2449,6.2433,6.2328,6.2275,6.2275,0.0,0.0,0.0,0.0,0.0,0.0,6.206,6.206,0.0,0.0,0.0,0.0,0.0,0.0,6.2005,6.2005,0.0,6.2005,6.2005,6.2005,6.2005,6.2005,6.2005,6.2005,6.2005,6.2005,6.195,6.1579,6.1221,6.0986,6.0529,5.9803,5.8909,5.8909,5.8528,5.7881,5.7881,5.7735,5.7588,6.8847,6.8488,6.7975,0.0,6.601,0.0,6.5923,6.5897,6.5897,6.5897,6.5897,6.5897,6.5897,6.5897,6.5897,6.5897,0.0,0.0,0.0,6.5897,6.5897,6.5897,6.5897,6.5897,6.5897,6.5897,6.5897,6.5897,6.5897,6.5897,6.5897,6.5897,6.5897,6.5897,6.5897,6.5897,6.5897,6.5897,6.5897,6.5897,6.5897,6.5897,6.5897,6.5897,6.5897,6.5897,6.582,6.5701,6.558,6.5523,6.5435,6.5413,6.5413,6.5413,6.5314,6.4917,6.4483,6.4016,6.3624,6.3158,6.2805,6.2805,6.2805,6.2805,6.2805,6.2805,6.2805,6.2805,6.2805,6.2755,6.2654,6.2603,6.2552,6.2449,6.2397,6.2397,6.2397,6.2291,6.2185,0.0,0.0,0.0,0.0,6.2168,6.2168,0.0,0.0,0.0,0.0,0.0,6.2005,6.2005,6.2005,6.2005,6.2005,6.2005,6.2005,6.2005,6.2005,6.2005,6.2005,6.2005,6.2005,6.2005,6.2005,6.1636,6.1045,6.1045,6.0246,5.9011,5.8943,5.8564,5.7954,5.7881,5.7735,5.7588,0.0,0.0,6.8227,6.7186,6.6406,6.5996,6.5972,6.5947,6.5897,6.5897,6.5897,6.5897,6.5897,6.5897,6.5897,6.5897,6.5897,6.5897,6.5897,6.5897,6.5897,6.5897,6.5897,6.5897,6.5897,6.5897,6.5897,6.5897,6.5897,6.5897,6.5897,6.5897,6.5897,6.5897,6.5897,6.5897,6.5897,6.5897,6.5897,6.5897,6.5897,6.5897,6.5897,6.5897,6.5897,6.5897,6.5728,6.5608,6.558,6.5465,6.5405,6.5413,6.5413,6.5413,6.5314,6.4917,6.4483,6.4016,6.3624,6.3158,6.2805,6.2805,6.2805,6.2805,6.2805,6.2805,6.2805,6.2805,6.2805,6.2805,6.2755,6.2755,6.2755,6.2705,6.2603,6.2552,6.2552,6.2449,6.2344,0.0,6.2291,6.2328,6.2328,6.2291,6.2328,0.0,0.0,0.0,0.0,6.2114,6.2114,6.2005,6.2005,6.2005,6.2005,6.2005,6.2005,6.2005,6.2005,6.2005,6.2005,6.2005,6.2005,6.2005,6.2005,6.1895,6.1748,6.1748,6.1257,6.0468,5.9966,5.9314,5.8564,5.8065,5.7735,5.7588,7.0088,6.92,6.8351,6.7464,6.6592,6.6029,6.6005,6.5996,6.5947,6.5947,6.5923,6.5897,6.5897,6.5897,6.5897,6.5897,6.5897,6.5897,6.5897,6.5897,6.5897,6.5897,6.5897,6.5897,6.5897,6.5897,6.5897,6.5897,6.5897,6.5897,6.5897,6.5897,6.5897,6.5897,6.5897,6.5897,6.5897,6.5897,6.5897,6.5897,6.5897,6.5897,6.5897,6.5897,6.5897,6.5897,6.5728,6.5674,6.558,6.5465,6.5444,6.5413,6.5413,6.5413,6.5345,6.5117,6.4775,6.4369,6.4134,6.3761,6.3354,6.3158,6.2953,6.2805,6.2805,6.2805,6.2805,6.2805,6.2805,6.2805,6.2805,6.2805,6.2805,6.2805,6.2755,6.2705,6.2705,6.2552,6.25,6.25,6.2449,6.2433,6.2433,6.2449,6.2449,6.2291,6.2344,0.0,6.2168,6.2275,6.2222,6.2114,6.2168,6.2168,6.2168,6.2114,6.2114,6.2114,6.2005,6.2005,6.2005,6.2005,6.2005,6.2005,6.2005,6.2005,6.2005,6.2005,6.1636,6.0986,6.059,6.003,5.938,5.8977,5.8528,5.8031,7.0266,6.9363,6.8458,6.7679,6.6736,6.608,6.6036,6.6005,6.602,6.5996,6.5947,6.5923,6.5897,6.5897,6.5897,6.5897,6.5897,6.5897,6.5897,6.5897,6.5897,6.5897,6.5897,6.5897,6.5897,6.5897,6.5897,6.5897,6.5897,6.5897,6.5897,6.5897,6.5897,6.5897,6.5897,6.5897,6.5897,6.5897,6.5897,6.5897,6.5897,6.5897,6.5897,6.5897,6.5897,6.5897,6.582,6.5701,6.558,6.5523,6.5435,6.5413,6.5413,6.5413,6.5413,6.5413,6.5188,6.4882,6.481,6.4445,6.3975,6.3624,6.3205,6.2904,6.2805,6.2805,6.2805,6.2805,6.2805,6.2805,6.2805,6.2805,6.2805,6.2805,6.2805,6.2805,6.2805,0.0,6.2654,6.2654,6.25,6.2449,6.2449,6.2552,6.2552,6.2449,6.2552,6.2552,6.2433,6.2397,6.2344,6.2238,6.2344,6.2433,6.2433,6.2238,6.2185,6.2185,6.206,6.2005,6.2005,6.2005,6.2005,6.2005,6.2005,6.2005,6.2005,6.2005,6.1692,6.1163,6.1045,6.0651,6.0156,6.003,5.9478,5.8668,7.1115,6.9839,6.8756,6.8601,6.7205,6.6102,6.608,6.6036,6.6005,6.602,6.5996,6.5972,6.5897,6.5897,6.5897,6.5897,6.5897,6.5897,6.5897,6.5897,6.5897,6.5897,6.5897,6.5897,6.5897,6.5897,6.5897,6.5897,6.5897,6.5897,6.5897,6.5897,6.5897,6.5897,6.5897,6.5897,6.5897,6.5897,6.5897,6.5897,6.5897,6.5897,6.5897,6.5897,6.5897,6.5897,6.582,6.5701,6.558,6.5523,6.5435,6.5413,6.5413,6.5413,6.5413,6.5413,6.5345,6.5252,6.4879,6.4445,6.3975,6.3624,6.3445,6.3299,6.2904,6.2805,6.2805,6.2805,6.2805,6.2805,6.2805,6.2805,6.2805,6.2805,6.2805,6.2805,6.2805,0.0,6.2755,6.2755,6.2755,6.2705,6.2705,6.2755,6.2705,6.2603,6.2603,6.2552,6.2433,6.25,6.2552,6.2552,6.2449,6.2433,6.2433,6.2238,6.2185,6.2185,6.206,6.2005,6.2005,6.2005,6.2005,6.2005,6.2005,6.2005,6.2005,6.2005,6.195,6.1748,6.1221,6.0927,6.0807,6.0219,5.9709,5.9212,7.1291,6.9938,6.8816,6.8816,6.7325,6.6144,6.6144,6.6102,6.6058,6.6052,6.6005,6.5996,6.5947,6.5923,6.5897,6.5897,6.5897,6.5897,6.5897,6.5897,6.5897,6.5897,6.5897,6.5897,6.5897,6.5897,6.5897,6.5897,6.5897,6.5897,6.5897,6.5897,6.5897,6.5897,6.5897,6.5897,6.5897,6.5897,6.5897,6.5897,6.5897,6.5897,6.5897,6.5897,6.5897,6.5897,6.5872,6.5728,6.5608,6.5552,6.5465,6.5413,6.5413,6.5413,6.5413,6.5413,6.5413,6.5345,6.515,6.481,6.4369,6.393,6.3631,6.3354,6.2904,6.2805,6.2805,6.2805,6.2805,6.2805,6.2805,6.2805,6.2805,6.2805,6.2805,0.0,0.0,6.2805,6.2805,6.2805,6.2805,6.2805,6.2805,6.2805,6.2755,6.2705,6.2705,6.2654,6.2603,6.2654,6.2705,6.2705,6.2654,6.2603,6.2603,6.2397,6.2291,6.2328,6.2114,6.2005,6.2005,6.2005,6.2005,6.2005,6.2005,6.2005,6.2005,6.2005,6.2005,6.195,6.1636,6.1544,6.1487,6.1198,6.0651,6.0058,7.1291,6.9938,6.8816,6.8816,6.7346,6.6185,6.6185,6.6144,6.6123,6.6102,6.6052,6.602,6.5996,6.5947,6.5897,6.5897,6.5897,6.5897,6.5897,6.5897,6.5897,6.5897,6.5897,6.5897,6.5897,6.5897,6.5897,6.5897,6.5897,6.5897,6.5897,6.5897,6.5897,6.5897,6.5897,6.5897,6.5897,6.5897,6.5897,6.5897,6.5897,6.5897,6.5897,6.5897,6.5897,6.5897,6.5897,6.5781,6.5635,6.5608,6.5523,6.5444,6.5375,6.5413,6.5413,6.5413,6.5413,6.5413,6.5413,6.515,6.481,6.4215,6.3888,6.349,6.2953,6.2805,6.2805,6.2805,6.2805,6.2805,6.2805,6.2805,6.2805,6.2805,0.0,0.0,0.0,6.2805,6.2805,6.2805,6.2805,6.2805,6.2805,6.2805,6.2805,6.2805,6.2805,6.2805,6.2805,6.2805,6.2805,6.2805,6.2805,6.2805,6.2805,6.25,6.2433,6.2433,6.2114,6.2005,6.2005,6.2005,6.2005,6.2005,6.2005,6.2005,6.2005,6.2005,6.2005,6.2005,6.2005,6.2005,6.2005,6.2005,6.1544,6.0891,7.1291,6.9938,6.8816,6.8816,6.7346,6.6185,6.6185,6.6185,6.6165,6.6102,6.6036,6.599,6.602,6.5947,6.5897,6.5897,6.5897,6.5897,6.5897,6.5897,6.5897,6.5897,6.5897,6.5897,6.5897,6.5897,6.5897,6.5897,6.5897,6.5897,6.5897,6.5897,6.5897,6.5897,6.5897,6.5897,6.5897,6.5897,6.5897,6.5897,6.5897,6.5897,6.5897,6.5897,6.5897,6.5897,6.5897,6.5846,6.5767,6.5635,6.5552,6.5465,6.5444,6.5413,6.5413,6.5413,6.5413,6.5413,6.5413,6.5383,6.515,6.4293,6.4056,6.3846,6.2965,6.2805,6.2805,6.2805,6.2805,6.2805,6.2805,6.2805,6.2805,6.2805,0.0,0.0,6.2805,6.2805,6.2805,6.2805,6.2805,6.2805,6.2805,6.2805,6.2805,6.2805,6.2805,6.2805,6.2805,6.2805,6.2805,6.2805,6.2805,6.2805,6.2805,6.25,6.2433,6.2433,6.2114,6.2005,6.2005,6.2005,6.2005,6.2005,6.2005,6.2005,6.2005,6.2005,6.2005,6.2005,6.2005,6.2005,6.2005,6.2005,6.1895,6.1579,7.1291,7.0363,6.9396,6.8893,6.781,6.6804,6.6263,6.6185,6.6185,6.6165,6.6102,6.6036,6.599,6.5958,6.5947,6.5897,6.5897,6.5897,6.5897,6.5897,6.5897,6.5897,6.5897,6.5897,6.5897,6.5897,6.5897,6.5897,6.5897,6.5897,6.5897,6.5897,6.5897,6.5897,6.5897,6.5897,6.5897,6.5897,6.5897,6.5897,6.5897,6.5897,6.5897,6.5897,6.5897,6.5897,6.5897,6.5846,6.5793,6.5767,6.5646,6.5494,6.5465,6.5405,6.5413,6.5413,6.5413,6.5413,6.5413,6.5413,6.5283,6.4704,6.4331,6.3934,6.3354,6.3014,6.2805,6.2805,6.2805,6.2805,6.2805,6.2805,6.2805,6.2805,0.0,6.2805,6.2805,6.2805,6.2805,6.2805,6.2805,6.2805,6.2805,6.2805,6.2805,6.2805,6.2805,6.2805,6.2805,6.2805,6.2805,6.2805,6.2805,6.2805,6.2805,6.2603,6.2449,6.2433,6.2222,6.206,6.2005,6.2005,6.2005,6.2005,6.2005,6.2005,6.2005,6.2005,6.2005,6.2005,6.2005,6.2005,6.2005,6.2005,6.195,6.1895,7.1291,7.0595,6.9744,6.8932,6.8081,6.723,6.634,6.6185,6.6185,6.6185,6.6144,6.608,6.6013,6.6005,6.5972,6.5897,6.5897,6.5897,6.5897,6.5897,6.5897,6.5897,6.5897,6.5897,6.5897,6.5897,6.5897,6.5897,6.5897,6.5897,6.5897,6.5897,6.5897,6.5897,6.5897,6.5897,6.5897,6.5897,6.5897,6.5897,6.5897,6.5897,6.5897,6.5897,6.5897,6.5897,6.5897,6.5872,6.582,6.5793,6.574,6.559,6.5523,6.5435,6.5413,6.5413,6.5413,6.5413,6.5413,6.5413,6.5314,6.4917,6.4557,6.4174,6.3624,6.3252,6.3002,6.2805,6.2805,6.2805,6.2805,6.2805,6.2805,6.2805,6.2805,6.2805,6.2805,6.2805,6.2805,6.2805,6.2805,6.2805,6.2805,6.2805,6.2805,6.2805,6.2805,6.2805,6.2805,6.2805,6.2855,6.3014,6.2904,6.2855,6.3014,6.2755,6.2552,6.2433,6.2238,6.2114,6.2005,6.2005,6.2005,6.2005,6.2005,6.2005,6.2005,6.2005,6.2005,6.2005,6.2005,6.2005,6.2005,6.2005,6.2005,6.195,7.1291,7.0595,6.9744,6.8932,6.8081,6.723,6.634,6.6185,6.6185,6.6185,6.6144,6.608,6.6013,6.6005,6.5972,6.5897,6.5897,6.5897,6.5897,6.5897,6.5897,6.5897,6.5897,6.5897,6.5897,6.5897,6.5897,6.5897,6.5897,6.5897,6.5897,6.5897,6.5897,6.5897,6.5897,6.5897,6.5897,6.5897,6.5897,6.5897,6.5897,6.5897,6.5897,6.5897,6.5897,6.5897,6.5897,6.5897,6.5897,6.582,6.5793,6.5767,6.5552,6.5435,6.5413,6.5413,6.5413,6.5413,6.5413,6.5413,6.5314,6.4879,6.4775,6.4595,6.3712,6.349,6.3354,6.2904,6.2805,6.2805,6.2805,6.2805,6.2805,6.2805,6.2805,6.2805,6.2805,6.2805,6.2805,6.2805,6.2805,6.2805,6.2805,6.2805,6.2805,6.2805,6.2805,6.2805,6.2805,6.2805,6.3014,6.349,6.3062,6.3014,6.349,6.2917,6.2552,6.2433,6.2275,6.2114,6.2005,6.2005,6.2005,6.2005,6.2005,6.2005,6.2005,6.2005,6.2005,6.2005,6.2005,6.2005,6.2005,6.2005,6.2005,6.2005,7.1291,7.1098,7.0479,6.9048,6.8584,6.7926,6.6417,6.6185,6.6185,6.6185,6.6165,6.6144,6.608,6.6013,6.6005,6.5972,6.5923,6.5897,6.5897,6.5897,6.5897,6.5897,6.5897,6.5897,6.5897,6.5897,6.5897,6.5897,6.5897,6.5897,6.5897,6.5897,6.5897,6.5897,6.5897,6.5897,6.5897,6.5897,6.5897,6.5897,6.5897,6.5897,6.5897,6.5897,6.5897,6.5897,6.5897,6.5897,6.5897,6.5872,6.5846,6.5767,6.5552,6.5494,6.5465,6.5405,6.5413,6.5413,6.5413,6.5413,6.5345,6.5252,6.5019,6.4739,6.4445,6.4174,6.3888,6.3761,6.349,6.34,6.3674,6.3453,6.34,6.3674,6.349,6.3262,6.3262,6.3014,6.2805,6.2805,6.2805,6.2805,6.2805,6.2805,6.2805,6.2805,6.311,6.3262,6.3262,6.3543,6.3803,6.393,6.3803,6.3803,6.393,6.3121,6.2654,6.2552,6.2397,6.2275,6.2168,6.206,6.2005,6.2005,6.2005,6.2005,6.2005,6.2005,6.2005,6.2005,6.2005,6.2005,6.2005,6.2005,6.2005,6.2005,7.1291,7.1291,7.0866,6.9512,6.9009,6.8352,6.692,6.6417,6.6185,6.6185,6.6185,6.6165,6.6102,6.6036,6.599,6.602,6.5947,6.5897,6.5897,6.5897,6.5897,6.5897,6.5897,6.5897,6.5897,6.5897,6.5897,6.5897,6.5897,6.5897,6.5897,6.5897,6.5897,6.5897,6.5897,6.5897,6.5897,6.5897,6.5897,6.5897,6.5897,6.5897,6.5897,6.5897,6.5897,6.5897,6.5897,6.5897,6.5897,6.5897,6.5846,6.5767,6.5646,6.5552,6.5494,6.5435,6.5444,6.5413,6.5413,6.5413,6.5413,6.5413,6.522,6.5019,6.4848,6.4557,6.4331,6.4136,6.393,6.3803,6.4056,6.393,6.3803,6.4056,6.393,6.3718,6.3718,6.3498,6.3308,6.3308,6.3168,6.3062,6.3062,6.2904,6.2904,6.3062,6.3308,6.358,6.3718,6.3934,6.4176,6.4369,6.4176,6.4176,6.4369,6.3674,6.3224,6.3131,6.2831,6.2618,6.2464,6.2168,6.2005,6.2005,6.2005,6.2005,6.2005,6.2005,6.2005,6.2005,6.2005,6.2005,6.2005,6.2005,6.2005,6.2005,7.1291,7.1291,7.1021,7.0131,6.9319,6.8506,6.7617,6.6766,6.6185,6.6185,6.6185,6.6165,6.6123,6.6036,6.599,6.602,6.5947,6.5897,6.5897,6.5897,6.5897,6.5897,6.5897,6.5897,6.5897,6.5897,6.5897,6.5897,6.5897,6.5897,6.5897,6.5897,6.5897,6.5897,6.5897,6.5897,6.5897,6.5897,6.5897,6.5897,6.5897,6.5897,6.5897,6.5897,6.5897,6.5897,6.5897,6.5897,6.5897,6.5897,6.5846,6.5793,6.5793,6.5674,6.5523,6.5494,6.5435,6.5413,6.5413,6.5413,6.5413,6.5413,6.5413,6.5314,6.4951,6.4845,6.4739,6.4293,6.4176,6.4176,6.4215,6.4176,6.4176,6.4215,6.4176,6.4136,6.4136,6.4136,6.4096,6.4096,6.3761,6.349,6.349,6.311,6.3014,6.3445,6.358,6.3761,6.4136,6.4176,6.4407,6.481,6.4445,6.4445,6.4845,6.4445,6.4136,6.3896,6.3416,6.3084,6.294,6.236,6.2168,6.2078,6.2114,6.206,6.206,6.2005,6.2005,6.2005,6.2005,6.2005,6.2005,6.2005,6.2005,6.2005,7.1291,7.1291,7.1021,7.0131,6.9319,6.8506,6.7617,6.6766,6.6185,6.6185,6.6185,6.6185,6.6165,6.608,6.599,6.599,6.5933,6.5897,6.5897,6.5897,6.5897,6.5897,6.5897,6.5897,6.5897,6.5897,6.5897,6.5897,6.5897,6.5897,6.5897,6.5897,6.5897,6.5897,6.5897,6.5897,6.5897,6.5897,6.5897,6.5897,6.5897,6.5897,6.5897,6.5897,6.5897,6.5897,6.5897,6.5897,6.5897,6.5897,6.5897,6.5872,6.582,6.5767,6.5674,6.5523,6.5494,6.5465,6.5405,6.5413,6.5413,6.5413,6.5413,6.5383,6.5283,6.5283,6.5252,6.515,6.4879,6.4739,6.5085,6.4845,6.4739,6.5085,6.4845,6.4668,6.4668,6.4331,6.4096,6.4096,6.3761,6.349,6.349,6.34,6.34,6.349,6.4134,6.4558,6.4668,6.4947,6.515,6.5283,6.515,6.515,6.5283,6.515,6.4737,6.4056,6.3766,6.3631,6.3587,6.3234,6.3094,6.3094,6.2695,6.2581,6.253,6.2132,6.2005,6.2005,6.2005,6.2005,6.2005,6.2005,6.2005,6.195,7.1291,7.1291,7.1175,7.0711,6.9938,6.9087,6.8236,6.7384,6.6688,6.6263,6.6185,6.6185,6.6185,6.6102,6.6036,6.6005,6.5947,6.5897,6.5897,6.5897,6.5897,6.5897,6.5897,6.5897,6.5897,6.5897,6.5897,6.5897,6.5897,6.5897,6.5897,6.5897,6.5897,6.5897,6.5897,6.5897,6.5897,6.5897,6.5897,6.5897,6.5897,6.5897,6.5897,6.5897,6.5897,6.5897,6.5897,6.5897,6.5974,6.632,6.6474,6.6551,6.6922,6.7011,6.6984,6.6863,6.6778,6.6719,6.6697,6.6629,6.6483,6.6139,6.6025,6.591,6.549,6.5413,6.5413,6.5413,6.5252,6.515,6.5345,6.5252,6.5188,6.5383,6.522,6.5085,6.5085,6.4879,6.4701,6.4701,6.4174,6.3718,6.3535,6.3674,6.3888,6.4094,6.4558,6.4879,6.5085,6.5283,6.5413,6.5413,6.5413,6.5413,6.5413,6.5413,6.515,6.4701,6.4369,6.4136,6.4056,6.368,6.3461,6.3334,6.2903,6.2695,6.2645,6.2185,6.2005,6.2005,6.2005,6.2005,6.2005,6.2005,6.2005,6.195,7.1291,7.1291,7.1291,7.1291,7.0556,6.9744,6.8932,6.8081,6.7191,6.6301,6.6185,6.6185,6.6185,6.6144,6.6058,6.602,6.5947,6.5923,6.5897,6.5897,6.5897,6.5897,6.5897,6.5897,6.5897,6.5897,6.5897,6.5897,6.5897,6.5897,6.5897,6.5897,6.5897,6.5897,6.5897,6.5897,6.5897,6.5897,6.5897,6.5897,6.5897,6.5897,6.5897,6.5897,6.5974,6.609,6.609,6.6205,6.6436,6.709,6.7321,6.7436,6.8167,6.8345,6.8317,6.8317,6.8206,6.8157,6.8127,6.8028,6.7775,6.7095,6.6904,6.6713,6.5987,6.5605,6.5413,6.5413,6.5413,6.5413,6.5413,6.5413,6.5413,6.5413,6.5413,6.5413,6.5413,6.5413,6.5413,6.5413,6.4701,6.4094,6.3631,6.3971,6.4369,6.4775,6.4845,6.5052,6.5413,6.5413,6.5413,6.5413,6.5413,6.5413,6.5413,6.5413,6.5413,6.5375,6.4947,6.4666,6.4557,6.4056,6.3766,6.368,6.3141,6.2988,6.294,6.236,6.2078,6.2078,6.2005,6.2005,6.2005,6.2005,6.2005,6.195,7.1291,7.1291,7.1291,7.1291,7.0556,6.9744,6.8932,6.8081,6.7191,6.6301,6.6185,6.6185,6.6185,6.6144,6.6058,6.602,6.5996,6.5972,6.5897,6.5897,6.5897,6.5897,6.5897,6.5897,6.5897,6.5897,6.5897,6.5897,6.5897,6.5897,6.5897,6.5897,6.5897,6.5897,6.5897,6.5897,6.5897,6.5897,6.5897,6.5897,6.5897,6.5897,6.5897,6.5897,6.632,6.6936,6.6936,6.7436,6.809,6.8205,6.8244,6.8244,6.8359,6.8398,6.8371,6.8317,6.829,6.8234,6.8157,6.8097,6.8028,6.7814,6.7744,6.7706,6.7591,6.6445,6.5413,6.5413,6.5413,6.5413,6.5413,6.5413,6.5413,6.5413,6.5413,6.5413,6.5413,6.5413,6.5413,6.5413,6.4985,6.452,6.4056,6.4445,6.4739,6.4775,6.5117,6.5345,6.5413,6.5413,6.5413,6.5413,6.5413,6.5413,6.5413,6.5413,6.5413,6.5413,6.5314,6.5252,6.5155,6.4917,6.4813,6.4741,6.4212,6.4009,6.3925,6.2988,6.2631,6.2544,6.2132,6.2005,6.2005,6.2005,6.2005,6.195,7.1291,7.1291,7.1291,7.1291,7.0982,7.044,6.9589,6.9125,6.8429,6.7114,6.692,6.6727,6.6263,6.62,6.6135,6.6005,6.6035,6.6024,6.5897,6.5897,6.5897,6.5897,6.5897,6.5897,6.5897,6.5897,6.5897,6.5897,6.5897,6.5897,6.5897,6.5897,6.5897,6.5897,6.5897,6.5897,6.5897,6.5897,6.6167,6.6551,6.6551,6.6859,6.7321,6.7321,6.7513,6.7821,6.7821,6.809,6.8475,6.8975,6.9129,6.9206,6.9667,6.9821,6.9783,6.9756,6.9701,6.9673,6.9625,6.9596,6.9421,6.8855,6.874,6.8625,6.8165,6.7514,6.6795,6.6246,6.5749,6.5435,6.5413,6.5413,6.5413,6.5413,6.5413,6.5413,6.5413,6.5413,6.5314,6.5085,6.5085,6.4985,6.452,6.4879,6.5117,6.5117,6.5283,6.5413,6.5413,6.5413,6.5413,6.5413,6.5413,6.5413,6.5413,6.5413,6.5413,6.5413,6.5413,6.5383,6.529,6.5194,6.5128,6.4955,6.4483,6.4251,6.4131,6.3371,6.3094,6.3047,6.2581,6.2238,6.2005,6.2005,6.2005,6.195]},{"header":{"parameterUnit":"m.s-1","parameterCategory":1,"la1":30.6,"la2":28.766,"lo1":-90.7593,"lo2":-88.6598,"dy":0.0162,"dx":0.0183,"nx":116,"ny":114,"refTime":"2023-04-13T00:00:00:Z","depth":0,"parameterNumber":3,"parameterNumberName":"V-component_of_WINDS"},"data":[0.0,0.0,0.0,0.0,0.0,0.0,0.0,0.0,0.0,0.0,0.0,0.0,0.0,0.0,0.0,0.0,0.0,0.0,0.0,0.0,0.0,0.0,0.0,0.0,0.0,0.0,0.0,0.0,0.0,0.0,0.0,0.0,0.0,0.0,0.0,0.0,0.0,0.0,0.0,0.0,0.0,0.0,0.0,0.0,0.0,0.0,0.0,0.0,0.0,0.0,0.0,0.0,0.0,0.0,0.0,0.0,0.0,0.0,0.0,0.0,0.0,0.0,0.0,0.0,0.0,0.0,0.0,0.0,0.0,0.0,0.0,0.0,0.0,0.0,0.0,0.0,0.0,0.0,0.0,0.0,0.0,0.0,0.0,0.0,0.0,0.0,0.0,0.0,0.0,0.0,0.0,0.0,0.0,0.0,0.0,0.0,0.0,0.0,0.0,0.0,0.0,0.0,0.0,0.0,0.0,0.0,0.0,0.0,0.0,0.0,0.0,0.0,0.0,0.0,0.0,0.0,0.0,0.0,0.0,0.0,0.0,0.0,0.0,0.0,0.0,0.0,0.0,0.0,0.0,0.0,0.0,0.0,0.0,0.0,0.0,0.0,0.0,0.0,0.0,0.0,0.0,0.0,0.0,0.0,0.0,0.0,0.0,0.0,0.0,0.0,0.0,0.0,0.0,0.0,0.0,0.0,0.0,0.0,0.0,0.0,0.0,0.0,0.0,0.0,0.0,0.0,0.0,0.0,0.0,0.0,0.0,0.0,0.0,0.0,0.0,0.0,0.0,0.0,0.0,0.0,0.0,0.0,0.0,0.0,0.0,0.0,0.0,0.0,0.0,0.0,0.0,0.0,0.0,0.0,0.0,0.0,0.0,0.0,0.0,0.0,0.0,0.0,0.0,0.0,0.0,0.0,0.0,0.0,0.0,0.0,0.0,0.0,0.0,0.0,0.0,0.0,0.0,0.0,0.0,0.0,0.0,0.0,0.0,0.0,0.0,0.0,0.0,0.0,0.0,0.0,0.0,0.0,0.0,0.0,0.0,0.0,0.0,0.0,0.0,0.0,0.0,0.0,0.0,0.0,0.0,0.0,0.0,0.0,0.0,0.0,0.0,0.0,0.0,0.0,0.0,0.0,0.0,0.0,0.0,0.0,0.0,0.0,0.0,0.0,0.0,0.0,0.0,0.0,0.0,0.0,0.0,0.0,0.0,0.0,0.0,0.0,0.0,0.0,0.0,0.0,0.0,0.0,0.0,0.0,0.0,0.0,0.0,0.0,0.0,0.0,0.0,0.0,0.0,0.0,0.0,0.0,0.0,0.0,0.0,0.0,0.0,0.0,0.0,0.0,0.0,0.0,0.0,0.0,0.0,0.0,0.0,0.0,0.0,0.0,0.0,0.0,0.0,0.0,0.0,0.0,0.0,0.0,0.0,0.0,0.0,0.0,0.0,0.0,0.0,0.0,0.0,0.0,0.0,0.0,0.0,0.0,0.0,0.0,0.0,0.0,0.0,0.0,0.0,0.0,0.0,0.0,0.0,0.0,0.0,0.0,0.0,0.0,0.0,0.0,0.0,0.0,0.0,0.0,0.0,0.0,0.0,0.0,0.0,0.0,0.0,0.0,0.0,0.0,0.0,0.0,0.0,0.0,0.0,0.0,0.0,0.0,0.0,0.0,0.0,0.0,0.0,0.0,0.0,0.0,0.0,0.0,0.0,0.0,0.0,0.0,0.0,0.0,0.0,0.0,0.0,0.0,0.0,0.0,0.0,0.0,0.0,0.0,0.0,0.0,0.0,0.0,0.0,0.0,0.0,0.0,0.0,0.0,0.0,0.0,0.0,0.0,0.0,0.0,0.0,0.0,0.0,0.0,0.0,0.0,0.0,0.0,0.0,0.0,0.0,0.0,0.0,0.0,0.0,0.0,0.0,0.0,0.0,0.0,0.0,0.0,0.0,0.0,0.0,0.0,0.0,0.0,0.0,0.0,0.0,0.0,0.0,0.0,0.0,0.0,0.0,0.0,0.0,0.0,0.0,0.0,0.0,0.0,0.0,0.0,0.0,0.0,0.0,0.0,0.0,0.0,0.0,0.0,0.0,0.0,0.0,0.0,0.0,0.0,0.0,0.0,0.0,0.0,0.0,0.0,0.0,0.0,0.0,0.0,0.0,0.0,0.0,0.0,0.0,0.0,0.0,0.0,0.0,0.0,0.0,0.0,0.0,0.0,0.0,0.0,0.0,0.0,0.0,0.0,0.0,0.0,0.0,0.0,0.0,0.0,0.0,0.0,0.0,0.0,0.0,0.0,0.0,0.0,0.0,0.0,0.0,0.0,0.0,0.0,0.0,0.0,0.0,0.0,0.0,0.0,0.0,0.0,0.0,0.0,0.0,0.0,0.0,0.0,0.0,0.0,0.0,0.0,0.0,0.0,0.0,0.0,0.0,0.0,0.0,0.0,0.0,0.0,0.0,0.0,0.0,0.0,0.0,0.0,0.0,0.0,0.0,0.0,0.0,0.0,0.0,0.0,0.0,0.0,0.0,0.0,0.0,0.0,0.0,0.0,0.0,0.0,0.0,0.0,0.0,0.0,0.0,0.0,0.0,0.0,0.0,0.0,0.0,0.0,0.0,0.0,0.0,0.0,0.0,0.0,0.0,0.0,0.0,0.0,0.0,0.0,0.0,0.0,0.0,0.0,0.0,0.0,0.0,0.0,0.0,0.0,0.0,0.0,0.0,0.0,0.0,0.0,0.0,0.0,0.0,0.0,0.0,0.0,0.0,0.0,0.0,0.0,0.0,0.0,0.0,0.0,0.0,0.0,0.0,0.0,0.0,0.0,0.0,0.0,0.0,0.0,0.0,0.0,0.0,0.0,0.0,0.0,0.0,0.0,0.0,0.0,0.0,0.0,0.0,0.0,0.0,0.0,0.0,0.0,0.0,0.0,0.0,0.0,0.0,0.0,0.0,0.0,0.0,0.0,0.0,0.0,0.0,0.0,0.0,0.0,0.0,0.0,0.0,0.0,0.0,0.0,0.0,0.0,0.0,0.0,0.0,0.0,0.0,0.0,0.0,0.0,0.0,0.0,0.0,0.0,0.0,0.0,0.0,0.0,0.0,0.0,0.0,0.0,0.0,0.0,0.0,0.0,0.0,0.0,0.0,0.0,0.0,0.0,0.0,0.0,0.0,0.0,0.0,0.0,0.0,0.0,0.0,0.0,0.0,0.0,0.0,0.0,0.0,0.0,0.0,0.0,0.0,0.0,0.0,0.0,0.0,0.0,0.0,0.0,0.0,0.0,0.0,0.0,0.0,0.0,0.0,0.0,0.0,0.0,0.0,0.0,0.0,0.0,0.0,0.0,0.0,0.0,0.0,0.0,0.0,0.0,0.0,0.0,0.0,0.0,0.0,0.0,0.0,0.0,0.0,0.0,0.0,0.0,0.0,0.0,0.0,0.0,0.0,0.0,0.0,0.0,0.0,0.0,0.0,0.0,0.0,0.0,0.0,0.0,0.0,0.0,0.0,0.0,0.0,0.0,0.0,0.0,0.0,0.0,0.0,0.0,0.0,0.0,0.0,0.0,0.0,0.0,0.0,0.0,0.0,0.0,0.0,0.0,0.0,0.0,0.0,0.0,0.0,0.0,0.0,0.0,0.0,0.0,0.0,0.0,0.0,0.0,0.0,0.0,0.0,0.0,0.0,0.0,0.0,0.0,0.0,0.0,0.0,0.0,0.0,0.0,0.0,0.0,0.0,0.0,0.0,0.0,0.0,0.0,0.0,0.0,0.0,0.0,0.0,0.0,0.0,0.0,0.0,0.0,0.0,0.0,0.0,0.0,0.0,0.0,0.0,0.0,0.0,0.0,0.0,0.0,0.0,0.0,0.0,0.0,0.0,0.0,0.0,0.0,0.0,0.0,0.0,0.0,0.0,0.0,0.0,0.0,0.0,0.0,0.0,0.0,0.0,0.0,0.0,0.0,0.0,0.0,0.0,0.0,0.0,0.0,0.0,0.0,0.0,0.0,0.0,0.0,0.0,0.0,0.0,0.0,0.0,0.0,0.0,0.0,0.0,0.0,0.0,0.0,0.0,0.0,0.0,0.0,0.0,0.0,0.0,0.0,0.0,0.0,0.0,0.0,0.0,0.0,0.0,0.0,0.0,0.0,0.0,0.0,0.0,0.0,0.0,0.0,0.0,0.0,0.0,0.0,0.0,0.0,0.0,0.0,0.0,0.0,0.0,0.0,0.0,0.0,0.0,0.0,0.0,0.0,0.0,0.0,0.0,0.0,0.0,0.0,0.0,0.0,0.0,0.0,0.0,0.0,0.0,0.0,0.0,0.0,0.0,0.0,0.0,0.0,0.0,0.0,0.0,0.0,0.0,0.0,0.0,0.0,0.0,0.0,0.0,0.0,0.0,0.0,0.0,0.0,0.0,0.0,0.0,0.0,0.0,0.0,0.0,0.0,0.0,0.0,0.0,0.0,0.0,0.0,0.0,0.0,0.0,0.0,0.0,0.0,0.0,0.0,0.0,0.0,0.0,0.0,0.0,0.0,0.0,0.0,0.0,0.0,0.0,0.0,0.0,0.0,0.0,0.0,0.0,0.0,0.0,0.0,0.0,0.0,0.0,0.0,0.0,0.0,0.0,0.0,0.0,0.0,0.0,0.0,0.0,0.0,0.0,0.0,0.0,0.0,0.0,0.0,0.0,0.0,0.0,0.0,0.0,0.0,0.0,0.0,0.0,0.0,0.0,0.0,0.0,0.0,0.0,0.0,0.0,0.0,0.0,0.0,0.0,0.0,0.0,0.0,0.0,0.0,0.0,0.0,0.0,0.0,0.0,0.0,0.0,0.0,0.0,0.0,0.0,0.0,0.0,0.0,0.0,0.0,0.0,0.0,0.0,0.0,0.0,0.0,0.0,0.0,0.0,0.0,0.0,0.0,0.0,0.0,0.0,0.0,0.0,0.0,0.0,0.0,0.0,0.0,0.0,0.0,0.0,0.0,0.0,0.0,0.0,0.0,0.0,0.0,0.0,0.0,0.0,0.0,0.0,0.0,0.0,0.0,0.0,0.0,0.0,0.0,0.0,0.0,0.0,0.0,0.0,0.0,0.0,0.0,0.0,0.0,0.0,0.0,0.0,0.0,0.0,0.0,0.0,0.0,0.0,0.0,0.0,0.0,0.0,0.0,0.0,0.0,0.0,0.0,0.0,0.0,0.0,0.0,0.0,0.0,0.0,0.0,0.0,0.0,0.0,0.0,0.0,0.0,0.0,0.0,0.0,0.0,0.0,0.0,0.0,0.0,0.0,0.0,0.0,0.0,0.0,0.0,0.0,0.0,0.0,0.0,0.0,0.0,0.0,0.0,0.0,0.0,0.0,0.0,0.0,0.0,0.0,0.0,0.0,0.0,0.0,0.0,0.0,0.0,0.0,0.0,0.0,0.0,0.0,0.0,0.0,0.0,0.0,0.0,0.0,0.0,0.0,0.0,0.0,0.0,0.0,0.0,0.0,0.0,0.0,0.0,0.0,0.0,0.0,0.0,0.0,0.0,0.0,0.0,0.0,0.0,0.0,0.0,0.0,0.0,0.0,0.0,0.0,0.0,0.0,0.0,0.0,0.0,0.0,0.0,0.0,0.0,0.0,0.0,0.0,0.0,0.0,0.0,0.0,0.0,0.0,0.0,0.0,0.0,0.0,0.0,0.0,0.0,0.0,0.0,0.0,0.0,0.0,0.0,0.0,0.0,0.0,0.0,0.0,0.0,0.0,0.0,0.0,0.0,0.0,0.0,0.0,0.0,0.0,0.0,0.0,0.0,0.0,0.0,0.0,0.0,0.0,0.0,0.0,0.0,0.0,0.0,0.0,0.0,0.0,0.0,0.0,0.0,0.0,0.0,0.0,0.0,0.0,0.0,0.0,0.0,0.0,0.0,0.0,0.0,0.0,0.0,0.0,0.0,0.0,0.0,0.0,0.0,0.0,0.0,0.0,0.0,0.0,0.0,0.0,0.0,0.0,0.0,0.0,0.0,0.0,0.0,0.0,0.0,0.0,0.0,0.0,0.0,0.0,0.0,0.0,0.0,0.0,0.0,0.0,0.0,0.0,0.0,-4.2986,0.0,0.0,0.0,0.0,0.0,0.0,0.0,0.0,0.0,0.0,0.0,0.0,0.0,0.0,0.0,0.0,0.0,0.0,0.0,0.0,0.0,0.0,0.0,0.0,0.0,0.0,0.0,0.0,0.0,0.0,0.0,0.0,0.0,0.0,0.0,0.0,0.0,0.0,0.0,0.0,0.0,0.0,0.0,0.0,0.0,0.0,0.0,0.0,0.0,0.0,0.0,0.0,0.0,0.0,0.0,0.0,0.0,0.0,0.0,0.0,0.0,0.0,0.0,0.0,0.0,0.0,0.0,0.0,0.0,0.0,0.0,0.0,0.0,0.0,0.0,0.0,0.0,0.0,0.0,0.0,0.0,0.0,0.0,0.0,0.0,0.0,0.0,0.0,0.0,0.0,0.0,0.0,0.0,0.0,0.0,0.0,0.0,0.0,0.0,0.0,0.0,0.0,0.0,0.0,0.0,0.0,0.0,0.0,0.0,0.0,0.0,0.0,0.0,0.0,0.0,0.0,-4.2986,0.0,0.0,0.0,0.0,0.0,0.0,0.0,0.0,0.0,0.0,0.0,0.0,0.0,0.0,0.0,0.0,0.0,0.0,0.0,0.0,0.0,0.0,0.0,0.0,-3.3058,-3.3165,-3.3292,-3.3165,0.0,0.0,0.0,0.0,0.0,0.0,0.0,0.0,0.0,0.0,0.0,0.0,0.0,0.0,0.0,0.0,0.0,0.0,0.0,0.0,0.0,0.0,0.0,0.0,0.0,0.0,0.0,0.0,0.0,0.0,0.0,0.0,0.0,0.0,0.0,0.0,0.0,0.0,0.0,0.0,0.0,0.0,0.0,0.0,0.0,0.0,0.0,0.0,0.0,0.0,0.0,0.0,0.0,0.0,0.0,0.0,0.0,0.0,0.0,0.0,0.0,0.0,0.0,0.0,0.0,0.0,0.0,0.0,0.0,0.0,0.0,0.0,0.0,0.0,0.0,0.0,0.0,0.0,0.0,0.0,-4.2986,-4.2986,-4.2986,-4.2986,-4.2986,-4.2986,-4.2986,-4.2986,-4.2986,0.0,0.0,0.0,0.0,0.0,0.0,0.0,0.0,0.0,0.0,0.0,0.0,0.0,0.0,0.0,0.0,0.0,0.0,0.0,0.0,0.0,0.0,-3.2912,-3.2804,-3.2549,-3.2804,-3.2804,0.0,0.0,0.0,0.0,0.0,0.0,0.0,0.0,0.0,0.0,0.0,0.0,-3.3292,-3.3418,-3.3418,-3.3418,-3.3418,0.0,0.0,0.0,0.0,0.0,0.0,0.0,0.0,0.0,0.0,0.0,0.0,0.0,0.0,0.0,0.0,0.0,0.0,0.0,0.0,0.0,0.0,0.0,0.0,0.0,0.0,0.0,0.0,0.0,0.0,0.0,0.0,0.0,0.0,0.0,0.0,0.0,0.0,0.0,0.0,0.0,0.0,0.0,-3.9474,-4.0803,0.0,0.0,0.0,0.0,0.0,0.0,0.0,0.0,0.0,0.0,0.0,0.0,0.0,-4.2986,-4.2986,-4.2986,-4.2986,-4.2986,-4.2986,-4.2986,-4.2986,-4.2986,-4.2986,-4.2986,-4.2986,0.0,-4.2986,-4.2986,0.0,0.0,0.0,0.0,0.0,0.0,0.0,0.0,0.0,0.0,0.0,0.0,0.0,0.0,0.0,0.0,0.0,0.0,0.0,0.0,0.0,-3.2785,-3.2676,-3.2676,-3.2676,-3.2422,-3.2166,-3.2549,0.0,0.0,0.0,0.0,0.0,0.0,0.0,0.0,-3.3038,-3.3165,-3.3165,-3.3292,-3.3418,-3.3418,-3.3418,-3.3418,-3.3418,-3.3418,0.0,0.0,0.0,0.0,0.0,0.0,0.0,0.0,0.0,0.0,0.0,0.0,0.0,0.0,0.0,0.0,0.0,0.0,0.0,0.0,0.0,0.0,0.0,0.0,0.0,0.0,0.0,0.0,0.0,0.0,0.0,0.0,0.0,0.0,0.0,0.0,0.0,0.0,0.0,-3.7429,-3.8885,-4.0942,-4.1172,-4.1172,0.0,0.0,0.0,0.0,0.0,0.0,0.0,0.0,0.0,-4.2986,-4.2986,-4.2986,-4.2986,-4.2986,-4.2986,-4.2986,-4.2986,-4.2986,-4.2986,-4.2986,-4.2986,-4.2986,-4.2986,-4.2986,-4.2986,-4.2986,-4.2986,-4.2986,0.0,0.0,0.0,0.0,-4.2986,-4.2986,0.0,0.0,0.0,0.0,0.0,0.0,0.0,0.0,0.0,0.0,0.0,0.0,-3.3038,-3.2676,-3.2294,-3.253,-3.2422,-3.2166,-3.1782,-3.2294,0.0,0.0,0.0,0.0,0.0,0.0,0.0,-3.3038,-3.3165,-3.3165,-3.3038,-3.3292,-3.3418,-3.3418,-3.3418,-3.3418,-3.3418,-3.3418,-3.3418,-3.3418,0.0,0.0,0.0,0.0,0.0,0.0,0.0,0.0,0.0,0.0,0.0,0.0,0.0,0.0,0.0,0.0,0.0,0.0,0.0,0.0,0.0,0.0,0.0,0.0,0.0,0.0,0.0,0.0,0.0,0.0,0.0,0.0,0.0,0.0,0.0,0.0,0.0,-3.755,-3.8625,-4.0942,-4.1287,-4.1287,0.0,0.0,0.0,0.0,0.0,0.0,-4.2986,-4.2986,-4.2986,-4.2986,-4.2986,-4.2986,-4.2986,-4.2986,-4.2986,-4.2986,-4.2986,-4.2986,-4.2986,-4.2986,-4.2986,-4.2986,-4.2986,-4.2986,-4.2986,-4.2986,-4.2986,-4.2986,-4.2986,-4.2986,-4.2986,-4.2986,-4.2986,-4.3098,0.0,0.0,0.0,0.0,0.0,0.0,0.0,0.0,0.0,0.0,0.0,-3.2804,-3.2422,-3.2166,-3.1782,-3.1506,-3.1782,-3.1782,-3.1506,-3.2275,-3.2676,-3.2422,0.0,0.0,0.0,0.0,0.0,-3.3418,-3.3038,-3.3038,-3.3418,-3.3418,-3.3418,-3.3418,-3.3418,-3.3418,-3.3418,-3.3418,-3.3418,-3.3418,-3.3418,0.0,0.0,0.0,0.0,0.0,0.0,0.0,0.0,0.0,0.0,0.0,0.0,0.0,0.0,0.0,0.0,0.0,0.0,0.0,0.0,0.0,0.0,0.0,0.0,0.0,0.0,0.0,0.0,0.0,0.0,0.0,0.0,0.0,0.0,0.0,0.0,0.0,0.0,-4.1057,-4.1402,0.0,0.0,0.0,0.0,-4.2513,-4.2762,-4.2986,-4.2986,-4.2986,-4.2986,-4.2986,-4.2986,-4.2986,-4.2986,-4.2986,-4.2986,-4.2986,-4.2986,-4.2986,-4.2986,-4.2986,-4.2986,-4.2986,-4.2986,-4.2986,-4.2986,-4.2986,-4.2986,-4.2986,-4.2986,-4.2986,-4.2986,-4.2986,-4.2986,-4.3098,0.0,0.0,0.0,0.0,0.0,0.0,0.0,0.0,-3.3038,-3.3038,-3.2549,-3.2294,-3.2422,-3.191,-3.1653,-3.1653,-3.1653,-3.1506,-3.1377,-3.2147,-3.2422,-3.2038,0.0,0.0,0.0,0.0,-3.3038,-3.3418,-3.3292,-3.3292,-3.3418,-3.3418,-3.3418,-3.3418,-3.3418,-3.3418,-3.3418,-3.3418,-3.3418,-3.3418,-3.3418,-3.3418,0.0,0.0,0.0,0.0,0.0,0.0,0.0,0.0,0.0,0.0,0.0,0.0,0.0,0.0,0.0,0.0,0.0,0.0,0.0,0.0,0.0,0.0,0.0,0.0,0.0,0.0,0.0,0.0,0.0,0.0,0.0,0.0,0.0,0.0,0.0,0.0,0.0,-4.1263,-4.1745,0.0,-4.1972,-4.2312,-4.2513,-4.2513,-4.2849,-4.2986,-4.2986,-4.2986,-4.2986,-4.2986,-4.2986,-4.2986,-4.2986,-4.2986,-4.2986,-4.2986,-4.2986,-4.2986,-4.2986,-4.2986,-4.2986,-4.2986,-4.2986,-4.2986,-4.2986,-4.2986,-4.2986,-4.2986,-4.2986,-4.2986,-4.2986,-4.3184,-4.3295,-4.3295,0.0,0.0,0.0,0.0,0.0,0.0,0.0,0.0,-3.2912,-3.2912,-3.2294,-3.191,-3.2166,-3.1763,-3.1506,-3.1653,-3.1506,-3.1506,-3.1525,-3.2038,-3.2294,-3.2294,-3.2912,0.0,0.0,-3.3165,-3.3165,-3.3418,-3.3418,-3.3418,-3.3418,-3.3418,-3.3418,-3.3418,-3.3418,-3.3418,-3.3418,-3.3418,-3.3418,-3.3418,-3.3418,-3.3418,-3.3418,0.0,0.0,0.0,0.0,0.0,0.0,0.0,0.0,0.0,0.0,0.0,0.0,0.0,0.0,0.0,0.0,0.0,0.0,0.0,0.0,0.0,0.0,0.0,0.0,0.0,0.0,0.0,0.0,0.0,0.0,0.0,0.0,0.0,0.0,0.0,-4.0268,-4.1606,-4.2086,-4.2199,-4.2199,-4.2538,-4.265,-4.265,-4.2849,-4.2986,-4.2986,-4.2986,-4.2986,-4.2986,-4.2986,-4.2986,-4.2986,-4.2986,-4.2986,-4.2986,-4.2986,-4.2986,-4.2986,-4.2986,-4.2986,-4.2986,-4.2986,-4.2986,-4.2986,-4.2986,-4.2986,-4.2986,-4.2986,-4.2986,-4.2986,-4.3184,-4.3295,-4.3517,0.0,0.0,0.0,0.0,0.0,0.0,0.0,-3.3038,-3.2912,-3.2931,-3.2294,-3.1929,-3.1929,-3.1635,-3.1377,-3.1377,-3.1377,-3.1506,-3.1929,-3.2166,-3.2549,-3.2912,0.0,0.0,-3.2931,-3.3165,-3.3418,-3.3418,-3.3418,-3.3418,-3.3418,-3.3418,-3.3418,-3.3418,-3.3418,-3.3418,-3.3418,-3.3418,-3.3418,-3.3418,-3.3418,-3.3418,-3.3418,0.0,0.0,0.0,0.0,0.0,0.0,0.0,0.0,0.0,0.0,0.0,0.0,0.0,0.0,0.0,0.0,0.0,0.0,0.0,0.0,0.0,0.0,0.0,0.0,0.0,0.0,0.0,0.0,0.0,0.0,0.0,0.0,0.0,-3.9779,-4.0036,-4.0639,-4.1972,-4.2312,-4.2513,-4.2513,-4.2849,-4.2986,-4.2986,-4.2986,-4.2986,-4.2986,-4.2986,-4.2986,-4.2986,-4.2986,-4.2986,-4.2986,-4.2986,-4.2986,-4.2986,-4.2986,-4.2986,-4.2986,-4.2986,-4.2986,-4.2986,-4.2986,-4.2986,-4.2986,-4.2986,-4.2986,-4.2986,-4.2986,-4.2986,-4.2986,-4.2986,-4.3184,-4.3517,0.0,0.0,0.0,0.0,0.0,0.0,0.0,-3.2549,-3.2422,-3.2166,-3.2038,-3.1782,-3.1506,-3.1506,-3.1377,-3.1377,-3.1377,-3.1506,-3.1929,-3.2057,-3.2294,-3.2931,0.0,0.0,-3.3292,-3.3165,-3.3165,-3.3418,-3.3418,-3.3418,-3.3418,-3.3418,-3.3418,-3.3418,-3.3418,-3.3418,-3.3418,-3.3418,-3.3418,-3.3418,-3.3418,-3.3418,-3.3418,0.0,0.0,0.0,0.0,0.0,0.0,0.0,0.0,0.0,0.0,0.0,0.0,0.0,0.0,0.0,0.0,0.0,0.0,0.0,0.0,0.0,0.0,0.0,0.0,0.0,0.0,0.0,0.0,0.0,0.0,0.0,0.0,-4.0036,-4.1009,-4.1353,-4.1745,-4.211,-4.2538,-4.2874,-4.2874,-4.2986,-4.2986,-4.2986,-4.2986,-4.2986,-4.2986,-4.2986,-4.2986,-4.2986,-4.2986,-4.2986,-4.2986,-4.2986,-4.2986,-4.2986,-4.2986,-4.2986,-4.2986,-4.2986,-4.2986,-4.2986,-4.2986,-4.2986,-4.2986,-4.2986,-4.2986,-4.2986,-4.2986,-4.3073,-4.3295,-4.3543,-4.3984,-4.4396,0.0,0.0,0.0,0.0,0.0,0.0,0.0,-3.2294,-3.2166,-3.191,-3.1782,-3.1653,-3.1377,-3.1377,-3.1377,-3.1377,-3.1377,-3.1506,-3.1929,-3.2038,-3.2166,-3.2422,0.0,-3.2549,-3.2804,-3.2804,-3.3038,-3.3165,-3.3292,-3.3418,-3.3418,-3.3418,-3.3418,-3.3418,-3.3418,-3.3418,-3.3418,-3.3418,-3.3418,-3.3418,-3.3418,-3.3418,-3.3418,-3.3418,-3.3418,-3.3418,-3.3418,-3.3418,-3.3418,-3.3418,0.0,0.0,0.0,0.0,0.0,0.0,0.0,0.0,0.0,0.0,0.0,0.0,0.0,0.0,0.0,0.0,0.0,0.0,0.0,0.0,0.0,0.0,0.0,0.0,-3.9686,-4.0894,-4.1492,-4.1859,-4.2224,-4.2425,-4.265,-4.2874,-4.2986,-4.2986,-4.2986,-4.2986,-4.2986,-4.2986,-4.2986,-4.2986,-4.2986,-4.2986,-4.2986,-4.2986,-4.2986,-4.2986,-4.2986,-4.2986,-4.2986,-4.2986,-4.2986,-4.2986,-4.2986,0.0,-4.2986,-4.2986,-4.2986,-4.2986,-4.2986,0.0,0.0,0.0,0.0,0.0,-4.4203,-4.4531,0.0,0.0,0.0,0.0,0.0,0.0,0.0,-3.2038,-3.1782,-3.1782,-3.1525,-3.1377,-3.1377,-3.1377,-3.1377,-3.1377,-3.1377,-3.1506,-3.1782,-3.2166,-3.2166,-3.191,-3.2166,-3.2294,-3.2038,-3.2549,-3.2931,-3.2931,-3.3292,-3.3418,-3.3418,-3.3418,-3.3418,-3.3418,-3.3418,-3.3418,-3.3418,-3.3418,-3.3418,-3.3418,-3.3418,-3.3418,-3.3418,-3.3418,-3.3418,-3.3418,-3.3418,-3.3418,-3.3418,-3.3544,0.0,0.0,0.0,0.0,0.0,0.0,0.0,0.0,0.0,0.0,0.0,0.0,0.0,0.0,0.0,0.0,0.0,0.0,0.0,0.0,0.0,0.0,0.0,0.0,-4.1009,-4.1859,-4.172,-4.1859,-4.2199,-4.2874,-4.2762,-4.2625,-4.2986,-4.2986,-4.2986,-4.2986,-4.2986,-4.2986,-4.2986,0.0,0.0,0.0,0.0,-4.2986,-4.2986,-4.2986,-4.2986,-4.2986,-4.2986,-4.2986,-4.2986,-4.2986,-4.2986,-4.2986,-4.2986,-4.2986,-4.2986,-4.2986,-4.3098,-4.3098,-4.3406,-4.3517,-4.3628,-4.4287,-4.4531,-4.4613,0.0,0.0,0.0,0.0,0.0,0.0,0.0,-3.1506,-3.1506,-3.1506,-3.1377,-3.1377,-3.1377,-3.1377,-3.1377,-3.1377,-3.1377,-3.1377,-3.1506,-3.1782,-3.191,-3.1929,-3.191,-3.2166,-3.2676,-3.2804,-3.3038,-3.3292,-3.3418,-3.3418,-3.3418,-3.3418,-3.3418,-3.3418,-3.3418,-3.3418,-3.3418,-3.3418,-3.3418,-3.3418,-3.3418,-3.3418,-3.3418,-3.3418,-3.3418,-3.3418,-3.3418,-3.3418,-3.3544,-3.4652,-3.4278,-3.3544,-3.4632,-3.4278,0.0,0.0,0.0,0.0,0.0,0.0,0.0,0.0,0.0,0.0,0.0,0.0,0.0,0.0,0.0,0.0,0.0,0.0,0.0,-3.9334,-4.0432,-4.1541,-4.1972,-4.1859,-4.1834,-4.2224,-4.265,-4.2986,-4.2986,-4.2986,-4.2986,-4.2986,-4.2986,-4.2986,-4.2986,-4.2986,0.0,-4.2986,-4.2986,-4.2986,-4.2986,-4.2986,-4.2986,-4.2986,0.0,0.0,-4.2986,-4.2986,-4.2986,-4.2986,-4.2986,-4.2986,-4.2986,-4.2986,-4.3321,-4.3789,-4.3789,-4.3984,-4.4313,-4.5555,-4.5953,-4.6164,0.0,0.0,0.0,0.0,0.0,0.0,0.0,-3.1377,-3.1377,-3.1377,-3.1377,-3.1377,-3.1377,-3.1377,-3.1377,-3.1377,-3.1377,-3.1377,-3.1377,-3.1525,-3.1653,-3.1653,-3.1653,-3.191,-3.2422,-3.2549,-3.2785,-3.3165,-3.3292,-3.3418,-3.3418,-3.3418,-3.3418,-3.3418,-3.3418,-3.3418,-3.3418,-3.3418,-3.3418,-3.3418,-3.3418,-3.3418,-3.3418,-3.3418,-3.3418,-3.3418,-3.3418,-3.3418,-3.3544,-3.4153,-3.4403,-3.4528,-3.5129,-3.5376,-3.5479,0.0,0.0,0.0,0.0,0.0,0.0,0.0,0.0,0.0,0.0,0.0,0.0,0.0,0.0,-3.8602,0.0,0.0,-4.0755,-4.0408,-4.1263,-4.1859,-4.1859,-4.1948,-4.2174,-4.2538,-4.265,-4.2874,-4.2986,-4.2986,-4.2986,-4.2986,-4.2986,-4.2986,-4.2986,-4.2986,-4.2986,-4.2986,-4.2986,-4.2986,-4.2986,-4.2986,-4.2986,-4.2986,-4.2986,-4.2986,-4.2986,-4.2986,-4.2986,-4.2986,-4.2986,-4.2986,-4.2986,-4.3184,-4.3432,-4.3899,-4.401,-4.4203,-4.4613,-4.5235,-4.5847,-4.6478,0.0,0.0,0.0,0.0,0.0,0.0,0.0,-3.1377,-3.1377,-3.1377,-3.1377,-3.1377,-3.1377,-3.1377,-3.1377,-3.1377,-3.1377,-3.1377,-3.1377,-3.1377,-3.1377,-3.1377,-3.1377,-3.1525,-3.191,-3.2166,-3.2549,-3.2804,-3.3165,-3.3418,-3.3292,-3.3418,-3.3418,-3.3418,-3.3418,-3.3418,-3.3418,-3.3418,-3.3418,-3.3418,-3.3418,-3.3418,-3.3418,-3.3418,-3.3418,-3.3418,-3.3418,-3.3418,-3.3418,-3.4027,-3.4757,-3.55,-3.5746,-3.646,-3.7309,-3.7309,-3.7429,0.0,0.0,0.0,0.0,0.0,0.0,0.0,0.0,0.0,-3.8484,-3.8484,-3.9428,-4.0268,-4.0152,-4.1353,-4.2174,-4.172,-4.2061,-4.2174,-4.172,-4.2086,-4.2538,-4.2986,-4.2737,-4.2737,-4.2986,-4.2986,-4.2986,-4.2986,-4.2986,-4.2986,-4.2986,-4.2986,-4.2986,-4.2986,-4.2986,-4.2986,-4.2986,-4.2986,-4.2986,-4.2986,-4.2986,-4.2986,-4.2986,-4.2986,-4.2986,-4.2986,-4.2986,-4.2986,-4.2986,-4.3406,-4.3653,-4.3899,-4.4203,-4.4531,-4.4722,-4.5127,-4.6058,-4.7074,0.0,0.0,0.0,0.0,0.0,0.0,0.0,0.0,-3.1377,-3.1377,-3.1377,-3.1377,-3.1377,-3.1377,-3.1377,-3.1377,-3.1377,-3.1377,-3.1377,-3.1377,-3.1377,-3.1377,-3.1377,-3.1525,-3.191,-3.2166,-3.2422,-3.2422,-3.3038,-3.3292,-3.2912,-3.3292,-3.3418,-3.3418,-3.3418,-3.3418,-3.3418,-3.3418,-3.3418,-3.3418,-3.3418,-3.3418,-3.3418,-3.3418,-3.3418,-3.3418,-3.3418,-3.3418,-3.3776,-3.6093,-3.6215,-3.5623,-3.6703,-3.7188,-3.7309,-3.7309,-3.8149,-3.898,-3.898,-3.898,-3.9216,-4.0455,-4.0803,-4.0803,0.0,0.0,-4.0918,-4.1124,-4.1148,-4.1287,-4.1745,-4.172,-4.172,-4.1606,-4.1606,-4.172,-4.1972,-4.211,-4.2312,-4.2986,-4.2986,-4.2986,-4.2986,-4.2986,-4.2986,-4.2986,-4.2986,-4.2986,-4.2986,-4.2986,-4.2986,-4.2986,-4.2986,-4.2986,-4.2986,-4.2986,-4.2986,-4.2986,-4.2986,-4.2986,-4.2986,-4.2986,-4.2986,-4.2986,-4.2986,-4.2986,-4.3098,-4.3653,-4.3899,-4.3899,-4.4422,-4.4613,-4.4938,-4.6867,-4.8296,-4.9415,0.0,0.0,0.0,0.0,0.0,0.0,0.0,0.0,0.0,-3.1377,-3.1377,-3.1377,-3.1377,-3.1377,-3.1377,-3.1377,-3.1377,-3.1377,-3.1377,-3.1377,-3.1377,-3.1377,-3.1377,-3.1525,-3.191,-3.2166,-3.2422,-3.2422,-3.3038,-3.3165,-3.2931,-3.3292,-3.3418,-3.3418,-3.3418,-3.3418,-3.3418,-3.3418,-3.3418,-3.3418,-3.3418,-3.3418,-3.3418,-3.3418,-3.3418,-3.3418,-3.3418,-3.3418,0.0,-3.4632,-3.5725,-3.6581,-3.7188,-3.8387,-3.9592,-3.9592,-3.9966,-4.0316,-4.0316,-4.0316,-4.0455,0.0,-4.1172,-4.1287,-4.1402,-4.1631,-4.1769,-4.1859,-4.1972,-4.2086,-4.2312,-4.2199,-4.2174,0.0,-4.2287,-4.24,-4.2312,-4.2312,-4.2425,-4.265,-4.2737,-4.2762,-4.2986,-4.2986,-4.2986,-4.2986,-4.2986,-4.2986,-4.2986,-4.2986,-4.2986,-4.2986,-4.2986,-4.2986,-4.2986,-4.2986,-4.2986,-4.2986,-4.2986,-4.2986,-4.2986,-4.2986,-4.2986,-4.2986,-4.2986,-4.2986,-4.3098,-4.3653,-4.3899,-4.3899,-4.4531,-4.5449,-4.666,-4.6971,-4.7791,-4.8795,0.0,0.0,0.0,0.0,0.0,0.0,0.0,0.0,0.0,0.0,-3.1377,-3.1377,-3.1377,-3.1377,-3.1377,-3.1377,-3.1377,-3.1377,-3.1377,-3.1377,-3.1377,-3.1377,-3.1377,-3.1506,-3.1782,-3.2038,-3.2166,-3.2166,-3.2912,-3.3038,-3.2804,-3.3165,-3.3418,-3.3418,-3.3418,-3.3418,-3.3418,-3.3418,-3.3418,-3.3418,-3.3418,-3.3418,-3.3418,-3.3418,-3.3418,-3.3418,-3.3418,-3.367,-3.4027,-3.4403,-3.5971,-3.7768,-3.7768,-3.9357,-4.1172,-4.0803,-4.0942,-4.1172,-4.1172,0.0,0.0,-4.1172,-4.1172,-4.1287,-4.1492,-4.1631,-4.1859,-4.1972,-4.2086,-4.2174,-4.2425,-4.2287,-4.2287,-4.2287,-4.24,-4.2513,-4.2425,-4.2425,-4.2425,-4.265,-4.2625,-4.2737,-4.2986,-4.2986,-4.2986,-4.2986,-4.2986,-4.2986,-4.2986,-4.2986,-4.2986,-4.2986,-4.2986,-4.2986,-4.2986,-4.2986,-4.2986,-4.2986,-4.2986,-4.2986,-4.2986,-4.2986,-4.2986,-4.2986,-4.2986,-4.3098,-4.3184,-4.3653,-4.3899,-4.4119,-4.4531,-4.5635,-4.7074,-4.6583,-4.7485,-4.8993,0.0,0.0,0.0,0.0,0.0,0.0,0.0,0.0,0.0,0.0,0.0,0.0,0.0,-3.1377,-3.1377,-3.1377,-3.1377,-3.1377,-3.1377,-3.1377,-3.1377,-3.1377,-3.1377,-3.1377,-3.1377,-3.1782,-3.1782,-3.1377,-3.2403,-3.2785,-3.2422,-3.3038,-3.3418,-3.3418,-3.3418,-3.3418,-3.3418,-3.3418,-3.3418,-3.3418,-3.3418,-3.3418,-3.3418,-3.3418,-3.3418,-3.3418,-3.3418,-3.4278,-3.55,-3.6824,-3.8029,-3.9098,-3.9098,-4.0083,-4.0942,-3.9592,-4.0199,-4.1172,0.0,0.0,-4.1172,-4.1172,-4.1172,-4.1172,-4.1172,-4.1172,-4.1287,-4.1606,-4.1402,-4.1426,-4.1997,-4.1859,-4.1606,-4.1606,-4.1606,-4.172,-4.211,-4.211,-4.2312,-4.2874,-4.2986,-4.2986,0.0,-4.2986,-4.2986,-4.2986,-4.2986,-4.2986,-4.2986,-4.2986,-4.2986,-4.2986,-4.2986,-4.2986,-4.2986,-4.2986,-4.2986,-4.2986,-4.2986,-4.2986,-4.2986,-4.2986,-4.2986,-4.2986,-4.2986,-4.3184,-4.3406,-4.3764,-4.401,-4.4313,-4.4613,-4.4722,-4.4938,-4.5953,-4.8396,-5.1135,0.0,0.0,0.0,0.0,0.0,0.0,0.0,0.0,0.0,0.0,0.0,0.0,0.0,0.0,0.0,0.0,-3.1377,-3.1377,-3.1377,-3.1377,-3.1377,-3.1377,-3.1377,-3.1377,-3.1377,-3.1782,-3.1782,-3.1782,-3.2294,-3.2676,-3.2804,-3.2912,-3.3165,-3.3418,-3.3418,-3.3418,-3.3418,-3.3418,-3.3418,-3.3418,-3.3418,-3.3418,-3.3418,-3.3418,-3.3418,-3.3418,0.0,-3.367,-3.4153,-3.4507,-3.6215,-3.791,-3.791,-3.9474,-4.1057,-4.0687,-4.0826,-4.1172,-4.1172,0.0,-4.1172,-4.1172,-4.1172,-4.1172,-4.1172,-4.1287,-4.1492,-4.1606,-4.1492,-4.1631,-4.1997,-4.1997,-4.1972,-4.2174,-4.24,-4.2513,-4.265,-4.2538,-4.2425,-4.2625,-4.265,0.0,0.0,0.0,0.0,-4.2986,-4.2986,-4.2986,-4.2986,-4.2986,-4.2986,-4.2986,-4.2986,-4.2986,-4.2986,-4.2986,-4.2986,-4.2986,-4.2986,-4.2986,-4.2986,-4.2986,-4.2986,-4.2986,-4.2986,-4.3073,-4.3184,-4.3679,-4.3899,-4.4119,-4.4531,-4.5127,-4.5953,-4.7074,-4.8596,-5.0124,0.0,0.0,0.0,0.0,0.0,0.0,0.0,0.0,0.0,0.0,0.0,0.0,0.0,0.0,0.0,0.0,0.0,-3.1377,-3.1377,-3.1377,-3.1377,-3.1377,-3.1377,-3.1377,-3.1377,-3.1653,-3.1782,-3.1929,-3.2166,-3.2422,-3.2676,-3.2785,-3.3038,-3.3165,-3.3292,-3.3418,-3.3418,-3.3418,-3.3418,-3.3418,-3.3418,-3.3418,-3.3418,-3.3418,-3.3418,0.0,-3.3418,-3.3418,-3.3418,-3.3902,-3.5848,-3.8029,-3.8029,-3.9474,-4.1172,-4.1172,-4.1172,-4.1172,-4.1172,-4.1172,-4.1172,-4.1172,-4.1172,-4.1172,-4.1172,-4.1287,-4.1492,-4.1492,-4.1492,-4.1516,-4.1745,-4.1859,-4.1972,-4.1972,-4.2287,-4.2513,-4.265,-4.2538,-4.2425,-4.2625,-4.265,-4.265,0.0,0.0,0.0,-4.2986,-4.2986,-4.2986,-4.2986,-4.2986,-4.2986,-4.2986,-4.2986,-4.2986,-4.2986,-4.2986,-4.2986,-4.2986,-4.2986,-4.2986,-4.2986,-4.2986,-4.2986,-4.2986,-4.2986,-4.3073,-4.3184,-4.3653,-4.401,-4.4119,-4.4531,-4.5127,-4.5847,-4.6556,-4.7791,-4.912,0.0,0.0,0.0,0.0,0.0,0.0,0.0,0.0,0.0,0.0,0.0,0.0,0.0,0.0,0.0,0.0,0.0,0.0,-3.1377,-3.1377,-3.1377,-3.1377,-3.1377,-3.1377,-3.1377,-3.1377,-3.1525,-3.1929,-3.1929,-3.2038,-3.2422,-3.2804,-3.2912,-3.2931,-3.3292,-3.3418,-3.3418,-3.3418,-3.3418,-3.3418,-3.3418,-3.3418,-3.3418,-3.3418,-3.3418,-3.3418,-3.3418,-3.3418,-3.3544,-3.4901,0.0,0.0,0.0,0.0,0.0,0.0,0.0,-4.1172,-4.1172,-4.1172,-4.1172,-4.1172,-4.1172,-4.1172,-4.1172,-4.1172,-4.1172,-4.1172,-4.1172,-4.1172,0.0,0.0,-4.1492,-4.1287,-4.1516,-4.172,-4.211,-4.211,-4.2312,0.0,0.0,0.0,0.0,0.0,0.0,-4.2986,0.0,-4.2986,-4.2986,-4.2986,-4.2986,-4.2986,-4.2986,-4.2986,-4.2986,-4.2986,-4.2986,-4.2986,-4.2986,-4.2986,-4.2986,-4.2986,-4.2986,-4.2986,-4.2986,-4.3184,-4.3406,-4.3764,-4.401,-4.4313,-4.4613,-4.4722,-4.4722,-4.4722,-4.6164,-4.8267,0.0,0.0,0.0,0.0,0.0,0.0,0.0,0.0,0.0,0.0,0.0,0.0,0.0,0.0,0.0,0.0,0.0,0.0,-3.1377,-3.1377,-3.1377,-3.1377,-3.1377,-3.1377,-3.1377,-3.1653,-3.1782,-3.1929,-3.2166,-3.2422,-3.2804,-3.2912,-3.3038,-3.3292,-3.3418,-3.3418,-3.3418,-3.3418,-3.3418,-3.3418,-3.3418,-3.3418,-3.3418,-3.3418,-3.3418,-3.3418,-3.3418,-3.3418,0.0,0.0,0.0,0.0,0.0,0.0,-4.1172,0.0,0.0,-4.1172,-4.1172,-4.1172,-4.1172,-4.1172,-4.1172,-4.1172,-4.1172,-4.1172,-4.1172,-4.1172,-4.1172,-4.1172,0.0,0.0,0.0,-4.1883,-4.2312,0.0,-4.2762,-4.2762,0.0,-4.2986,0.0,-4.2986,-4.2986,-4.2986,0.0,0.0,-4.2986,-4.2986,-4.2986,-4.2986,-4.2986,-4.2986,-4.2986,-4.2986,-4.2986,-4.2986,-4.2986,-4.2986,-4.2986,-4.2986,-4.2986,-4.2986,-4.2986,-4.2986,-4.2986,-4.3098,-4.3184,-4.3679,-4.3899,-4.401,-4.4531,-4.4722,-4.483,-4.5662,-4.6867,-4.8167,0.0,0.0,0.0,0.0,0.0,0.0,0.0,0.0,0.0,0.0,0.0,0.0,0.0,0.0,0.0,0.0,0.0,0.0,0.0,-3.1377,-3.1377,-3.1377,-3.1377,-3.1377,-3.1377,-3.1525,-3.1782,-3.1929,-3.2038,-3.2294,-3.2676,-3.2804,-3.3038,-3.3165,-3.3292,-3.3418,-3.3418,-3.3418,-3.3418,0.0,0.0,-3.3418,-3.3418,-3.3418,-3.3418,-3.3418,-3.3418,0.0,0.0,0.0,0.0,-3.8506,-4.0571,-4.1172,-4.1172,-4.1172,0.0,-4.1172,-4.1172,-4.1172,-4.1172,-4.1172,-4.1172,-4.1172,-4.1172,-4.1172,-4.1172,-4.1172,-4.1287,0.0,-4.1172,0.0,0.0,0.0,0.0,0.0,-4.2762,-4.2762,-4.2762,0.0,-4.2762,0.0,-4.2762,-4.2762,-4.2874,0.0,-4.2986,-4.2986,-4.2986,-4.2986,-4.2986,-4.2986,-4.2986,-4.2986,-4.2986,-4.2986,-4.2986,-4.2986,-4.2986,-4.2986,-4.2986,-4.2986,-4.2986,-4.2986,0.0,-4.2986,-4.3098,-4.3653,-4.3899,-4.3899,-4.4531,-4.4722,-4.483,-4.5449,-4.666,-4.8066,0.0,0.0,0.0,0.0,0.0,0.0,0.0,0.0,0.0,0.0,0.0,0.0,0.0,0.0,0.0,0.0,0.0,0.0,0.0,0.0,0.0,-3.1377,-3.1377,-3.1377,-3.1377,-3.1377,-3.1653,-3.1929,-3.191,-3.2166,-3.2422,-3.2804,-3.2931,-3.2912,-3.3292,-3.3418,-3.3418,-3.3418,-3.3418,-3.3418,-3.3418,-3.3418,-3.3418,0.0,-3.3418,-3.3418,-3.3418,0.0,0.0,0.0,-3.6824,-3.898,-4.0199,-4.0687,-4.0687,-4.0942,-4.0942,-4.0942,-4.1172,-4.1172,-4.1172,-4.1172,-4.1172,-4.1172,-4.1172,-4.1057,-4.0942,-4.0942,0.0,-4.1263,-4.0942,-4.172,-4.2174,-4.172,0.0,-4.24,-4.2513,-4.2513,-4.2538,-4.2538,-4.2538,-4.2538,-4.2513,-4.2513,-4.2625,-4.2986,-4.2986,-4.2986,-4.2986,-4.2986,-4.2986,-4.2986,-4.2986,-4.2986,-4.2986,-4.2986,-4.2986,-4.2986,-4.2986,-4.2986,-4.2986,-4.2986,-4.2986,-4.2986,-4.2986,0.0,-4.3098,-4.3543,-4.3899,-4.3899,-4.4422,-4.4613,-4.4722,-4.4722,-4.6058,-4.7763,0.0,0.0,0.0,0.0,0.0,0.0,0.0,0.0,0.0,0.0,-3.1377,-3.1377,0.0,0.0,0.0,0.0,0.0,0.0,0.0,0.0,0.0,-3.1377,-3.1377,-3.1377,-3.1377,-3.1653,-3.1782,-3.1929,-3.2166,-3.2422,-3.2785,-3.2931,-3.3038,-3.3292,-3.3418,-3.3418,-3.3418,-3.3418,-3.3418,-3.3418,-3.3418,-3.3418,-3.3418,-3.3418,0.0,0.0,0.0,0.0,0.0,0.0,-3.5746,-3.6215,-3.755,-3.8029,-3.8149,-3.9239,-3.9592,-3.9826,-4.0942,-4.1172,-4.1172,-4.1172,-4.1172,-4.1172,-4.1172,-4.0316,0.0,0.0,-3.9592,-3.9592,-3.9592,-4.0779,-4.172,-4.1606,0.0,0.0,0.0,0.0,-4.2312,0.0,0.0,0.0,0.0,0.0,0.0,0.0,0.0,-4.2986,-4.2986,-4.2986,-4.2986,-4.2986,-4.2986,-4.2986,-4.2986,-4.2986,-4.2986,-4.2986,-4.2986,-4.2986,-4.2986,-4.2986,-4.2986,-4.2986,-4.2986,0.0,-4.2986,-4.3295,-4.3653,-4.3899,-4.4203,-4.4531,-4.4722,-4.4722,-4.5555,-4.6764,0.0,0.0,0.0,0.0,0.0,0.0,0.0,-3.0972,-3.1377,-3.1377,-3.1377,-3.1377,-3.1377,-3.1377,-3.1377,0.0,0.0,0.0,0.0,0.0,0.0,0.0,0.0,0.0,-3.1377,-3.1525,-3.1653,-3.1653,0.0,-3.2422,-3.2676,-3.3038,-3.3292,-3.3418,-3.3418,-3.3418,-3.3418,-3.3418,-3.3418,-3.3418,-3.3418,-3.3418,-3.3418,0.0,0.0,0.0,0.0,0.0,0.0,0.0,-3.4403,-3.4632,-3.6703,-3.7309,-3.7429,-3.8029,-3.8625,-3.9334,-3.9966,-4.0687,-4.1172,-4.1172,-4.1172,-4.1057,-4.0316,0.0,0.0,0.0,-3.8365,-3.8365,-3.8268,-3.9686,0.0,0.0,0.0,0.0,0.0,0.0,0.0,0.0,0.0,0.0,0.0,0.0,0.0,0.0,0.0,-4.2874,-4.2986,-4.2986,-4.2986,-4.2986,-4.2986,-4.2986,-4.2986,-4.2986,-4.2986,-4.2986,-4.2986,-4.2986,-4.2986,-4.2986,-4.2986,-4.2986,-4.2986,0.0,-4.2986,-4.3295,-4.3628,-4.3899,-4.4203,-4.4422,-4.4722,-4.4722,-4.5449,-4.6478,0.0,0.0,0.0,0.0,0.0,0.0,0.0,-3.0195,-3.112,-3.1377,-3.1377,-3.1377,-3.1377,-3.1377,-3.1377,0.0,0.0,0.0,0.0,0.0,0.0,0.0,0.0,0.0,0.0,0.0,0.0,0.0,-3.1891,0.0,0.0,0.0,0.0,0.0,-3.3292,-3.3292,-3.3418,-3.3418,-3.3418,0.0,0.0,-3.3418,0.0,0.0,0.0,0.0,0.0,0.0,0.0,0.0,-3.3418,-3.3776,-3.5848,-3.646,-3.6581,-3.6824,-3.7648,-3.8506,-3.8744,-3.9592,-4.0339,-4.0339,-4.0571,-4.0455,-3.9098,-3.8744,0.0,-3.7188,-3.7045,-3.7166,-3.6946,-3.8365,-3.9428,0.0,-4.0524,0.0,0.0,0.0,0.0,0.0,0.0,0.0,0.0,0.0,0.0,0.0,0.0,0.0,-4.2986,-4.2986,-4.2986,-4.2986,-4.2986,-4.2986,-4.2986,-4.2986,-4.2986,-4.2986,-4.2986,-4.2986,-4.2986,-4.2986,-4.2986,-4.2986,-4.2986,0.0,0.0,-4.3184,-4.3543,-4.3899,-4.4094,-4.4422,-4.4722,-4.4722,-4.5235,-4.6058,0.0,0.0,0.0,0.0,0.0,0.0,0.0,-2.9395,-2.9935,-3.1249,-3.1377,-3.1377,-3.1377,-3.1377,-3.1377,0.0,0.0,0.0,0.0,0.0,0.0,0.0,0.0,0.0,0.0,0.0,0.0,0.0,0.0,0.0,0.0,0.0,0.0,0.0,0.0,0.0,-3.3418,-3.3418,0.0,0.0,0.0,0.0,0.0,0.0,0.0,0.0,0.0,0.0,0.0,0.0,0.0,-3.3418,-3.367,-3.3776,-3.4027,-3.5253,0.0,0.0,-3.7188,-3.755,-3.767,-3.767,-3.8506,-3.9098,-3.779,0.0,-3.7067,-3.5869,-3.5623,-3.5623,-3.5623,-3.6703,-3.7528,0.0,0.0,-3.9569,0.0,0.0,0.0,0.0,0.0,0.0,0.0,0.0,0.0,0.0,0.0,0.0,-4.2986,-4.2986,-4.2986,-4.2986,-4.2986,-4.2986,-4.2986,-4.2986,-4.2986,-4.2986,-4.2986,-4.2986,-4.2986,-4.2986,-4.2986,-4.2986,-4.2986,0.0,0.0,-4.2986,-4.3432,-4.3899,-4.3899,-4.4203,-4.4722,-4.4722,-4.4722,-4.5046,0.0,0.0,0.0,0.0,0.0,0.0,-2.6604,-2.7403,-2.846,-2.9917,-3.0195,-3.0455,-3.1377,-3.1377,-3.1377,-3.1377,0.0,0.0,0.0,0.0,0.0,0.0,0.0,0.0,0.0,0.0,0.0,-3.1653,-3.1653,0.0,0.0,0.0,0.0,0.0,0.0,0.0,0.0,0.0,0.0,0.0,0.0,0.0,0.0,0.0,0.0,0.0,0.0,0.0,0.0,0.0,0.0,0.0,-3.3418,-3.3418,0.0,0.0,-3.4757,-3.55,-3.5971,-3.6703,-3.7309,-3.7309,-3.767,-3.779,-3.646,0.0,-3.5725,-3.4528,-3.4153,-3.4153,-3.4153,-3.5253,-3.6215,-3.6215,-3.791,0.0,-3.8365,0.0,0.0,0.0,0.0,0.0,0.0,0.0,0.0,0.0,0.0,0.0,-4.2625,-4.2874,-4.2986,-4.2986,-4.2986,-4.2986,-4.2986,-4.2986,-4.2986,-4.2986,-4.2986,-4.2986,-4.2986,-4.2986,-4.2986,-4.2986,-4.2986,0.0,0.0,-4.2986,-4.3321,-4.3899,-4.3899,-4.4203,-4.4722,-4.4722,-4.4722,-4.4722,0.0,0.0,0.0,0.0,0.0,-2.4467,-2.4873,-2.5801,-2.6988,-2.846,-2.9003,-2.9526,-3.0048,-3.0584,-3.0584,-3.0178,-3.0584,0.0,0.0,0.0,0.0,0.0,0.0,0.0,0.0,0.0,-3.1377,-3.1377,-3.1653,-3.1782,0.0,0.0,0.0,0.0,0.0,0.0,0.0,0.0,0.0,0.0,0.0,0.0,0.0,0.0,0.0,0.0,0.0,0.0,0.0,0.0,0.0,0.0,0.0,0.0,0.0,0.0,-3.4027,-3.4757,-3.4757,-3.55,-3.6093,-3.6093,-3.646,-3.646,0.0,-3.5129,-3.5005,-3.367,-3.3418,-3.3418,-3.3418,-3.4153,-3.4757,-3.4757,-3.6703,-3.7768,-3.6824,0.0,0.0,0.0,0.0,0.0,0.0,0.0,0.0,0.0,0.0,0.0,0.0,-4.2762,-4.2986,-4.2986,-4.2986,-4.2986,-4.2986,-4.2986,-4.2986,-4.2986,-4.2986,-4.2986,-4.2986,-4.2986,-4.2986,-4.2986,-4.2986,0.0,0.0,-4.2986,-4.3321,-4.3764,-4.3899,-4.4203,-4.4613,-4.4613,-4.4722,-4.4722,0.0,0.0,0.0,0.0,0.0,0.0,-2.4738,-2.5008,-2.5532,-2.6988,-2.8328,-2.8723,-2.7254,-2.846,-2.8723,-2.7254,-2.846,0.0,0.0,0.0,0.0,0.0,0.0,0.0,0.0,0.0,-3.1377,-3.1377,-3.1377,-3.1377,-3.1377,-3.1377,-3.1635,0.0,0.0,0.0,0.0,0.0,0.0,0.0,0.0,0.0,0.0,0.0,0.0,0.0,0.0,0.0,0.0,0.0,0.0,0.0,0.0,0.0,0.0,0.0,-3.3418,-3.3418,-3.3418,-3.3418,-3.3418,-3.3418,-3.4403,-3.5129,-3.3796,-3.4403,-3.5005,-3.367,-3.3418,-3.3418,-3.3418,-3.3418,-3.3418,-3.3418,-3.4528,-3.5376,-3.5376,0.0,0.0,0.0,0.0,0.0,0.0,0.0,0.0,0.0,0.0,0.0,0.0,-4.265,-4.2986,-4.2986,-4.2986,-4.2986,-4.2986,-4.2986,-4.2986,-4.2986,-4.2986,-4.2986,-4.2986,-4.2986,-4.2986,0.0,0.0,0.0,0.0,-4.2986,-4.3184,-4.3406,-4.3764,-4.4119,-4.4313,-4.4613,-4.4722,-4.4722,0.0,0.0,0.0,0.0,0.0,0.0,0.0,-2.3529,-2.4074,-2.5532,-2.6069,-2.6604,-2.7121,-2.7519,-2.7652,-2.7105,-2.7519,0.0,0.0,0.0,0.0,0.0,0.0,0.0,0.0,0.0,-3.1377,-3.1377,-3.1377,-3.1377,-3.1377,-3.1377,-3.1506,-3.1506,-3.191,0.0,0.0,0.0,0.0,0.0,0.0,0.0,0.0,0.0,0.0,0.0,0.0,0.0,0.0,0.0,0.0,0.0,0.0,0.0,0.0,-3.3418,-3.3418,0.0,-3.3418,-3.3418,-3.3418,-3.3418,-3.367,-3.3902,-3.3544,-3.3796,-3.3902,-3.3544,-3.3418,-3.3418,-3.3418,-3.3418,-3.3418,-3.3418,-3.4528,-3.5129,0.0,0.0,0.0,0.0,0.0,0.0,0.0,0.0,0.0,0.0,0.0,0.0,0.0,-4.2425,-4.2737,-4.2986,-4.2986,-4.2986,-4.2986,-4.2986,-4.2986,-4.2986,-4.2986,-4.2986,-4.2986,-4.2986,-4.2986,0.0,0.0,0.0,0.0,-4.2986,-4.3184,-4.3381,-4.3517,-4.3874,-4.4313,-4.4422,-4.4531,-4.4722,0.0,0.0,0.0,0.0,0.0,0.0,0.0,-2.2859,-2.327,-2.4074,-2.4602,-2.5143,-2.5517,-2.6054,-2.6054,-2.5517,-2.5517,0.0,0.0,0.0,0.0,0.0,0.0,0.0,-2.977,-3.0307,-3.0325,-2.977,-3.0325,-3.0307,-2.977,-3.0307,-3.0584,-3.0584,-3.1525,-3.2038,0.0,0.0,0.0,0.0,0.0,0.0,-3.3418,0.0,0.0,0.0,0.0,0.0,0.0,0.0,0.0,0.0,0.0,0.0,0.0,0.0,-3.3418,-3.3418,0.0,-3.3418,-3.3418,-3.3418,-3.3418,0.0,-3.3418,-3.3418,-3.3418,-3.3418,-3.3418,-3.3418,-3.3418,-3.3418,-3.3418,-3.3418,-3.4153,-3.4403,0.0,0.0,0.0,0.0,0.0,0.0,0.0,0.0,0.0,0.0,0.0,0.0,0.0,-4.2312,-4.2625,-4.2986,-4.2986,-4.2986,-4.2986,-4.2986,-4.2986,-4.2986,-4.2986,-4.2986,-4.2986,-4.2986,-4.2986,0.0,0.0,0.0,0.0,-4.2986,-4.3073,-4.3295,-4.3406,-4.3738,-4.4203,-4.4203,-4.4531,-4.4722,0.0,0.0,0.0,0.0,0.0,0.0,0.0,-2.2859,-2.2859,-2.2859,-2.4074,-2.4345,-2.2996,-2.4074,-2.4331,-2.2996,0.0,0.0,0.0,0.0,0.0,0.0,0.0,0.0,-2.7105,-2.846,-2.846,-2.7105,-2.846,-2.846,-2.7121,-2.8592,-2.9265,-2.9413,-3.112,-3.1929,0.0,0.0,0.0,0.0,0.0,0.0,0.0,0.0,0.0,0.0,0.0,0.0,0.0,0.0,0.0,0.0,0.0,0.0,0.0,0.0,0.0,0.0,0.0,-3.3418,-3.3418,-3.3418,0.0,-3.3418,-3.3418,-3.3418,0.0,-3.3418,-3.3418,-3.3418,-3.3418,-3.3418,-3.3418,-3.3418,-3.3418,-3.3418,0.0,0.0,0.0,0.0,0.0,0.0,0.0,0.0,0.0,0.0,0.0,0.0,0.0,-4.2312,-4.2625,-4.2986,-4.2986,-4.2986,-4.2986,-4.2986,-4.2986,-4.2986,-4.2986,-4.2986,-4.2986,-4.2986,-4.2986,0.0,0.0,0.0,0.0,-4.2986,-4.2986,-4.2986,-4.3295,-4.3628,-4.3899,-4.4203,-4.4422,-4.4722,0.0,0.0,0.0,0.0,0.0,0.0,0.0,0.0,0.0,0.0,-2.3133,-2.327,-2.2996,-2.327,-2.327,0.0,0.0,0.0,0.0,0.0,0.0,0.0,0.0,0.0,-2.7105,-2.7387,-2.7387,-2.7105,-2.7387,-2.7387,-2.7121,-2.8592,-2.9265,-2.9395,-3.0861,-3.1653,0.0,0.0,0.0,0.0,0.0,0.0,0.0,0.0,0.0,0.0,-3.3418,-3.3418,0.0,0.0,0.0,0.0,0.0,0.0,0.0,0.0,-3.3418,-3.3418,-3.3418,0.0,-3.3418,-3.3418,-3.3418,-3.3418,0.0,-3.3418,0.0,0.0,0.0,0.0,0.0,-3.3418,-3.3418,-3.3418,-3.3418,-3.3418,-3.3418,0.0,0.0,0.0,0.0,0.0,0.0,0.0,0.0,0.0,0.0,0.0,0.0,-4.2224,-4.2425,-4.2986,-4.2986,-4.2986,-4.2986,-4.2986,-4.2986,-4.2986,-4.2986,-4.2986,-4.2986,-4.2986,-4.2986,0.0,0.0,0.0,-4.2986,-4.2986,-4.2986,-4.2986,-4.3073,-4.3432,-4.3899,-4.401,-4.4313,-4.4722,0.0,0.0,0.0,0.0,0.0,0.0,0.0,0.0,0.0,0.0,0.0,-2.2859,-2.2859,-2.2859,0.0,0.0,0.0,0.0,0.0,0.0,0.0,0.0,0.0,-2.4331,-2.5128,-2.5786,-2.5786,-2.5128,-2.5786,-2.5786,-2.5263,-2.6604,-2.7668,-2.8328,-3.0437,-3.1249,0.0,0.0,0.0,0.0,-3.2403,0.0,0.0,0.0,0.0,0.0,-3.3418,-3.3418,0.0,-3.3418,-3.3418,-3.3418,0.0,0.0,0.0,0.0,-3.3418,-3.3418,-3.3418,-3.3418,-3.3418,-3.3418,-3.3418,-3.3418,-3.3418,0.0,0.0,0.0,0.0,0.0,0.0,0.0,0.0,-3.3418,-3.3418,-3.3418,0.0,0.0,0.0,0.0,0.0,0.0,0.0,0.0,0.0,0.0,0.0,0.0,0.0,-4.1745,-4.2312,-4.2762,-4.2986,-4.2986,-4.2986,-4.2986,-4.2986,-4.2986,-4.2986,-4.2986,-4.2986,-4.2986,-4.2986,0.0,0.0,0.0,-4.2986,-4.2986,-4.2986,-4.2986,-4.2986,-4.3321,-4.3653,-4.3899,-4.4203,-4.4531,0.0,0.0,0.0,0.0,0.0,0.0,0.0,0.0,0.0,0.0,0.0,0.0,0.0,0.0,0.0,0.0,0.0,0.0,0.0,0.0,0.0,0.0,-2.2859,-2.2859,-2.2859,-2.4074,-2.4074,-2.2859,-2.4074,-2.4074,-2.2859,-2.4331,-2.5801,-2.7238,-2.9639,-3.0178,0.0,0.0,0.0,0.0,-3.1488,0.0,0.0,0.0,0.0,0.0,0.0,0.0,0.0,-3.3418,-3.3418,-3.3418,-3.3418,0.0,0.0,0.0,0.0,0.0,-3.3418,-3.3418,-3.3418,-3.3418,-3.3418,-3.3418,-3.3418,0.0,0.0,0.0,0.0,0.0,0.0,0.0,0.0,0.0,0.0,0.0,0.0,0.0,0.0,0.0,0.0,0.0,0.0,0.0,0.0,0.0,0.0,0.0,0.0,-4.0894,-4.1948,-4.2174,-4.2737,-4.2986,-4.2986,-4.2986,-4.2986,-4.2986,-4.2986,-4.2986,-4.2986,-4.2986,-4.2986,-4.2986,0.0,0.0,-4.2986,-4.2986,-4.2986,-4.2986,-4.2986,-4.3184,-4.3406,-4.3764,-4.3984,-4.4313,0.0,0.0,0.0,0.0,0.0,0.0,0.0,0.0,0.0,0.0,0.0,0.0,0.0,0.0,0.0,0.0,0.0,0.0,0.0,0.0,0.0,-2.2859,-2.2859,-2.2859,-2.2859,-2.3133,-2.3133,-2.2859,-2.3133,-2.3133,-2.2859,-2.4331,-2.5801,-2.7105,-2.7519,-2.7652,-2.7519,-2.7784,0.0,0.0,0.0,0.0,0.0,0.0,0.0,0.0,0.0,0.0,0.0,-3.3418,-3.3418,-3.3418,-3.3418,0.0,0.0,0.0,0.0,0.0,-3.3418,-3.3418,-3.3418,-3.3418,-3.3418,-3.3418,-3.3418,0.0,0.0,0.0,0.0,0.0,0.0,0.0,0.0,0.0,0.0,0.0,0.0,0.0,0.0,0.0,0.0,0.0,0.0,0.0,0.0,0.0,0.0,0.0,0.0,-3.9545,-4.05,-4.0846,-4.2263,-4.2986,-4.2986,-4.2986,-4.2986,-4.2986,-4.2986,-4.2986,-4.2986,-4.2986,-4.2986,-4.2986,0.0,-4.2986,-4.2986,-4.2986,-4.2986,-4.2986,-4.2986,-4.3184,-4.3406,-4.3517,-4.3848,-4.4313,0.0,0.0,0.0,0.0,0.0,0.0,0.0,0.0,0.0,0.0,0.0,0.0,0.0,0.0,0.0,0.0,0.0,0.0,0.0,0.0,-2.2859,-2.2859,-2.2859,-2.2859,-2.2859,-2.2859,-2.2859,-2.2859,-2.2859,-2.2859,-2.2859,-2.4331,-2.5412,-2.6054,-2.6722,-2.6722,-2.6069,-2.6722,-2.7519,-2.8196,0.0,0.0,0.0,0.0,0.0,0.0,0.0,0.0,0.0,0.0,-3.3292,-3.3418,-3.3165,0.0,0.0,0.0,0.0,0.0,-3.3418,-3.3418,-3.3418,-3.3418,-3.3418,-3.3418,-3.3418,0.0,0.0,0.0,0.0,0.0,0.0,0.0,0.0,0.0,0.0,0.0,0.0,0.0,0.0,0.0,0.0,0.0,0.0,0.0,0.0,0.0,0.0,0.0,0.0,0.0,-3.9545,-4.0245,-4.1444,-4.2263,-4.2961,-4.2986,-4.2986,-4.2986,-4.2986,-4.2986,-4.2986,-4.2986,-4.2986,-4.2986,0.0,-4.2986,-4.2986,-4.2986,-4.2986,-4.2986,-4.2986,-4.3073,-4.3184,-4.3406,-4.3738,-4.4313,0.0,0.0,0.0,0.0,0.0,0.0,0.0,0.0,0.0,0.0,0.0,0.0,0.0,0.0,0.0,0.0,0.0,0.0,0.0,-2.2859,-2.2859,-2.2859,-2.2859,-2.2859,-2.2859,-2.2859,-2.2859,-2.2859,-2.2859,-2.2859,-2.2859,-2.3938,-2.4467,-2.4602,-2.5651,-2.5532,-2.4602,-2.5651,-2.6321,-2.6722,0.0,0.0,0.0,0.0,0.0,0.0,0.0,0.0,0.0,0.0,0.0,0.0,0.0,0.0,0.0,-3.3418,-3.3418,-3.3418,-3.3418,-3.3418,-3.3418,-3.3418,0.0,-3.3418,0.0,0.0,0.0,0.0,0.0,0.0,0.0,0.0,0.0,0.0,0.0,0.0,0.0,0.0,0.0,0.0,0.0,0.0,0.0,0.0,0.0,0.0,0.0,0.0,0.0,0.0,-3.8365,-3.9663,-4.0616,-4.1696,-4.2986,-4.2986,-4.2986,-4.2986,-4.2986,-4.2986,-4.2986,-4.2986,-4.2986,-4.2986,-4.2986,-4.2986,-4.2986,-4.2986,-4.2986,-4.2986,-4.2986,-4.2986,-4.2986,-4.3295,-4.3738,-4.4094,0.0,0.0,0.0,0.0,0.0,0.0,0.0,0.0,0.0,0.0,0.0,0.0,0.0,0.0,0.0,0.0,0.0,0.0,0.0,-2.2859,-2.2859,-2.2859,-2.2859,-2.2859,-2.2859,-2.2859,-2.2859,-2.2859,-2.2859,-2.2859,-2.2859,-2.2996,-2.2996,-2.2996,-2.3133,-2.3133,-2.2996,-2.3133,-2.3938,-2.5143,-2.5278,0.0,0.0,0.0,0.0,0.0,0.0,0.0,0.0,0.0,0.0,0.0,0.0,0.0,-3.3038,-3.3292,-3.3418,-3.3418,-3.3418,-3.3418,-3.3418,-3.3418,0.0,0.0,-3.3418,0.0,0.0,0.0,0.0,0.0,0.0,0.0,0.0,0.0,0.0,0.0,0.0,0.0,0.0,0.0,0.0,0.0,0.0,0.0,0.0,0.0,0.0,0.0,0.0,-3.5335,-3.7023,-3.8342,-4.0129,-4.1696,-4.2986,-4.2986,-4.2986,-4.2986,-4.2986,-4.2986,-4.2986,-4.2986,-4.2986,-4.2986,-4.2986,-4.2986,-4.2986,-4.2986,-4.2986,-4.2986,-4.2986,-4.2986,-4.2986,-4.3295,-4.3406,-4.3517,0.0,0.0,0.0,0.0,0.0,0.0,0.0,0.0,0.0,0.0,0.0,0.0,0.0,0.0,0.0,0.0,0.0,0.0,0.0,-2.2859,-2.2859,-2.2859,-2.2859,-2.2859,-2.2859,-2.2859,-2.2859,-2.2859,-2.2859,-2.2859,-2.2859,-2.2859,-2.2859,-2.2859,-2.2859,-2.2859,-2.2859,-2.2859,-2.3665,-2.5008,-2.5008,-2.5801,0.0,0.0,0.0,0.0,0.0,0.0,0.0,0.0,-3.1488,-3.2422,-3.2294,-3.2422,-3.2676,-3.3058,-3.2931,-3.2804,-3.3038,-3.3038,0.0,0.0,0.0,0.0,0.0,0.0,0.0,0.0,0.0,0.0,0.0,0.0,0.0,0.0,0.0,0.0,0.0,0.0,0.0,0.0,0.0,0.0,0.0,0.0,0.0,0.0,0.0,0.0,0.0,-3.4507,-3.6072,-3.8104,-3.9311,-4.087,-4.2986,-4.2986,-4.2986,-4.2986,-4.2986,-4.2986,-4.2986,-4.2986,-4.2986,-4.2986,-4.2986,-4.2986,-4.2986,-4.2986,-4.2986,-4.2986,-4.2986,-4.2986,-4.2986,-4.3073,-4.3295,-4.3381,0.0,0.0,0.0,0.0,0.0,0.0,0.0,0.0,0.0,0.0,0.0,0.0,0.0,0.0,0.0,0.0,0.0,0.0,-2.2859,-2.2859,-2.2859,-2.2859,-2.2859,-2.2859,-2.2859,-2.2859,-2.2859,-2.2859,-2.2859,-2.2859,-2.2859,-2.2859,-2.2859,-2.2859,-2.2859,-2.2859,-2.2859,-2.2859,-2.3393,-2.4331,-2.4331,-2.4858,0.0,0.0,0.0,0.0,0.0,0.0,0.0,0.0,-3.0437,-3.1506,-3.1782,-3.2038,-3.2294,-3.2676,-3.2549,-3.2422,-3.2785,-3.2912,-3.2912,0.0,0.0,0.0,0.0,0.0,0.0,0.0,0.0,0.0,0.0,0.0,0.0,0.0,0.0,0.0,0.0,0.0,0.0,0.0,0.0,0.0,0.0,0.0,0.0,0.0,0.0,0.0,0.0,-3.4047,-3.5376,-3.7506,-3.8602,-4.0268,-4.24,-4.24,-4.2625,-4.2986,-4.2625,-4.2625,-4.2986,-4.2986,-4.2986,-4.2986,-4.2986,-4.2986,-4.2986,-4.2986,-4.2986,-4.2986,-4.2986,-4.2986,-4.2986,-4.2986,-4.3073,-4.3295,0.0,0.0,0.0,0.0,0.0,0.0,0.0,0.0,0.0,0.0,0.0,0.0,0.0,0.0,0.0,0.0,0.0,0.0,-2.2859,-2.2859,-2.2859,-2.2859,-2.2859,-2.2859,-2.2859,-2.2859,-2.2859,-2.2859,-2.2859,-2.2859,-2.2859,-2.2859,-2.2859,-2.2859,-2.2859,-2.2859,-2.2859,-2.2859,-2.2859,-2.2859,-2.2859,-2.2859,-2.2996,0.0,0.0,0.0,0.0,0.0,0.0,0.0,-2.9265,-2.9543,-3.1249,-3.191,-3.191,-3.2294,-3.2422,-3.2422,-3.2804,-3.2912,0.0,0.0,0.0,0.0,0.0,0.0,0.0,0.0,0.0,0.0,0.0,0.0,0.0,0.0,0.0,0.0,0.0,0.0,0.0,0.0,0.0,0.0,0.0,0.0,0.0,0.0,0.0,0.0,0.0,-3.4047,-3.5005,-3.6295,-3.8127,-3.9803,-4.11,-4.11,-4.1696,-4.2986,-4.1696,-4.181,-4.2986,-4.2986,-4.2986,-4.2986,-4.2986,-4.2986,-4.2986,-4.2986,-4.2986,-4.2986,-4.2986,-4.2986,-4.2986,-4.2986,-4.2986,-4.3098,0.0,0.0,0.0,0.0,0.0,0.0,0.0,0.0,0.0,0.0,0.0,0.0,0.0,0.0,0.0,0.0,0.0,0.0,-2.2859,-2.2859,-2.2859,-2.2859,-2.2859,-2.2859,-2.2859,-2.2859,-2.2859,-2.2859,-2.2859,-2.2859,-2.2859,-2.2859,-2.2859,-2.2859,-2.2859,-2.2859,-2.2859,-2.2859,-2.2859,-2.2859,-2.2859,-2.2859,-2.2996,0.0,0.0,0.0,0.0,0.0,0.0,0.0,0.0,0.0,-2.8312,-2.9248,-3.0195,-3.0437,-3.1102,-3.1763,-3.2166,0.0,0.0,0.0,0.0,0.0,0.0,0.0,0.0,0.0,0.0,0.0,0.0,0.0,0.0,0.0,0.0,0.0,0.0,0.0,0.0,0.0,0.0,0.0,0.0,0.0,0.0,0.0,0.0,0.0,0.0,-3.3796,-3.4757,-3.6295,-3.7045,-3.8246,-3.9803,-3.9803,-3.9919,-4.0268,-4.087,-4.181,-4.2986,-4.2986,-4.2986,-4.2986,-4.2986,-4.2986,-4.2986,-4.2986,-4.2986,-4.2986,-4.2986,-4.2986,-4.2986,-4.2986,-4.2986,-4.2986,0.0,0.0,0.0,0.0,0.0,0.0,0.0,0.0,0.0,0.0,-2.2859,-2.2859,0.0,0.0,0.0,0.0,0.0,0.0,0.0,-2.2859,-2.2859,-2.2859,-2.2859,-2.2859,-2.2859,-2.2859,-2.2859,-2.2859,-2.2859,-2.2859,-2.2859,-2.2859,-2.2859,-2.2859,-2.2859,-2.2859,-2.2859,-2.2859,-2.2859,-2.2859,-2.2859,-2.2859,-2.2859,0.0,0.0,0.0,0.0,0.0,0.0,0.0,0.0,0.0,-2.6972,-2.7652,-2.8592,-2.9395,-3.0048,-3.0843,-3.1782,0.0,0.0,0.0,0.0,0.0,0.0,0.0,0.0,0.0,0.0,0.0,0.0,0.0,0.0,0.0,0.0,0.0,0.0,0.0,0.0,0.0,0.0,0.0,0.0,0.0,0.0,0.0,0.0,0.0,0.0,-3.367,-3.4403,-3.5479,-3.6316,-3.7287,-3.8387,-3.8506,-3.8744,-3.9216,-3.9451,-4.05,-4.2263,-4.2737,-4.2986,-4.2986,-4.2986,-4.2986,-4.2986,-4.2986,-4.2986,-4.2986,-4.2986,-4.2986,-4.2986,-4.2986,-4.2986,-4.2986,0.0,0.0,0.0,0.0,0.0,0.0,0.0,0.0,0.0,0.0,-2.2859,-2.2859,0.0,0.0,0.0,0.0,0.0,0.0,0.0,-2.2859,-2.2859,-2.2859,-2.2859,-2.2859,-2.2859,-2.2859,-2.2859,-2.2859,-2.2859,-2.2859,-2.2859,-2.2859,-2.2859,-2.2859,-2.2859,-2.2859,-2.2859,-2.2859,-2.2859,-2.2859,-2.2859,-2.2859,-2.2859,-2.2859,0.0,0.0,0.0,0.0,0.0,0.0,0.0,0.0,-2.6321,-2.6855,-2.7121,-2.846,-2.9134,-2.9657,0.0,0.0,0.0,0.0,0.0,0.0,0.0,0.0,0.0,0.0,0.0,0.0,0.0,0.0,0.0,0.0,0.0,0.0,0.0,0.0,0.0,0.0,0.0,0.0,0.0,0.0,0.0,0.0,0.0,0.0,0.0,-3.367,-3.4047,-3.4298,-3.5848,-3.6682,-3.7067,-3.7067,-3.767,-3.8862,-3.779,-3.8602,-4.0985,-4.2263,-4.2849,-4.2986,-4.2986,-4.2986,-4.2986,-4.2986,-4.2986,-4.2986,-4.2986,-4.2986,-4.2986,-4.2986,-4.2986,-4.2986,0.0,0.0,0.0,0.0,0.0,0.0,0.0,0.0,0.0,0.0,0.0,0.0,0.0,0.0,0.0,0.0,0.0,0.0,0.0,-2.2859,-2.2859,-2.2859,-2.2859,-2.2859,-2.2859,-2.2859,-2.2859,-2.2859,-2.2859,-2.2859,-2.2859,-2.2859,-2.2859,-2.2859,-2.2859,-2.2859,-2.2859,-2.2859,-2.2859,-2.2859,-2.2859,-2.2859,-2.2859,-2.2859,-2.2859,0.0,0.0,0.0,0.0,0.0,0.0,0.0,-2.3665,-2.4602,-2.5532,-2.5801,-2.7535,-2.9395,0.0,0.0,0.0,0.0,0.0,0.0,0.0,0.0,0.0,0.0,0.0,0.0,0.0,0.0,0.0,0.0,0.0,0.0,0.0,0.0,0.0,0.0,0.0,0.0,0.0,0.0,0.0,0.0,0.0,0.0,-3.3418,-3.3418,-3.367,-3.4047,-3.4652,-3.5025,-3.5397,-3.5644,-3.589,0.0,-3.6946,-3.8149,-3.9686,-4.0985,-4.2037,-4.2986,-4.2986,-4.2986,-4.2986,-4.2986,-4.2986,-4.2986,-4.2986,-4.2986,-4.2986,-4.2986,-4.2986,-4.2986,0.0,0.0,0.0,0.0,0.0,0.0,0.0,0.0,0.0,0.0,0.0,0.0,0.0,0.0,0.0,0.0,0.0,0.0,0.0,0.0,-2.2859,-2.2859,-2.2859,-2.2859,-2.2859,-2.2859,-2.2859,-2.2859,-2.2859,-2.2859,-2.2859,-2.2859,-2.2859,-2.2859,-2.2859,-2.2859,-2.2859,-2.2859,-2.2859,-2.2859,-2.2859,-2.2859,-2.2859,-2.2859,-2.2859,-2.2859,-2.2859,0.0,0.0,0.0,0.0,0.0,0.0,0.0,-2.4074,-2.4738,-2.6069,-2.7535,0.0,0.0,0.0,0.0,0.0,0.0,0.0,0.0,0.0,0.0,0.0,0.0,0.0,0.0,0.0,0.0,0.0,0.0,0.0,0.0,0.0,0.0,0.0,0.0,0.0,0.0,0.0,0.0,0.0,-3.3418,-3.3418,-3.3418,-3.3544,-3.3922,-3.4173,-3.4548,-3.4922,-3.517,-3.5418,-3.5418,-3.6135,-3.7067,-3.8387,-4.0846,-4.2375,-4.2986,-4.2986,-4.2986,-4.2986,-4.2986,-4.2986,-4.2986,-4.2986,-4.2986,-4.2986,-4.2986,-4.2986,-4.2986,0.0,0.0,0.0,0.0,0.0,0.0,0.0,0.0,0.0,0.0,0.0,0.0,0.0,0.0,0.0,0.0,0.0,0.0,0.0,0.0,0.0,-2.2859,-2.2859,-2.2859,-2.2859,-2.2859,-2.2859,-2.2859,-2.2859,-2.2859,-2.2859,-2.2859,-2.2859,-2.2859,-2.2859,-2.2859,-2.2859,-2.2859,-2.2859,-2.2859,-2.2859,-2.2859,-2.2859,-2.2859,-2.2859,-2.2859,-2.2859,-2.2859,-2.2859,-2.2859,0.0,0.0,0.0,0.0,-2.3133,-2.4345,-2.4873,-2.5532,0.0,0.0,0.0,0.0,0.0,0.0,0.0,0.0,0.0,0.0,0.0,0.0,0.0,0.0,0.0,0.0,0.0,0.0,0.0,0.0,0.0,0.0,0.0,0.0,0.0,0.0,0.0,0.0,0.0,-3.3418,-3.3418,-3.3418,-3.3544,-3.3796,-3.4173,-3.4548,-3.4797,-3.517,-3.5418,-3.5418,-3.5665,-3.6237,-3.7407,-4.0846,-4.2375,-4.24,-4.2849,-4.2849,-4.2737,-4.2874,-4.2986,-4.2986,-4.2986,-4.2986,-4.2986,-4.2986,-4.2986,-4.2986,0.0,0.0,0.0,0.0,0.0,0.0,0.0,0.0,0.0,0.0,-2.2859,0.0,0.0,0.0,0.0,0.0,0.0,0.0,-2.2859,0.0,0.0,-2.2859,-2.2859,-2.2859,-2.2859,-2.2859,-2.2859,-2.2859,-2.2859,-2.2859,-2.2859,-2.2859,-2.2859,-2.2859,-2.2859,-2.2859,-2.2859,-2.2859,-2.2859,-2.2859,-2.2859,-2.2859,-2.2859,-2.2859,-2.2859,-2.2859,-2.2859,-2.2859,-2.2859,-2.2859,-2.2859,0.0,0.0,0.0,-2.2996,-2.3133,-2.4074,0.0,0.0,0.0,0.0,0.0,0.0,0.0,0.0,0.0,0.0,0.0,0.0,0.0,0.0,0.0,0.0,0.0,0.0,0.0,0.0,0.0,0.0,0.0,0.0,0.0,0.0,0.0,0.0,0.0,-3.3418,-3.3418,-3.3418,-3.3418,-3.3418,-3.3418,-3.4047,-3.4423,-3.4423,-3.5046,-3.5418,-3.5418,-3.6481,-3.7188,-3.7287,-3.898,-3.9686,-3.9803,-4.2037,-4.2375,-4.1444,-4.2513,-4.2986,-4.2986,-4.2986,-4.2986,-4.2986,-4.2986,-4.2986,-4.2986,0.0,0.0,0.0,0.0,0.0,0.0,0.0,0.0,0.0,0.0,0.0,-2.2859,0.0,0.0,0.0,-2.2859,-2.2859,-2.2859,-2.2859,-2.2859,-2.2859,-2.2859,-2.2859,-2.2859,-2.2859,-2.2859,-2.2859,-2.2859,-2.2859,-2.2859,-2.2859,-2.2859,-2.2859,-2.2859,-2.2859,-2.2859,-2.2859,-2.2859,-2.2859,-2.2859,-2.2859,-2.2859,-2.2859,-2.2859,-2.2859,-2.2859,-2.2859,-2.2859,-2.2859,-2.2859,-2.2859,-2.2859,-2.2859,0.0,0.0,0.0,0.0,0.0,0.0,0.0,0.0,0.0,0.0,0.0,0.0,0.0,0.0,0.0,0.0,0.0,0.0,0.0,0.0,0.0,0.0,0.0,0.0,0.0,0.0,0.0,0.0,0.0,0.0,0.0,0.0,0.0,-3.3418,-3.3418,-3.3418,-3.3418,-3.3418,-3.3418,-3.3922,-3.4173,-3.4423,-3.4922,-3.517,-3.5418,-3.6013,-3.6237,-3.6237,-3.755,-3.8506,-3.9334,-4.11,-4.1558,-4.1215,-4.2513,-4.2986,-4.2986,-4.2986,-4.2986,-4.2986,-4.2986,-4.2986,-4.2986,0.0,0.0,0.0,0.0,0.0,0.0,0.0,0.0,0.0,0.0,0.0,0.0,0.0,0.0,0.0,0.0,-2.2859,-2.2859,-2.2859,-2.2859,-2.2859,-2.2859,-2.2859,-2.2859,-2.2859,-2.2859,-2.2859,-2.2859,-2.2859,-2.2859,-2.2859,-2.2859,-2.2859,-2.2859,-2.2859,-2.2859,-2.2859,-2.2859,-2.2859,-2.2859,-2.2859,-2.2859,-2.2859,-2.2859,-2.2859,-2.2859,-2.2859,0.0,0.0,0.0,0.0,0.0,0.0,0.0,0.0,0.0,0.0,0.0,0.0,0.0,0.0,0.0,0.0,0.0,0.0,0.0,0.0,0.0,0.0,0.0,0.0,0.0,0.0,0.0,0.0,0.0,0.0,0.0,0.0,0.0,0.0,0.0,0.0,0.0,0.0,0.0,-3.3418,-3.3418,-3.3418,-3.3418,-3.3418,-3.3418,-3.3796,-3.4173,-3.4423,-3.4797,-3.517,-3.5418,-3.5418,-3.5418,-3.5418,-3.6359,-3.7309,-3.8268,-3.9919,-4.0384,-4.0268,-4.1923,-4.2513,-4.2513,-4.2849,-4.2986,-4.2986,-4.2986,-4.2986,-4.2986,0.0,0.0,0.0,0.0,0.0,0.0,0.0,0.0,0.0,0.0,0.0,0.0,-2.1897,-2.2448,-2.2722,-2.231,-2.2722,-2.2859,-2.2859,-2.2859,-2.2859,-2.2859,-2.2859,0.0,-2.2859,-2.2859,-2.2859,-2.2859,-2.2859,-2.2859,-2.2859,-2.2859,-2.2859,-2.2859,-2.2859,-2.2859,-2.2859,-2.2859,-2.2859,-2.2859,-2.2859,-2.2859,-2.2859,-2.2859,-2.2859,-2.2859,0.0,0.0,0.0,0.0,0.0,0.0,0.0,0.0,0.0,0.0,0.0,0.0,0.0,0.0,0.0,0.0,0.0,0.0,0.0,0.0,0.0,0.0,0.0,0.0,0.0,0.0,0.0,0.0,0.0,0.0,0.0,0.0,0.0,0.0,0.0,0.0,0.0,0.0,0.0,0.0,-3.3418,-3.3418,-3.3418,-3.3418,-3.3418,-3.3418,-3.4047,-3.4423,-3.4423,-3.5046,-3.5418,-3.5418,-3.5418,-3.5418,-3.5418,-3.5418,-3.5541,-3.5788,-3.8268,-3.8625,-3.7648,-4.0152,-4.1215,-4.1329,-4.2513,-4.2986,-4.2986,-4.2986,-4.2986,-4.2986,0.0,0.0,0.0,0.0,0.0,0.0,0.0,0.0,0.0,0.0,0.0,0.0,0.0,-2.2035,-2.2173,-2.2035,-2.231,-2.2585,-2.2859,-2.2859,-2.2859,-2.2859,-2.2859,-2.2859,-2.2859,-2.2859,-2.2859,-2.2859,-2.2859,-2.2859,-2.2859,-2.2859,-2.2859,-2.2859,-2.2859,-2.2859,-2.2859,-2.2859,0.0,0.0,0.0,-2.2859,-2.2859,-2.2859,0.0,0.0,0.0,0.0,0.0,0.0,0.0,0.0,0.0,0.0,0.0,0.0,0.0,0.0,0.0,0.0,0.0,0.0,0.0,0.0,0.0,0.0,0.0,0.0,0.0,0.0,0.0,0.0,0.0,0.0,0.0,0.0,0.0,0.0,0.0,0.0,0.0,0.0,0.0,0.0,0.0,0.0,0.0,-3.3418,-3.3418,-3.3418,-3.3418,-3.3418,-3.3796,-3.4298,-3.4673,-3.517,-3.5418,-3.5418,-3.5418,-3.5418,-3.5418,-3.5418,-3.5418,-3.5418,-3.6359,-3.6967,-3.7429,-3.9216,-4.0384,-4.11,-4.1558,-4.2263,-4.2986,-4.2986,-4.2986,-4.2986,0.0,0.0,0.0,0.0,0.0,0.0,0.0,0.0,0.0,-2.1358,0.0,0.0,0.0,0.0,-2.1897,-2.1897,-2.2173,-2.2448,-2.2859,-2.2859,-2.2859,-2.2859,-2.2859,-2.2859,-2.2859,-2.2859,-2.2859,-2.2859,-2.2859,-2.2859,-2.2859,-2.2859,-2.2859,-2.2859,-2.2859,-2.2859,-2.2859,0.0,0.0,-2.2859,0.0,0.0,-2.2859,0.0,0.0,0.0,0.0,0.0,0.0,0.0,0.0,0.0,0.0,0.0,0.0,0.0,0.0,0.0,0.0,0.0,0.0,0.0,0.0,0.0,0.0,0.0,0.0,0.0,0.0,0.0,0.0,0.0,0.0,0.0,0.0,0.0,0.0,0.0,0.0,0.0,0.0,0.0,0.0,0.0,0.0,0.0,0.0,0.0,-3.3418,-3.3418,-3.3544,-3.367,-3.3922,-3.4423,-3.5046,-3.5294,-3.5418,-3.5418,-3.5418,-3.5418,-3.5418,-3.5418,-3.5418,-3.5418,-3.5418,-3.589,-3.6703,-3.8029,-3.9098,-3.9919,-4.0268,-4.0985,-4.181,-4.215,-4.2375,-4.2375,0.0,0.0,0.0,0.0,0.0,0.0,0.0,0.0,-2.0665,-2.0665,0.0,0.0,0.0,0.0,0.0,-2.231,-2.231,-2.2448,-2.2859,-2.2859,-2.2859,-2.2859,-2.2859,-2.2859,-2.2859,-2.2859,-2.2859,-2.2859,-2.2859,-2.2859,-2.2859,-2.2859,-2.2859,-2.2859,-2.2859,-2.2859,-2.2859,0.0,-2.2859,-2.2859,0.0,-2.2859,-2.2859,0.0,0.0,0.0,-2.2859,-2.2859,0.0,0.0,0.0,0.0,0.0,0.0,0.0,0.0,0.0,0.0,0.0,0.0,0.0,0.0,0.0,0.0,0.0,0.0,0.0,0.0,0.0,0.0,0.0,0.0,0.0,0.0,0.0,0.0,0.0,0.0,0.0,0.0,0.0,0.0,0.0,0.0,0.0,0.0,-3.3418,-3.3418,-3.3418,-3.3418,-3.367,-3.4423,-3.4423,-3.4673,-3.5418,-3.5418,-3.5418,-3.5418,-3.5418,-3.5418,-3.5418,-3.5418,-3.5418,-3.5418,-3.5418,-3.5418,-3.5541,-3.6703,-3.7309,-3.7429,-3.8625,-3.9216,-3.9334,-4.0639,-4.11,-4.1329,0.0,0.0,0.0,0.0,0.0,-2.0665,-2.0665,-2.0665,-2.0665,0.0,0.0,0.0,-2.0665,-2.0943,-2.122,-2.1897,-2.1897,-2.2173,-2.2859,-2.2859,-2.2859,-2.2859,-2.2859,-2.2859,-2.2859,-2.2859,-2.2859,-2.2859,-2.2859,-2.2859,-2.2859,-2.2859,-2.2859,-2.2859,-2.2859,-2.2859,-2.2859,-2.2859,0.0,0.0,-2.2859,-2.2859,0.0,0.0,0.0,0.0,0.0,-2.2859,0.0,0.0,-2.2859,-2.2859,0.0,0.0,0.0,0.0,0.0,0.0,-2.2859,0.0,0.0,0.0,0.0,0.0,0.0,0.0,0.0,0.0,0.0,0.0,0.0,0.0,0.0,0.0,0.0,0.0,0.0,0.0,0.0,0.0,0.0,0.0,0.0,0.0,0.0,0.0,-3.3418,-3.3418,-3.3418,-3.3418,-3.3544,-3.4047,-3.4298,-3.4548,-3.5046,-3.5294,-3.5418,-3.5418,-3.5418,-3.5418,-3.5418,-3.5418,-3.5418,-3.5418,-3.5418,-3.5418,-3.5418,-3.5767,-3.6481,-3.7309,-3.767,-3.8387,-3.9216,-3.9569,-4.0268,-4.11,0.0,0.0,0.0,0.0,0.0,-2.0665,-2.0665,-2.0665,-2.0665,0.0,0.0,0.0,-2.0665,-2.0665,-2.0943,-2.1484,-2.1484,-2.176,-2.2448,-2.2448,-2.2448,-2.2448,-2.2448,-2.2448,-2.2448,-2.2448,-2.2448,-2.2585,-2.2585,-2.2722,-2.2859,-2.2859,-2.2859,-2.2859,-2.2859,-2.2859,-2.2859,0.0,0.0,0.0,-2.2859,0.0,0.0,-2.2859,-2.2859,0.0,0.0,0.0,-2.2859,-2.2859,-2.2859,0.0,0.0,0.0,0.0,0.0,0.0,0.0,0.0,0.0,0.0,0.0,0.0,0.0,-2.4331,-2.5263,0.0,0.0,0.0,0.0,0.0,0.0,0.0,0.0,0.0,0.0,0.0,0.0,0.0,0.0,0.0,0.0,0.0,-3.3418,-3.3418,-3.3418,-3.3418,-3.3418,-3.3418,-3.3418,-3.3544,-3.3922,-3.4047,-3.4298,-3.4673,-3.5046,-3.517,-3.517,-3.5294,-3.5418,-3.5418,-3.5418,-3.5418,-3.5418,-3.5418,-3.5418,-3.5418,-3.5418,-3.589,-3.6481,-3.6481,-3.6967,-3.767,-3.8268,-3.8862,-3.9686,0.0,0.0,-2.0527,-2.0665,-2.0665,-2.0665,-2.0665,-2.0665,-2.0665,0.0,-2.0665,-2.0665,-2.0665,-2.0665,-2.0804,-2.1207,-2.1207,-2.1346,-2.176,-2.176,-2.176,-2.176,-2.176,-2.176,-2.176,-2.176,-2.1897,-2.231,-2.231,-2.2448,-2.2722,-2.2859,-2.2859,-2.2859,-2.2859,0.0,0.0,0.0,0.0,-2.2859,-2.2859,-2.2859,0.0,0.0,-2.2859,0.0,-2.2859,-2.2859,-2.2859,-2.2859,-2.2859,0.0,0.0,0.0,0.0,0.0,-2.2859,0.0,0.0,0.0,0.0,0.0,0.0,0.0,-2.327,-2.4602,-2.5935,0.0,0.0,0.0,0.0,0.0,0.0,0.0,0.0,0.0,0.0,0.0,0.0,0.0,0.0,0.0,-3.3418,-3.3418,-3.3418,-3.3418,-3.3418,-3.3418,-3.3418,-3.3418,-3.3544,-3.3796,-3.3922,-3.4047,-3.4298,-3.4673,-3.4797,-3.4797,-3.517,-3.5294,-3.5294,-3.5418,-3.5418,-3.5418,-3.5418,-3.5418,-3.5418,-3.5418,-3.5418,-3.5418,-3.5418,-3.5418,-3.5541,-3.6703,-3.7188,-3.7648,0.0,-1.783,-1.9251,-2.0527,-2.0665,-2.0665,-2.0665,-2.0665,-2.0665,-2.0665,-2.0665,-2.0665,-2.0665,-2.0665,-2.0804,-2.1207,-2.1207,-2.1346,-2.176,-2.176,-2.176,-2.176,-2.176,-2.176,-2.176,-2.176,-2.176,-2.1897,-2.1897,-2.1897,-2.2035,-2.231,-2.2448,-2.2448,-2.2722,-2.2859,0.0,0.0,0.0,-2.2859,-2.2859,0.0,-2.2859,-2.2859,-2.2859,-2.2859,-2.2859,-2.2859,-2.2859,0.0,-2.2859,-2.2859,0.0,0.0,0.0,0.0,0.0,0.0,0.0,0.0,0.0,0.0,0.0,0.0,-2.2996,-2.327,-2.4074,0.0,0.0,0.0,0.0,0.0,0.0,0.0,0.0,0.0,0.0,0.0,0.0,0.0,0.0,0.0,-3.3418,-3.3418,-3.3418,-3.3418,-3.3418,-3.3418,-3.3418,-3.3418,-3.3418,-3.3544,-3.3796,-3.3922,-3.4047,-3.4298,-3.4548,-3.4548,-3.4797,-3.5046,-3.5046,-3.5294,-3.5418,-3.5418,-3.5418,-3.5418,-3.5418,-3.5418,-3.5418,-3.5418,-3.5418,-3.5418,-3.5418,-3.5644,-3.6359,-3.7429,0.0,-1.7409,-1.8832,-2.0388,-2.0665,-2.0665,-2.0665,-2.0665,-2.0665,-2.0665,-2.0665,-2.0665,-2.0665,-2.0665,-2.0804,-2.0943,-2.0943,-2.1081,-2.122,-2.122,-2.122,-2.122,-2.122,-2.122,-2.122,-2.122,-2.1358,-2.1484,-2.1484,-2.1622,-2.176,-2.2035,-2.2035,-2.2035,-2.2448,-2.2585,0.0,0.0,-2.2859,-2.2859,-2.2859,0.0,-2.2859,-2.2859,-2.2859,-2.2859,-2.2859,-2.2859,-2.2859,-2.2859,-2.2859,0.0,0.0,-2.2859,-2.2859,0.0,-2.2859,-2.2859,0.0,0.0,0.0,-2.2859,0.0,0.0,0.0,-2.3133,-2.3543,-2.4752,-2.5158,0.0,0.0,0.0,0.0,0.0,0.0,0.0,0.0,0.0,0.0,0.0,0.0,0.0,-3.3418,-3.3418,-3.3418,-3.3418,-3.3418,-3.3418,-3.3418,-3.3418,-3.3418,-3.3418,-3.3544,-3.367,-3.367,-3.3922,-3.4173,-3.4173,-3.4548,-3.4673,-3.4673,-3.4797,-3.5046,-3.517,-3.517,-3.5294,-3.5418,-3.5418,-3.5418,-3.5418,-3.5418,-3.5418,-3.5418,-3.5418,-3.5767,-3.6481,0.0,-1.6846,-1.8401,-1.9959,-2.0527,-2.0665,-2.0249,-2.0249,-2.0249,-2.0249,-1.9959,-1.9959,-2.0237,-1.9959,-1.9808,-1.9808,-1.9808,-1.9959,-2.0249,-2.0249,-2.0388,-2.0665,-2.0665,-2.0665,-2.0665,-2.0665,-2.0804,-2.1081,-2.1081,-2.1207,-2.1634,-2.1622,-2.1622,-2.176,-2.2035,-2.2173,0.0,0.0,0.0,-2.2722,0.0,-2.2859,-2.2859,-2.2859,-2.2859,-2.2859,-2.2859,-2.2859,-2.2859,-2.2859,0.0,-2.2859,-2.2859,-2.2859,0.0,0.0,0.0,0.0,0.0,0.0,0.0,0.0,0.0,-2.2996,0.0,0.0,0.0,-2.3816,0.0,0.0,0.0,0.0,0.0,0.0,0.0,0.0,0.0,0.0,0.0,0.0,0.0,0.0,0.0,-3.3292,-3.3418,-3.3418,-3.3418,-3.3418,-3.3418,-3.3418,-3.3418,-3.3418,-3.3418,-3.3418,-3.3418,-3.367,-3.3796,-3.3796,-3.4173,-3.4298,-3.4298,-3.4423,-3.4548,-3.4797,-3.4922,-3.5046,-3.5294,-3.5418,-3.5418,-3.5418,-3.5418,-3.5418,-3.5418,-3.5418,-3.5418,-3.5541,-1.388,-1.5283,-1.6846,-1.8401,-1.982,-2.0249,-1.8832,-1.8692,-1.8692,-1.8692,-1.7409,-1.7127,-1.8541,-1.7409,-1.6554,-1.6554,0.0,0.0,-1.8552,0.0,-1.9251,-2.0665,-2.0665,-2.0665,-2.0665,-2.0665,-2.0665,-2.0804,-2.0804,-2.0804,-2.0804,-2.1081,-2.1207,-2.1346,-2.1622,0.0,0.0,0.0,-2.2173,0.0,-2.2585,-2.2859,0.0,-2.2859,-2.2859,-2.2859,-2.2859,-2.2859,-2.2859,0.0,-2.2859,-2.2859,0.0,-2.2859,0.0,0.0,0.0,0.0,0.0,0.0,0.0,0.0,-2.2859,0.0,0.0,0.0,-2.2996,-2.3406,0.0,0.0,0.0,0.0,0.0,0.0,0.0,0.0,0.0,0.0,0.0,0.0,0.0,0.0,0.0,-3.2638,-3.3418,-3.3418,-3.3418,-3.3418,-3.3418,-3.3418,-3.3418,-3.3418,-3.3418,-3.3418,-3.3418,-3.3418,-3.3418,-3.3418,-3.3796,-3.3922,-3.3922,-3.4298,-3.4423,-3.4423,-3.4797,-3.4922,-3.4922,-3.5294,-3.5418,-3.5418,-3.5418,-3.5418,-3.5418,-3.5418,-3.5418,-3.5418,-1.3603,-1.4441,0.0,-1.6846,-1.7549,-1.783,-1.7127,-1.7127,-1.7409,-1.8272,-1.784,-1.7981,-1.9541,0.0,0.0,0.0,0.0,0.0,0.0,0.0,-1.9111,-2.0665,-2.0665,-2.0665,-2.0665,-2.0665,-2.0665,-2.0665,-2.0665,-2.0665,-2.0665,-2.0804,-2.0943,-2.0943,-2.1358,0.0,-2.1484,0.0,0.0,0.0,0.0,0.0,0.0,-2.2859,-2.2859,-2.2859,-2.2859,-2.2859,-2.2859,0.0,-2.2859,0.0,0.0,0.0,0.0,0.0,0.0,0.0,0.0,0.0,0.0,0.0,0.0,0.0,-2.2859,0.0,-2.2996,0.0,0.0,0.0,0.0,0.0,0.0,0.0,-2.6234,0.0,0.0,0.0,0.0,0.0,0.0,0.0,0.0,0.0,0.0,0.0,-3.3418,-3.3418,-3.3418,-3.3418,-3.3418,-3.3418,-3.3418,-3.3418,-3.3418,-3.3418,-3.3418,-3.3418,-3.3544,-3.367,-3.367,-3.3796,-3.3922,-3.4173,-3.4298,-3.4548,-3.4922,-3.5046,-3.517,-3.5418,-3.5418,-3.5418,-3.5418,-3.5418,-3.5418,-3.5418,-1.3031,0.0,0.0,0.0,-1.5849,-1.599,-1.5566,-1.515,-1.5434,-1.6997,0.0,0.0,-1.9251,-1.8681,0.0,0.0,0.0,-1.6715,0.0,0.0,-1.784,0.0,0.0,0.0,0.0,-1.9669,-1.982,-2.0665,-2.0249,-2.0249,-2.0665,-2.0665,-2.0665,-2.0665,0.0,-2.1069,-2.1081,0.0,0.0,-2.1496,-2.1772,-2.2035,-2.231,-2.2722,-2.2859,-2.2859,-2.2859,-2.2859,-2.2859,-2.2859,-2.2859,0.0,-2.2859,0.0,0.0,0.0,0.0,0.0,-2.2859,0.0,0.0,0.0,0.0,0.0,0.0,0.0,0.0,0.0,0.0,0.0,0.0,0.0,0.0,0.0,0.0,-2.6234,0.0,0.0,0.0,0.0,0.0,0.0,0.0,0.0,0.0,-3.2765,-3.2765,-3.3019,-3.3418,-3.3418,-3.3418,-3.3418,-3.3418,-3.3418,-3.3418,-3.3418,-3.3418,-3.3418,-3.3418,-3.3418,-3.3418,-3.3418,-3.3544,-3.3796,-3.3922,-3.4173,-3.4673,-3.4673,-3.4922,-3.5294,-3.5294,-3.5294,-3.5418,-3.5418,-3.5418,-3.5418,-1.1619,-1.2896,0.0,0.0,0.0,-1.5566,-1.4164,-1.2753,-1.233,0.0,0.0,0.0,0.0,0.0,0.0,0.0,0.0,-1.2466,-1.388,0.0,-1.4725,0.0,0.0,0.0,0.0,0.0,-1.7689,-2.0665,-1.9251,-1.9251,-2.0665,-2.0665,-2.0665,-2.0665,-2.0665,-2.0665,-2.0804,-2.1081,-2.1081,-2.0804,-2.1484,-2.2035,-2.231,0.0,-2.2859,-2.2859,-2.2859,0.0,0.0,-2.2859,-2.2859,0.0,0.0,0.0,0.0,0.0,0.0,0.0,0.0,0.0,0.0,-2.2859,0.0,0.0,0.0,0.0,-2.3406,0.0,0.0,0.0,0.0,0.0,0.0,0.0,0.0,0.0,0.0,0.0,0.0,0.0,0.0,0.0,0.0,0.0,-2.99,-3.1304,-3.1322,-3.1963,-3.3292,-3.3418,-3.3418,-3.3418,-3.3418,-3.3418,-3.3418,-3.3418,-3.3418,-3.3418,-3.3418,-3.3418,-3.3418,-3.3418,-3.3418,-3.3418,-3.3796,-3.3922,-3.3922,-3.4298,-3.4673,-3.4922,-3.4922,-3.517,-3.5418,-3.5418,-3.5418,-3.5418,0.0,0.0,0.0,0.0,0.0,-1.2888,-1.2466,-1.19,0.0,0.0,0.0,0.0,0.0,0.0,-1.4441,0.0,0.0,-1.3317,-1.388,-1.388,0.0,0.0,0.0,-1.6272,0.0,0.0,0.0,0.0,-1.8121,-1.8692,-1.9251,-2.0237,-2.0665,-2.0665,0.0,-2.0098,0.0,0.0,0.0,0.0,0.0,-2.078,-2.2035,0.0,0.0,-2.2859,-2.2859,-2.2859,0.0,-2.2859,-2.2859,-2.2859,-2.2859,-2.2859,-2.2859,-2.2859,-2.2859,0.0,0.0,0.0,-2.2859,-2.2859,0.0,0.0,0.0,0.0,0.0,0.0,0.0,0.0,0.0,0.0,0.0,0.0,0.0,0.0,0.0,0.0,0.0,0.0,0.0,0.0,0.0,0.0,0.0,-3.1304,-3.211,-3.2892,-3.3418,-3.3418,-3.3418,-3.3418,-3.3418,-3.3418,-3.3418,-3.3418,-3.3418,-3.3418,-3.3418,-3.3418,-3.3418,-3.3418,-3.3418,-3.3418,-3.3544,-3.367,-3.3922,-3.4047,-3.4423,-3.4922,-3.4922,-3.5046,-3.5418,-3.5418,-3.5418,-3.5418,-1.1619,0.0,0.0,0.0,0.0,0.0,-1.1619,-1.1619,0.0,0.0,-1.3031,0.0,-1.515,0.0,-1.4298,0.0,-1.346,-1.3031,-1.3031,-1.3031,0.0,-1.4441,-1.4441,0.0,0.0,0.0,0.0,0.0,0.0,-1.7419,-1.8412,-1.939,-2.0098,-2.0665,0.0,-1.982,0.0,0.0,-1.8971,0.0,0.0,-1.8809,0.0,0.0,-2.1459,-2.2859,0.0,-2.2448,-2.2859,-2.2859,-2.2859,-2.2859,-2.2859,-2.2859,-2.2859,-2.2859,-2.2859,-2.2859,-2.2859,-2.2859,0.0,-2.2859,-2.2859,0.0,-2.327,0.0,0.0,0.0,0.0,0.0,0.0,0.0,0.0,0.0,0.0,0.0,0.0,-2.5052,0.0,0.0,0.0,0.0,0.0,0.0,-2.9752,-3.1194,-3.1726,-3.2384,0.0,0.0,-3.3418,-3.3418,-3.3418,-3.3418,-3.3418,-3.3418,-3.3418,-3.3418,-3.3418,-3.3418,-3.3418,-3.3418,-3.3418,-3.3418,-3.3418,-3.3544,-3.367,-3.367,-3.4047,-3.4548,-3.4548,-3.4797,-3.5294,-3.5294,-3.5418,-3.5418,0.0,0.0,0.0,0.0,-1.1619,0.0,0.0,0.0,-1.1619,0.0,-1.1619,-1.2187,-1.3595,-1.2466,-1.2187,-1.3595,-1.2466,0.0,-1.1619,-1.1619,0.0,0.0,-1.1619,-1.233,-1.3737,0.0,0.0,0.0,0.0,0.0,-1.8121,-1.8272,-1.9111,-2.0527,-2.0665,0.0,-1.8261,-1.8412,-1.7549,-1.6131,-1.599,-1.6263,-1.6685,-1.6545,-1.9066,-2.2448,-2.1044,-2.1471,-2.2859,-2.2859,-2.2859,-2.2859,-2.2859,-2.2859,-2.2859,-2.2859,-2.2859,-2.2859,-2.2859,-2.2859,-2.2859,-2.2859,0.0,0.0,0.0,0.0,-2.3966,0.0,0.0,0.0,0.0,0.0,0.0,-2.4645,-2.4916,-2.5052,0.0,0.0,0.0,0.0,0.0,0.0,0.0,-2.5846,-2.6886,-3.0918,-3.003,-3.0419,0.0,0.0,-3.3292,-3.3418,-3.3418,-3.3418,-3.3418,-3.3418,-3.3418,-3.3418,-3.3418,-3.3418,-3.3418,-3.3418,-3.3418,-3.3418,-3.3418,-3.3418,-3.3418,-3.3418,-3.3544,-3.3922,-3.3922,-3.4298,-3.4922,-3.5294,-3.5418,-3.5418,-1.164,-1.1619,-1.1619,0.0,-1.1619,-1.1619,0.0,0.0,0.0,0.0,-1.1619,-1.1763,-1.2187,-1.1907,-1.1763,-1.2187,-1.1756,0.0,0.0,0.0,0.0,-1.1619,-1.1619,-1.1763,-1.2187,-1.1763,0.0,-1.2753,0.0,0.0,-1.5159,-1.7419,-1.8552,-1.8971,0.0,0.0,-1.6705,-1.784,-1.7549,-1.599,-1.4867,-1.5425,0.0,0.0,-1.5707,-1.9206,-1.9912,-2.0617,-2.1333,-2.2448,-2.2859,-2.2859,-2.2859,-2.2859,-2.2859,-2.2859,-2.2859,-2.2859,-2.2859,-2.2859,-2.2859,-2.2859,-2.2859,-2.2996,0.0,0.0,0.0,0.0,0.0,0.0,0.0,0.0,0.0,0.0,0.0,0.0,0.0,0.0,0.0,-2.5052,0.0,0.0,-2.5577,-2.6234,-2.7419,-2.9639,-2.9378,0.0,0.0,0.0,0.0,-3.3418,-3.3418,-3.3418,-3.3418,-3.3418,-3.3418,-3.3418,-3.3418,-3.3418,-3.3418,-3.3418,-3.3418,-3.3418,-3.3418,-3.3418,-3.3418,-3.3418,-3.3544,-3.3922,-3.3922,-3.4298,-3.4922,-3.5294,-3.5418,-3.5418,-1.1728,0.0,0.0,-1.1619,0.0,0.0,-1.1619,0.0,0.0,-1.1619,-1.1619,0.0,-1.1619,-1.1619,-1.1619,-1.1619,-1.1619,0.0,0.0,0.0,0.0,-1.1619,-1.1619,-1.1619,-1.1619,-1.1619,0.0,-1.1619,0.0,0.0,-1.388,-1.5584,-1.6846,-1.7409,0.0,-1.7409,0.0,-1.5301,-1.4875,-1.4014,-1.3174,0.0,0.0,-1.261,-1.3317,-1.5566,-1.7248,-1.8659,-1.9924,-2.1321,-2.1885,-2.2022,-2.2722,-2.2859,-2.2859,-2.2859,-2.2859,-2.2859,-2.2859,-2.2859,-2.2859,-2.2859,-2.2859,-2.2996,-2.327,-2.3406,-2.3543,0.0,0.0,0.0,0.0,0.0,0.0,0.0,0.0,0.0,0.0,0.0,0.0,0.0,-2.5052,0.0,-2.5052,-2.5846,-2.702,-2.8986,-2.8592,0.0,0.0,0.0,0.0,-3.3418,-3.2765,-3.2765,-3.3418,-3.2765,-3.2765,-3.3418,-3.3418,-3.3418,-3.3418,-3.3418,-3.3418,-3.3418,-3.3418,-3.3418,-3.3418,-3.3418,-3.3544,-3.367,-3.3796,-3.4173,-3.4673,-3.5046,-3.5294,-3.5418,0.0,0.0,0.0,0.0,0.0,0.0,0.0,-1.1619,0.0,-1.1619,0.0,-1.1619,-1.1619,-1.1619,-1.1619,-1.1619,0.0,-1.1619,-1.1619,-1.1619,-1.1619,-1.1619,-1.1619,-1.1619,-1.1619,-1.1619,0.0,0.0,0.0,-1.233,-1.3603,-1.388,-1.4583,-1.5849,-1.599,0.0,0.0,-1.2187,-1.1619,-1.1619,-1.1619,-1.1619,-1.1619,-1.1619,-1.1907,-1.2481,-1.4164,-1.6131,-1.8239,-1.9785,-2.0491,-2.0768,-2.216,-2.2722,-2.2859,-2.2859,-2.2859,-2.2859,-2.2859,-2.2859,-2.2859,-2.2859,-2.2859,-2.2996,-2.327,-2.327,-2.3406,-2.3816,-2.4088,-2.436,0.0,0.0,0.0,0.0,0.0,0.0,0.0,0.0,0.0,0.0,0.0,0.0,-2.5052,-2.5052,-2.61,-2.8723,0.0,0.0,0.0,0.0,0.0,-3.3019,-3.1982,-3.1835,-3.2892,0.0,-3.1963,-3.3165,-3.3292,-3.3418,-3.3418,-3.3418,-3.3418,-3.3418,-3.3418,-3.3418,-3.3418,-3.3418,-3.3418,-3.3418,-3.367,-3.4047,-3.4423,-3.4673,-3.5046,-3.5294,0.0,0.0,0.0,0.0,0.0,-1.1619,-1.1619,-1.1619,-1.1619,-1.1619,-1.1619,-1.1619,-1.1619,-1.1619,-1.1619,-1.1619,-1.1619,0.0,0.0,0.0,0.0,-1.1619,-1.1619,-1.1619,-1.1619,-1.1619,-1.1619,0.0,-1.1619,-1.1763,-1.2043,-1.3317,-1.4022,-1.4307,-1.5566,0.0,-1.3737,-1.2187,0.0,-1.1619,-1.1619,-1.1619,-1.1619,-1.1619,-1.1907,-1.2338,-1.2896,-1.4449,-1.6423,-1.8239,-1.9646,-2.0629,-2.0906,-2.1885,-2.2859,-2.2859,-2.2859,-2.2859,-2.2859,-2.2859,-2.2859,-2.2859,-2.2859,-2.2859,-2.2996,-2.2996,-2.3133,-2.3406,-2.3543,-2.3816,-2.436,0.0,0.0,0.0,0.0,0.0,0.0,0.0,0.0,0.0,0.0,-2.5052,0.0,-2.5052,0.0,0.0,0.0,0.0,0.0,0.0,0.0,0.0,-3.1451,0.0,0.0,0.0,-3.1451,-3.1707,-3.2892,-3.3418,-3.3418,-3.3418,-3.3418,-3.3418,-3.3418,-3.3418,-3.3418,-3.3418,-3.3418,-3.3418,-3.3418,-3.367,-3.4047,-3.4423,-3.4673,-3.5046,0.0,0.0,0.0,0.0,0.0,0.0,0.0,-1.1619,0.0,-1.1619,-1.1619,-1.1619,-1.1619,-1.1619,-1.1619,-1.1619,-1.1619,-1.1619,-1.1619,-1.1619,-1.1619,-1.1619,-1.1619,0.0,-1.1619,-1.1619,-1.1619,-1.1619,-1.1619,-1.1619,-1.1619,-1.2323,-1.2753,-1.2753,-1.346,-1.3317,0.0,0.0,0.0,-1.1619,-1.1619,-1.1619,-1.1619,-1.1619,-1.1763,-1.1907,-1.261,-1.3317,-1.4449,-1.6564,-1.7689,-1.853,-2.0074,-2.1044,-2.1885,-2.2722,-2.2859,-2.2859,-2.2859,-2.2859,-2.2859,-2.2859,-2.2859,-2.2859,-2.2859,-2.2859,-2.2996,-2.3543,-2.3679,-2.3952,-2.4645,-2.4916,0.0,0.0,0.0,0.0,0.0,0.0,0.0,0.0,0.0,0.0,0.0,0.0,0.0,0.0,0.0,-2.6234,-2.8969,0.0,-2.8723,0.0,0.0,0.0,0.0,0.0,0.0,-3.029,-3.0936,-3.1212,-3.1212,-3.1982,-3.2365,-3.2365,-3.3019,-3.3418,-3.3418,-3.3418,-3.3418,-3.3418,-3.3418,-3.367,-3.4173,-3.4298,-3.4673,-3.517,0.0,-1.1742,0.0,0.0,-1.1619,0.0,-1.1619,-1.1619,-1.1619,-1.1619,-1.1619,-1.1619,-1.1619,-1.1619,-1.1619,-1.1619,-1.1619,-1.1619,-1.1619,-1.1619,-1.1619,-1.1619,-1.1619,-1.1619,-1.1619,-1.1619,-1.1619,0.0,-1.1619,-1.1619,-1.1619,-1.1619,-1.1619,-1.1619,0.0,0.0,0.0,0.0,-1.1619,-1.1619,-1.1619,-1.1619,-1.1619,-1.1619,-1.1619,-1.1763,-1.2466,-1.2753,-1.3039,-1.5026,-1.5867,-1.6574,-1.9228,-2.0352,-2.0906,-2.2448,-2.2859,-2.2859,-2.2859,-2.2859,-2.2859,-2.2859,-2.2859,-2.2859,-2.2859,-2.2859,-2.3133,-2.383,-2.4088,-2.4374,-2.5052,-2.5052,0.0,0.0,0.0,0.0,0.0,0.0,0.0,0.0,0.0,0.0,-2.5052,0.0,0.0,0.0,0.0,-2.5712,-2.702,-2.7153,-2.7684,0.0,0.0,-2.7551,-2.8328,0.0,-2.7668,-2.8723,-2.9117,-2.9248,-2.9248,-3.0419,-3.1065,-3.1322,-3.2492,-3.3146,-3.3418,-3.3418,-3.3418,-3.3418,-3.3418,-3.367,-3.4173,-3.4298,-3.4673,-3.517,0.0,0.0,0.0,0.0,0.0,0.0,0.0,-1.1619,-1.1619,-1.1619,-1.1619,-1.1619,-1.1619,-1.1619,-1.1619,-1.1619,-1.1619,-1.1619,-1.1619,-1.1619,-1.1619,-1.1619,-1.1619,-1.1619,-1.1619,-1.1619,-1.1619,0.0,0.0,-1.1619,0.0,-1.1619,-1.1619,0.0,0.0,0.0,0.0,-1.1619,-1.1619,-1.1619,-1.1619,-1.1619,-1.1619,-1.1619,-1.1619,-1.1763,-1.2466,-1.2753,-1.2896,-1.3753,-1.5026,-1.6433,-1.81,-1.9507,-2.0906,-2.2448,-2.2859,-2.2859,-2.2859,-2.2859,-2.2859,-2.2859,-2.2859,-2.2859,-2.2859,-2.2859,-2.3133,-2.383,-2.451,-2.5052,-2.5052,-2.5052,-2.5052,0.0,0.0,0.0,0.0,0.0,0.0,0.0,0.0,0.0,0.0,-2.5052,0.0,0.0,-2.5052,-2.5712,-2.702,-2.7153,-2.7153,-2.7286,-2.7153,-2.6635,-2.5457,-2.6501,-2.7153,-2.7286,-2.8592,-2.9248,-2.9248,-2.9378,-3.016,-3.1322,-3.1451,-3.2237,-3.3418,-3.3418,-3.3418,-3.3418,-3.3418,-3.3418,-3.3544,-3.3796,-3.4173,-3.4548,0.0,0.0,0.0,0.0,0.0,0.0,0.0,-1.1619,-1.1619,-1.1619,-1.1619,-1.1619,-1.1619,-1.1619,-1.1619,-1.1619,-1.1619,-1.1619,-1.1619,-1.1619,-1.1619,-1.1619,-1.1619,-1.1619,-1.1619,-1.1619,-1.1619,0.0,0.0,0.0,0.0,0.0,0.0,0.0,0.0,-1.1619,-1.1619,-1.1619,-1.1619,-1.1619,-1.1619,-1.1619,-1.1619,-1.1619,-1.1619,-1.1763,-1.2466,-1.2753,-1.2896,-1.3619,-1.4324,-1.5026,-1.6574,-1.811,-1.9507,-2.1044,-2.216,-2.2859,-2.2859,-2.2859,-2.2859,-2.2859,-2.2859,-2.2859,-2.2859,-2.2859,-2.2996,-2.3543,-2.4224,-2.4781,-2.4781,-2.4916,-2.5052,0.0,0.0,0.0,0.0,0.0,0.0,0.0,0.0,0.0,0.0,0.0,0.0,0.0,0.0,-2.5322,-2.5846,-2.5846,-2.5846,-2.5846,0.0,-2.5577,-2.5052,-2.5577,-2.5846,-2.5846,-2.6501,-2.6769,-2.6769,-2.7551,-2.8723,-3.003,-3.0918,-3.1579,-3.2237,-3.3019,-3.3418,-3.3418,-3.3418,-3.3544,-3.367,-3.3796,-3.4298,-3.4673,-1.2094,0.0,-1.1789,0.0,-1.1619,-1.1619,-1.1619,-1.1619,-1.1619,-1.1619,-1.1619,-1.1619,-1.1619,-1.1619,-1.1619,-1.1619,-1.1619,-1.1619,-1.1619,-1.1619,-1.1619,-1.1619,-1.1619,0.0,-1.1619,-1.1619,-1.1619,-1.1619,-1.1619,0.0,0.0,0.0,0.0,0.0,-1.1619,-1.1619,-1.1619,-1.1619,-1.1619,-1.1619,-1.1619,-1.1619,-1.1619,-1.1619,-1.1619,-1.1619,-1.233,-1.2753,-1.2896,-1.3468,-1.3761,-1.4181,-1.5593,-1.6846,-1.811,-2.0063,-2.1333,-2.231,-2.2722,-2.2859,-2.2859,-2.2859,-2.2859,-2.2859,-2.2859,-2.2859,-2.2996,-2.327,-2.3952,-2.436,-2.4495,-2.4781,-2.4916,-2.5052,0.0,0.0,0.0,0.0,0.0,0.0,-2.5052,-2.5052,-2.5052,-2.5052,0.0,0.0,0.0,0.0,-2.5052,-2.5052,-2.5052,0.0,0.0,0.0,-2.5052,-2.5052,-2.5052,-2.5052,-2.5052,-2.5052,-2.5187,-2.6501,-2.7668,-2.8723,-3.003,-3.0936,-3.1451,-3.2365,-3.3019,-3.3418,-3.3418,-3.3544,-3.3796,-3.3796,-3.4173,-3.4797,-1.2094,-1.1938,-1.1789,-1.1647,-1.1619,-1.1619,-1.1619,-1.1619,-1.1619,-1.1619,-1.1619,-1.1619,-1.1619,-1.1619,-1.1619,-1.1619,-1.1619,-1.1619,-1.1619,-1.1619,-1.1619,0.0,0.0,-1.1619,-1.1619,-1.1619,-1.1619,-1.1619,0.0,0.0,-1.1619,0.0,-1.1619,-1.1619,-1.1619,-1.1619,-1.1619,-1.1619,-1.1619,-1.1619,-1.1619,-1.1619,-1.1619,-1.1619,-1.1619,-1.1619,-1.2051,-1.2474,-1.2896,-1.3182,-1.3611,-1.4181,-1.5593,-1.615,-1.6715,-1.9785,-2.0629,-2.0906,-2.2448,-2.2859,-2.2859,-2.2859,-2.2859,-2.2859,-2.2859,-2.2859,-2.2996,-2.327,-2.3679,-2.4102,-2.4495,-2.4495,-2.4645,-2.5052,0.0,0.0,0.0,0.0,0.0,0.0,-2.5052,-2.5052,-2.5052,-2.5052,0.0,0.0,0.0,0.0,0.0,0.0,0.0,-2.5052,-2.5052,0.0,-2.5052,-2.5052,-2.5052,-2.5052,-2.5052,-2.5052,-2.5187,-2.6501,-2.7153,-2.7153,-2.8592,-3.003,-3.1322,-3.1322,-3.211,-3.3418,-3.3418,-3.3418,-3.3418,-3.3418,-3.3796,-3.4423,-1.2108,-1.202,-1.1911,-1.166,-1.1619,-1.1619,-1.1619,-1.1619,-1.1619,-1.1619,-1.1619,-1.1619,-1.1619,-1.1619,-1.1619,0.0,-1.1619,-1.1619,0.0,-1.1619,-1.1619,-1.1619,-1.1619,-1.1619,-1.1619,-1.1619,-1.1619,-1.1619,0.0,0.0,0.0,-1.1619,-1.1619,-1.1619,-1.1619,-1.1619,-1.1619,-1.1619,-1.1619,-1.1619,-1.1619,-1.1619,-1.1619,-1.1619,-1.1619,-1.1619,-1.233,-1.2753,-1.2896,-1.3468,-1.3761,-1.4047,-1.4466,-1.531,-1.6433,-1.853,-1.9785,-2.0906,-2.2448,-2.2859,-2.2859,-2.2859,-2.2859,-2.2859,-2.2859,-2.2859,-2.2859,-2.2996,-2.3406,-2.3679,-2.3679,-2.3952,-2.4224,-2.4374,-2.451,0.0,0.0,0.0,0.0,-2.5052,-2.5052,-2.5052,0.0,-2.5052,0.0,0.0,0.0,0.0,0.0,0.0,0.0,0.0,-2.5052,0.0,-2.5052,-2.5052,-2.5052,-2.5052,-2.5052,-2.5052,-2.5052,-2.5577,-2.5712,-2.5846,-2.7153,-2.8065,-2.846,-2.9509,-3.0678,-3.1963,-3.1963,-3.2492,-3.3418,-3.3418,-3.367,-3.4047,-1.2121,-1.1911,-1.1817,-1.1674,-1.1476,-1.1476,-1.1619,-1.1619,-1.1619,-1.1619,-1.1619,-1.1619,-1.1619,-1.1619,0.0,-1.1619,-1.1619,-1.1619,-1.1619,-1.1619,-1.1619,-1.1619,-1.1619,-1.1619,-1.1619,-1.1619,0.0,-1.1619,-1.1619,-1.1619,-1.1619,-1.1619,-1.1619,-1.1619,-1.1619,-1.1619,-1.1619,-1.1619,-1.1619,-1.1619,-1.1619,-1.1619,-1.1619,-1.1619,-1.1619,-1.1619,-1.233,-1.261,-1.2896,-1.3468,-1.3761,-1.3904,-1.3904,-1.4466,-1.5593,-1.7127,-1.867,-2.0063,-2.1596,-2.2448,-2.2859,-2.2859,-2.2859,-2.2859,-2.2859,-2.2859,-2.2859,-2.2859,-2.3133,-2.327,-2.3406,-2.3543,-2.3816,-2.3966,-2.4238,-2.4374,-2.4374,0.0,0.0,0.0,0.0,0.0,0.0,-2.4916,-2.4916,0.0,0.0,0.0,0.0,0.0,0.0,-2.5052,-2.5052,0.0,-2.5052,-2.5052,-2.5052,-2.5052,-2.5052,-2.5052,-2.5052,-2.5052,-2.5052,-2.5187,-2.5981,-2.662,-2.7153,-2.8065,-2.9492,-3.1322,-3.1322,-3.211,-3.3418,-3.3418,-3.367,-3.3922,-1.1985,-1.1768,-1.1528,0.0,-1.1194,0.0,-1.1476,-1.1619,-1.1619,-1.1619,-1.1619,-1.1619,-1.1619,-1.1619,-1.1619,-1.1619,0.0,0.0,0.0,-1.1619,-1.1619,-1.1619,-1.1619,-1.1619,-1.1619,-1.1619,-1.1619,-1.1619,-1.1619,-1.1619,-1.1619,-1.1619,-1.1619,-1.1619,-1.1619,-1.1619,-1.1619,-1.1619,-1.1619,-1.1619,-1.1619,-1.1619,-1.1619,-1.1619,-1.1619,-1.1619,-1.2051,-1.2474,-1.2896,-1.3182,-1.3611,-1.3904,-1.3904,-1.3904,-1.4181,-1.5735,-1.7127,-1.8659,-2.0213,-2.1747,-2.2859,-2.2859,-2.2859,-2.2859,-2.2859,-2.2859,-2.2859,-2.2859,-2.2859,-2.2996,-2.327,-2.3406,-2.3543,-2.3816,-2.3952,-2.3952,-2.3952,-2.4224,-2.4495,0.0,0.0,0.0,0.0,-2.4645,-2.4645,0.0,0.0,0.0,0.0,0.0,-2.5052,-2.5052,-2.5052,-2.5052,-2.5052,-2.5052,-2.5052,-2.5052,-2.5052,-2.5052,-2.5052,-2.5052,-2.5052,-2.5052,-2.5052,-2.5846,-2.702,-2.702,-2.8575,-3.1047,-3.1176,-3.1963,-3.3292,-3.3418,-3.367,-3.3922,0.0,0.0,-1.0959,-1.0791,-1.0964,-1.1044,-1.1188,-1.1332,-1.1619,-1.1619,-1.1619,-1.1619,-1.1619,-1.1619,-1.1619,-1.1619,-1.1619,-1.1619,-1.1619,-1.1619,-1.1619,-1.1619,-1.1619,-1.1619,-1.1619,-1.1619,-1.1619,-1.1619,-1.1619,-1.1619,-1.1619,-1.1619,-1.1619,-1.1619,-1.1619,-1.1619,-1.1619,-1.1619,-1.1619,-1.1619,-1.1619,-1.1619,-1.1619,-1.1619,-1.1619,-1.1619,-1.233,-1.2753,-1.2896,-1.3468,-1.3753,-1.3904,-1.3904,-1.3904,-1.4181,-1.5735,-1.7127,-1.8659,-2.0213,-2.1747,-2.2859,-2.2859,-2.2859,-2.2859,-2.2859,-2.2859,-2.2859,-2.2859,-2.2859,-2.2859,-2.2996,-2.2996,-2.2996,-2.3133,-2.3406,-2.3543,-2.3543,-2.3816,-2.4088,0.0,-2.4224,-2.4238,-2.4238,-2.4224,-2.4238,0.0,0.0,0.0,0.0,-2.4781,-2.4781,-2.5052,-2.5052,-2.5052,-2.5052,-2.5052,-2.5052,-2.5052,-2.5052,-2.5052,-2.5052,-2.5052,-2.5052,-2.5052,-2.5052,-2.5322,-2.5577,-2.5577,-2.6635,-2.8196,-2.9248,-3.0549,-3.1963,-3.3019,-3.367,-3.3922,-1.0944,-1.0806,-1.0673,-1.0534,-1.0547,-1.0606,-1.075,-1.1044,-1.1332,-1.1332,-1.1476,-1.1619,-1.1619,-1.1619,-1.1619,-1.1619,-1.1619,-1.1619,-1.1619,-1.1619,-1.1619,-1.1619,-1.1619,-1.1619,-1.1619,-1.1619,-1.1619,-1.1619,-1.1619,-1.1619,-1.1619,-1.1619,-1.1619,-1.1619,-1.1619,-1.1619,-1.1619,-1.1619,-1.1619,-1.1619,-1.1619,-1.1619,-1.1619,-1.1619,-1.1619,-1.1619,-1.233,-1.2617,-1.2896,-1.3468,-1.3761,-1.3904,-1.3904,-1.3904,-1.4039,-1.4884,-1.615,-1.7549,-1.839,-1.9646,-2.1044,-2.1747,-2.2448,-2.2859,-2.2859,-2.2859,-2.2859,-2.2859,-2.2859,-2.2859,-2.2859,-2.2859,-2.2859,-2.2859,-2.2996,-2.3133,-2.3133,-2.3543,-2.3679,-2.3679,-2.3816,-2.3966,-2.3966,-2.3816,-2.3816,-2.4224,-2.4088,0.0,-2.4645,-2.4374,-2.451,-2.4781,-2.4645,-2.4645,-2.4645,-2.4781,-2.4781,-2.4781,-2.5052,-2.5052,-2.5052,-2.5052,-2.5052,-2.5052,-2.5052,-2.5052,-2.5052,-2.5052,-2.5846,-2.7153,-2.7932,-2.9117,-3.0419,-3.1194,-3.211,-3.3,-1.0815,-1.0521,-1.0231,-1.0417,-1.0123,-1.0023,-1.0311,-1.075,-1.09,-1.1044,-1.1332,-1.1476,-1.1619,-1.1619,-1.1619,-1.1619,-1.1619,-1.1619,-1.1619,-1.1619,-1.1619,-1.1619,-1.1619,-1.1619,-1.1619,-1.1619,-1.1619,-1.1619,-1.1619,-1.1619,-1.1619,-1.1619,-1.1619,-1.1619,-1.1619,-1.1619,-1.1619,-1.1619,-1.1619,-1.1619,-1.1619,-1.1619,-1.1619,-1.1619,-1.1619,-1.1619,-1.2051,-1.2474,-1.2896,-1.3182,-1.3611,-1.3904,-1.3904,-1.3904,-1.3904,-1.3904,-1.475,-1.5877,-1.6009,-1.7268,-1.8798,-2.0213,-2.1609,-2.2585,-2.2859,-2.2859,-2.2859,-2.2859,-2.2859,-2.2859,-2.2859,-2.2859,-2.2859,-2.2859,-2.2859,-2.2859,-2.2859,0.0,-2.327,-2.327,-2.3679,-2.3816,-2.3816,-2.3543,-2.3543,-2.3816,-2.3543,-2.3543,-2.3966,-2.3952,-2.4088,-2.436,-2.4088,-2.3966,-2.3966,-2.436,-2.4495,-2.4495,-2.4916,-2.5052,-2.5052,-2.5052,-2.5052,-2.5052,-2.5052,-2.5052,-2.5052,-2.5052,-2.5712,-2.6753,-2.702,-2.78,-2.8854,-2.9117,-3.0142,-3.1689,-1.0153,-0.9971,-0.9816,-0.9794,-0.9894,-0.9879,-1.0023,-1.0311,-1.075,-1.09,-1.1044,-1.1188,-1.1619,-1.1619,-1.1619,-1.1619,-1.1619,-1.1619,-1.1619,-1.1619,-1.1619,-1.1619,-1.1619,-1.1619,-1.1619,-1.1619,-1.1619,-1.1619,-1.1619,-1.1619,-1.1619,-1.1619,-1.1619,-1.1619,-1.1619,-1.1619,-1.1619,-1.1619,-1.1619,-1.1619,-1.1619,-1.1619,-1.1619,-1.1619,-1.1619,-1.1619,-1.2051,-1.2474,-1.2896,-1.3182,-1.3611,-1.3904,-1.3904,-1.3904,-1.3904,-1.3904,-1.4039,-1.4466,-1.5726,-1.7268,-1.8798,-2.0213,-2.0768,-2.1333,-2.2585,-2.2859,-2.2859,-2.2859,-2.2859,-2.2859,-2.2859,-2.2859,-2.2859,-2.2859,-2.2859,-2.2859,-2.2859,0.0,-2.2996,-2.2996,-2.2996,-2.3133,-2.3133,-2.2996,-2.3133,-2.3406,-2.3406,-2.3543,-2.3966,-2.3679,-2.3543,-2.3543,-2.3816,-2.3966,-2.3966,-2.436,-2.4495,-2.4495,-2.4916,-2.5052,-2.5052,-2.5052,-2.5052,-2.5052,-2.5052,-2.5052,-2.5052,-2.5052,-2.5187,-2.5577,-2.662,-2.7286,-2.7551,-2.8723,-2.977,-3.066,-1.0019,-0.9829,-0.9671,-0.9671,-0.9612,-0.959,-0.959,-0.9879,-1.0167,-1.0462,-1.075,-1.1044,-1.1332,-1.1476,-1.1619,-1.1619,-1.1619,-1.1619,-1.1619,-1.1619,-1.1619,-1.1619,-1.1619,-1.1619,-1.1619,-1.1619,-1.1619,-1.1619,-1.1619,-1.1619,-1.1619,-1.1619,-1.1619,-1.1619,-1.1619,-1.1619,-1.1619,-1.1619,-1.1619,-1.1619,-1.1619,-1.1619,-1.1619,-1.1619,-1.1619,-1.1619,-1.1763,-1.233,-1.2753,-1.3039,-1.3468,-1.3904,-1.3904,-1.3904,-1.3904,-1.3904,-1.3904,-1.4039,-1.4742,-1.6009,-1.7549,-1.9089,-2.0063,-2.1044,-2.2585,-2.2859,-2.2859,-2.2859,-2.2859,-2.2859,-2.2859,-2.2859,-2.2859,-2.2859,-2.2859,0.0,0.0,-2.2859,-2.2859,-2.2859,-2.2859,-2.2859,-2.2859,-2.2859,-2.2996,-2.3133,-2.3133,-2.327,-2.3406,-2.327,-2.3133,-2.3133,-2.327,-2.3406,-2.3406,-2.3952,-2.4224,-2.4238,-2.4781,-2.5052,-2.5052,-2.5052,-2.5052,-2.5052,-2.5052,-2.5052,-2.5052,-2.5052,-2.5052,-2.5187,-2.5846,-2.5965,-2.61,-2.6769,-2.78,-2.8969,-1.0019,-0.9829,-0.9671,-0.9671,-0.9465,-0.9302,-0.9302,-0.959,-0.9735,-0.9879,-1.0462,-1.09,-1.1044,-1.1332,-1.1619,-1.1619,-1.1619,-1.1619,-1.1619,-1.1619,-1.1619,-1.1619,-1.1619,-1.1619,-1.1619,-1.1619,-1.1619,-1.1619,-1.1619,-1.1619,-1.1619,-1.1619,-1.1619,-1.1619,-1.1619,-1.1619,-1.1619,-1.1619,-1.1619,-1.1619,-1.1619,-1.1619,-1.1619,-1.1619,-1.1619,-1.1619,-1.1619,-1.2043,-1.261,-1.2753,-1.3182,-1.3761,-1.3896,-1.3904,-1.3904,-1.3904,-1.3904,-1.3904,-1.3904,-1.4742,-1.6009,-1.7959,-1.9228,-2.0629,-2.2448,-2.2859,-2.2859,-2.2859,-2.2859,-2.2859,-2.2859,-2.2859,-2.2859,-2.2859,0.0,0.0,0.0,-2.2859,-2.2859,-2.2859,-2.2859,-2.2859,-2.2859,-2.2859,-2.2859,-2.2859,-2.2859,-2.2859,-2.2859,-2.2859,-2.2859,-2.2859,-2.2859,-2.2859,-2.2859,-2.3679,-2.3966,-2.3966,-2.4781,-2.5052,-2.5052,-2.5052,-2.5052,-2.5052,-2.5052,-2.5052,-2.5052,-2.5052,-2.5052,-2.5052,-2.5052,-2.5052,-2.5052,-2.5052,-2.5965,-2.727,-1.0019,-0.9829,-0.9671,-0.9671,-0.9465,-0.9302,-0.9302,-0.9302,-0.9446,-0.9879,-1.0311,-1.0599,-1.09,-1.1332,-1.1619,-1.1619,-1.1619,-1.1619,-1.1619,-1.1619,-1.1619,-1.1619,-1.1619,-1.1619,-1.1619,-1.1619,-1.1619,-1.1619,-1.1619,-1.1619,-1.1619,-1.1619,-1.1619,-1.1619,-1.1619,-1.1619,-1.1619,-1.1619,-1.1619,-1.1619,-1.1619,-1.1619,-1.1619,-1.1619,-1.1619,-1.1619,-1.1619,-1.1907,-1.2338,-1.261,-1.3039,-1.3468,-1.3761,-1.3904,-1.3904,-1.3904,-1.3904,-1.3904,-1.3904,-1.4047,-1.4742,-1.7679,-1.8519,-1.9367,-2.2297,-2.2859,-2.2859,-2.2859,-2.2859,-2.2859,-2.2859,-2.2859,-2.2859,-2.2859,0.0,0.0,-2.2859,-2.2859,-2.2859,-2.2859,-2.2859,-2.2859,-2.2859,-2.2859,-2.2859,-2.2859,-2.2859,-2.2859,-2.2859,-2.2859,-2.2859,-2.2859,-2.2859,-2.2859,-2.2859,-2.3679,-2.3966,-2.3966,-2.4781,-2.5052,-2.5052,-2.5052,-2.5052,-2.5052,-2.5052,-2.5052,-2.5052,-2.5052,-2.5052,-2.5052,-2.5052,-2.5052,-2.5052,-2.5052,-2.5322,-2.5981,-1.0019,-0.9889,-0.9753,-0.9682,-0.953,-0.9389,-0.9313,-0.9302,-0.9302,-0.9446,-0.9879,-1.0311,-1.0599,-1.1038,-1.1332,-1.1619,-1.1619,-1.1619,-1.1619,-1.1619,-1.1619,-1.1619,-1.1619,-1.1619,-1.1619,-1.1619,-1.1619,-1.1619,-1.1619,-1.1619,-1.1619,-1.1619,-1.1619,-1.1619,-1.1619,-1.1619,-1.1619,-1.1619,-1.1619,-1.1619,-1.1619,-1.1619,-1.1619,-1.1619,-1.1619,-1.1619,-1.1619,-1.1907,-1.2194,-1.2338,-1.276,-1.3325,-1.3468,-1.3753,-1.3904,-1.3904,-1.3904,-1.3904,-1.3904,-1.3904,-1.4324,-1.6433,-1.7689,-1.8938,-2.1044,-2.216,-2.2859,-2.2859,-2.2859,-2.2859,-2.2859,-2.2859,-2.2859,-2.2859,0.0,-2.2859,-2.2859,-2.2859,-2.2859,-2.2859,-2.2859,-2.2859,-2.2859,-2.2859,-2.2859,-2.2859,-2.2859,-2.2859,-2.2859,-2.2859,-2.2859,-2.2859,-2.2859,-2.2859,-2.2859,-2.3406,-2.3816,-2.3966,-2.451,-2.4916,-2.5052,-2.5052,-2.5052,-2.5052,-2.5052,-2.5052,-2.5052,-2.5052,-2.5052,-2.5052,-2.5052,-2.5052,-2.5052,-2.5052,-2.5187,-2.5322,-1.0019,-0.9921,-0.9802,-0.9688,-0.9568,-0.9449,-0.9323,-0.9302,-0.9302,-0.9302,-0.959,-1.0023,-1.0455,-1.075,-1.1188,-1.1619,-1.1619,-1.1619,-1.1619,-1.1619,-1.1619,-1.1619,-1.1619,-1.1619,-1.1619,-1.1619,-1.1619,-1.1619,-1.1619,-1.1619,-1.1619,-1.1619,-1.1619,-1.1619,-1.1619,-1.1619,-1.1619,-1.1619,-1.1619,-1.1619,-1.1619,-1.1619,-1.1619,-1.1619,-1.1619,-1.1619,-1.1619,-1.1763,-1.2051,-1.2194,-1.2481,-1.3047,-1.3182,-1.3611,-1.3904,-1.3904,-1.3904,-1.3904,-1.3904,-1.3904,-1.4181,-1.5735,-1.6846,-1.825,-2.0213,-2.1471,-2.231,-2.2859,-2.2859,-2.2859,-2.2859,-2.2859,-2.2859,-2.2859,-2.2859,-2.2859,-2.2859,-2.2859,-2.2859,-2.2859,-2.2859,-2.2859,-2.2859,-2.2859,-2.2859,-2.2859,-2.2859,-2.2859,-2.2859,-2.2859,-2.2722,-2.216,-2.2585,-2.2722,-2.216,-2.2996,-2.3543,-2.3966,-2.436,-2.4781,-2.5052,-2.5052,-2.5052,-2.5052,-2.5052,-2.5052,-2.5052,-2.5052,-2.5052,-2.5052,-2.5052,-2.5052,-2.5052,-2.5052,-2.5052,-2.5187,-1.0019,-0.9921,-0.9802,-0.9688,-0.9568,-0.9449,-0.9323,-0.9302,-0.9302,-0.9302,-0.959,-1.0023,-1.0455,-1.075,-1.1188,-1.1619,-1.1619,-1.1619,-1.1619,-1.1619,-1.1619,-1.1619,-1.1619,-1.1619,-1.1619,-1.1619,-1.1619,-1.1619,-1.1619,-1.1619,-1.1619,-1.1619,-1.1619,-1.1619,-1.1619,-1.1619,-1.1619,-1.1619,-1.1619,-1.1619,-1.1619,-1.1619,-1.1619,-1.1619,-1.1619,-1.1619,-1.1619,-1.1619,-1.1619,-1.2051,-1.2194,-1.2338,-1.3039,-1.3611,-1.3904,-1.3904,-1.3904,-1.3904,-1.3904,-1.3904,-1.4181,-1.5726,-1.615,-1.6856,-1.9935,-2.0629,-2.1044,-2.2585,-2.2859,-2.2859,-2.2859,-2.2859,-2.2859,-2.2859,-2.2859,-2.2859,-2.2859,-2.2859,-2.2859,-2.2859,-2.2859,-2.2859,-2.2859,-2.2859,-2.2859,-2.2859,-2.2859,-2.2859,-2.2859,-2.2859,-2.216,-2.0629,-2.2022,-2.216,-2.0629,-2.2435,-2.3543,-2.3966,-2.4374,-2.4781,-2.5052,-2.5052,-2.5052,-2.5052,-2.5052,-2.5052,-2.5052,-2.5052,-2.5052,-2.5052,-2.5052,-2.5052,-2.5052,-2.5052,-2.5052,-2.5052,-1.0019,-0.9992,-0.9905,-0.9704,-0.9639,-0.9546,-0.9334,-0.9302,-0.9302,-0.9302,-0.9446,-0.959,-1.0023,-1.0455,-1.075,-1.1188,-1.1476,-1.1619,-1.1619,-1.1619,-1.1619,-1.1619,-1.1619,-1.1619,-1.1619,-1.1619,-1.1619,-1.1619,-1.1619,-1.1619,-1.1619,-1.1619,-1.1619,-1.1619,-1.1619,-1.1619,-1.1619,-1.1619,-1.1619,-1.1619,-1.1619,-1.1619,-1.1619,-1.1619,-1.1619,-1.1619,-1.1619,-1.1619,-1.1619,-1.1763,-1.1907,-1.2338,-1.3039,-1.3325,-1.3468,-1.3753,-1.3904,-1.3904,-1.3904,-1.3904,-1.4039,-1.4466,-1.531,-1.6291,-1.7268,-1.825,-1.9228,-1.9646,-2.0629,-2.0906,-1.9924,-2.0617,-2.0906,-1.9924,-2.0629,-2.1321,-2.1321,-2.216,-2.2859,-2.2859,-2.2859,-2.2859,-2.2859,-2.2859,-2.2859,-2.2859,-2.1885,-2.1321,-2.1321,-2.034,-1.9507,-1.9089,-1.9507,-1.9507,-1.9089,-2.1734,-2.327,-2.3543,-2.3952,-2.4374,-2.4645,-2.4916,-2.5052,-2.5052,-2.5052,-2.5052,-2.5052,-2.5052,-2.5052,-2.5052,-2.5052,-2.5052,-2.5052,-2.5052,-2.5052,-2.5052,-1.0019,-1.0019,-0.996,-0.9769,-0.9699,-0.9606,-0.9405,-0.9334,-0.9302,-0.9302,-0.9302,-0.9446,-0.9879,-1.0311,-1.0599,-1.09,-1.1332,-1.1619,-1.1619,-1.1619,-1.1619,-1.1619,-1.1619,-1.1619,-1.1619,-1.1619,-1.1619,-1.1619,-1.1619,-1.1619,-1.1619,-1.1619,-1.1619,-1.1619,-1.1619,-1.1619,-1.1619,-1.1619,-1.1619,-1.1619,-1.1619,-1.1619,-1.1619,-1.1619,-1.1619,-1.1619,-1.1619,-1.1619,-1.1619,-1.1619,-1.1907,-1.2338,-1.276,-1.3039,-1.3325,-1.3611,-1.3761,-1.3904,-1.3904,-1.3904,-1.3904,-1.3904,-1.4608,-1.531,-1.6018,-1.6846,-1.7689,-1.8239,-1.9089,-1.9507,-1.8519,-1.9089,-1.9507,-1.8519,-1.9089,-1.9785,-1.9785,-2.0479,-2.1183,-2.1183,-2.1596,-2.2022,-2.2022,-2.2585,-2.2585,-2.2022,-2.1183,-2.0352,-1.9785,-1.8938,-1.81,-1.7549,-1.81,-1.81,-1.7549,-1.9924,-2.1308,-2.1584,-2.2559,-2.3256,-2.3665,-2.4645,-2.5052,-2.5052,-2.5052,-2.5052,-2.5052,-2.5052,-2.5052,-2.5052,-2.5052,-2.5052,-2.5052,-2.5052,-2.5052,-2.5052,-1.0019,-1.0019,-0.9981,-0.9856,-0.9742,-0.9628,-0.9503,-0.9383,-0.9302,-0.9302,-0.9302,-0.9446,-0.9735,-1.0311,-1.0599,-1.09,-1.1332,-1.1619,-1.1619,-1.1619,-1.1619,-1.1619,-1.1619,-1.1619,-1.1619,-1.1619,-1.1619,-1.1619,-1.1619,-1.1619,-1.1619,-1.1619,-1.1619,-1.1619,-1.1619,-1.1619,-1.1619,-1.1619,-1.1619,-1.1619,-1.1619,-1.1619,-1.1619,-1.1619,-1.1619,-1.1619,-1.1619,-1.1619,-1.1619,-1.1619,-1.1907,-1.2194,-1.2194,-1.2617,-1.3182,-1.3325,-1.3611,-1.3904,-1.3904,-1.3904,-1.3904,-1.3904,-1.3904,-1.4181,-1.5593,-1.5867,-1.6291,-1.7679,-1.81,-1.81,-1.7959,-1.81,-1.81,-1.7959,-1.81,-1.8239,-1.8239,-1.8239,-1.8379,-1.8379,-1.9646,-2.0629,-2.0629,-2.1885,-2.216,-2.0768,-2.0352,-1.9646,-1.8239,-1.81,-1.7409,-1.6009,-1.7268,-1.7268,-1.5867,-1.7268,-1.8239,-1.8927,-2.0605,-2.1721,-2.2134,-2.3938,-2.4645,-2.4766,-2.4781,-2.4916,-2.4916,-2.5052,-2.5052,-2.5052,-2.5052,-2.5052,-2.5052,-2.5052,-2.5052,-2.5052,-1.0019,-1.0019,-0.9981,-0.9856,-0.9742,-0.9628,-0.9503,-0.9383,-0.9302,-0.9302,-0.9302,-0.9302,-0.9446,-1.0023,-1.0599,-1.0599,-1.1181,-1.1619,-1.1619,-1.1619,-1.1619,-1.1619,-1.1619,-1.1619,-1.1619,-1.1619,-1.1619,-1.1619,-1.1619,-1.1619,-1.1619,-1.1619,-1.1619,-1.1619,-1.1619,-1.1619,-1.1619,-1.1619,-1.1619,-1.1619,-1.1619,-1.1619,-1.1619,-1.1619,-1.1619,-1.1619,-1.1619,-1.1619,-1.1619,-1.1619,-1.1619,-1.1763,-1.2051,-1.2338,-1.2617,-1.3182,-1.3325,-1.3468,-1.3753,-1.3904,-1.3904,-1.3904,-1.3904,-1.4047,-1.4324,-1.4324,-1.4466,-1.4742,-1.5726,-1.6291,-1.5026,-1.5867,-1.6291,-1.5026,-1.5867,-1.6574,-1.6574,-1.7689,-1.8379,-1.8379,-1.9646,-2.0629,-2.0629,-2.0906,-2.0906,-2.0629,-1.839,-1.6997,-1.6574,-1.5443,-1.4742,-1.4324,-1.4742,-1.4742,-1.4324,-1.4742,-1.6141,-1.8519,-1.9495,-2.0063,-2.0201,-2.1158,-2.1571,-2.1571,-2.2819,-2.3243,-2.3379,-2.4631,-2.5052,-2.5052,-2.5052,-2.5052,-2.5052,-2.5052,-2.5052,-2.5187,-1.0019,-1.0019,-1.0003,-0.9938,-0.9829,-0.9709,-0.959,-0.947,-0.9372,-0.9313,-0.9302,-0.9302,-0.9302,-0.9879,-1.0311,-1.075,-1.1332,-1.1619,-1.1619,-1.1619,-1.1619,-1.1619,-1.1619,-1.1619,-1.1619,-1.1619,-1.1619,-1.1619,-1.1619,-1.1619,-1.1619,-1.1619,-1.1619,-1.1619,-1.1619,-1.1619,-1.1619,-1.1619,-1.1619,-1.1619,-1.1619,-1.1619,-1.1619,-1.1619,-1.1619,-1.1619,-1.1619,-1.1619,-1.1633,-1.1694,-1.1721,-1.1735,-1.2102,-1.2269,-1.2415,-1.2846,-1.3283,-1.3574,-1.3873,-1.4011,-1.4131,-1.4058,-1.4034,-1.401,-1.392,-1.3904,-1.3904,-1.3904,-1.4466,-1.4742,-1.4039,-1.4466,-1.475,-1.4047,-1.4608,-1.5026,-1.5026,-1.5726,-1.6282,-1.6282,-1.825,-1.9785,-2.0491,-1.9924,-1.9228,-1.853,-1.6997,-1.5726,-1.5026,-1.4324,-1.3904,-1.3904,-1.3904,-1.3904,-1.3904,-1.3904,-1.4742,-1.6282,-1.7549,-1.8239,-1.8519,-1.9773,-2.0467,-2.0731,-2.2121,-2.2819,-2.2956,-2.4495,-2.5052,-2.5052,-2.5052,-2.5052,-2.5052,-2.5052,-2.5052,-2.5187,-1.0019,-1.0019,-1.0019,-1.0019,-0.9916,-0.9802,-0.9688,-0.9568,-0.9443,-0.9318,-0.9302,-0.9302,-0.9302,-0.959,-1.0167,-1.09,-1.1332,-1.1476,-1.1619,-1.1619,-1.1619,-1.1619,-1.1619,-1.1619,-1.1619,-1.1619,-1.1619,-1.1619,-1.1619,-1.1619,-1.1619,-1.1619,-1.1619,-1.1619,-1.1619,-1.1619,-1.1619,-1.1619,-1.1619,-1.1619,-1.1619,-1.1619,-1.1619,-1.1619,-1.1633,-1.1653,-1.1653,-1.1674,-1.1714,-1.183,-1.187,-1.1891,-1.202,-1.2359,-1.2508,-1.2508,-1.3103,-1.3557,-1.3706,-1.3995,-1.4252,-1.4261,-1.4221,-1.418,-1.4026,-1.3945,-1.3904,-1.3904,-1.3904,-1.3904,-1.3904,-1.3904,-1.3904,-1.3904,-1.3904,-1.3904,-1.3904,-1.3904,-1.3904,-1.3904,-1.6282,-1.853,-2.0063,-1.8949,-1.7549,-1.615,-1.5867,-1.5168,-1.3904,-1.3904,-1.3904,-1.3904,-1.3904,-1.3904,-1.3904,-1.3904,-1.3904,-1.3896,-1.5443,-1.6423,-1.6846,-1.8519,-1.9495,-1.9773,-2.1433,-2.1996,-2.2134,-2.3938,-2.4766,-2.4766,-2.5052,-2.5052,-2.5052,-2.5052,-2.5052,-2.5187,-1.0019,-1.0019,-1.0019,-1.0019,-0.9916,-0.9802,-0.9688,-0.9568,-0.9443,-0.9318,-0.9302,-0.9302,-0.9302,-0.959,-1.0167,-1.09,-1.1044,-1.1188,-1.1619,-1.1619,-1.1619,-1.1619,-1.1619,-1.1619,-1.1619,-1.1619,-1.1619,-1.1619,-1.1619,-1.1619,-1.1619,-1.1619,-1.1619,-1.1619,-1.1619,-1.1619,-1.1619,-1.1619,-1.1619,-1.1619,-1.1619,-1.1619,-1.1619,-1.1619,-1.1694,-1.1803,-1.1803,-1.1891,-1.2006,-1.2026,-1.2033,-1.2033,-1.2054,-1.206,-1.221,-1.2508,-1.2657,-1.2955,-1.3557,-1.3854,-1.3995,-1.426,-1.4399,-1.4391,-1.4367,-1.4123,-1.3904,-1.3904,-1.3904,-1.3904,-1.3904,-1.3904,-1.3904,-1.3904,-1.3904,-1.3904,-1.3904,-1.3904,-1.3904,-1.3904,-1.5452,-1.6987,-1.8519,-1.7268,-1.6291,-1.615,-1.4884,-1.4039,-1.3904,-1.3904,-1.3904,-1.3904,-1.3904,-1.3904,-1.3904,-1.3904,-1.3904,-1.3904,-1.4181,-1.4466,-1.4893,-1.5735,-1.616,-1.6442,-1.8261,-1.896,-1.9239,-2.1996,-2.3106,-2.3229,-2.4631,-2.5052,-2.5052,-2.5052,-2.5052,-2.5187,-1.0019,-1.0019,-1.0019,-1.0019,-0.9976,-0.99,-0.978,-0.9715,-0.9617,-0.9432,-0.9405,-0.9378,-0.9313,-0.9746,-1.0179,-1.075,-1.105,-1.1345,-1.1619,-1.1619,-1.1619,-1.1619,-1.1619,-1.1619,-1.1619,-1.1619,-1.1619,-1.1619,-1.1619,-1.1619,-1.1619,-1.1619,-1.1619,-1.1619,-1.1619,-1.1619,-1.1619,-1.1619,-1.1667,-1.1735,-1.1735,-1.1789,-1.187,-1.187,-1.1904,-1.1959,-1.1959,-1.2006,-1.2074,-1.2162,-1.2189,-1.2203,-1.2284,-1.2311,-1.2305,-1.2457,-1.2761,-1.2913,-1.3376,-1.3528,-1.3809,-1.3852,-1.3829,-1.3806,-1.3714,-1.3583,-1.359,-1.393,-1.3826,-1.3611,-1.3904,-1.3904,-1.3904,-1.3904,-1.3904,-1.3904,-1.3904,-1.3904,-1.4181,-1.5026,-1.5026,-1.5452,-1.6987,-1.5726,-1.4884,-1.4884,-1.4324,-1.3904,-1.3904,-1.3904,-1.3904,-1.3904,-1.3904,-1.3904,-1.3904,-1.3904,-1.3904,-1.3904,-1.3904,-1.4047,-1.4474,-1.4901,-1.5186,-1.5744,-1.7278,-1.8121,-1.8541,-2.0743,-2.1571,-2.1709,-2.3243,-2.436,-2.5052,-2.5052,-2.5052,-2.5187]}]]